[[{"header":{"parameterUnit":"m.s-1","parameterCategory":1,"la1":30.6,"la2":28.766,"lo1":-90.7593,"lo2":-88.6598,"dy":0.0162,"dx":0.0183,"nx":116,"ny":114,"refTime":"2023-05-28T12:00:00:Z","depth":0,"parameterNumber":2,"parameterNumberName":"U-component_of_WINDS"},"data":[0.0,0.0,0.0,0.0,0.0,0.0,0.0,0.0,0.0,0.0,0.0,0.0,0.0,0.0,0.0,0.0,0.0,0.0,0.0,0.0,0.0,0.0,0.0,0.0,0.0,0.0,0.0,0.0,0.0,0.0,0.0,0.0,0.0,0.0,0.0,0.0,0.0,0.0,0.0,0.0,0.0,0.0,0.0,0.0,0.0,0.0,0.0,0.0,0.0,0.0,0.0,0.0,0.0,0.0,0.0,0.0,0.0,0.0,0.0,0.0,0.0,0.0,0.0,0.0,0.0,0.0,0.0,0.0,0.0,0.0,0.0,0.0,0.0,0.0,0.0,0.0,0.0,0.0,0.0,0.0,0.0,0.0,0.0,0.0,0.0,0.0,0.0,0.0,0.0,0.0,0.0,0.0,0.0,0.0,0.0,0.0,0.0,0.0,0.0,0.0,0.0,0.0,0.0,0.0,0.0,0.0,0.0,0.0,0.0,0.0,0.0,0.0,0.0,0.0,0.0,0.0,0.0,0.0,0.0,0.0,0.0,0.0,0.0,0.0,0.0,0.0,0.0,0.0,0.0,0.0,0.0,0.0,0.0,0.0,0.0,0.0,0.0,0.0,0.0,0.0,0.0,0.0,0.0,0.0,0.0,0.0,0.0,0.0,0.0,0.0,0.0,0.0,0.0,0.0,0.0,0.0,0.0,0.0,0.0,0.0,0.0,0.0,0.0,0.0,0.0,0.0,0.0,0.0,0.0,0.0,0.0,0.0,0.0,0.0,0.0,0.0,0.0,0.0,0.0,0.0,0.0,0.0,0.0,0.0,0.0,0.0,0.0,0.0,0.0,0.0,0.0,0.0,0.0,0.0,0.0,0.0,0.0,0.0,0.0,0.0,0.0,0.0,0.0,0.0,0.0,0.0,0.0,0.0,0.0,0.0,0.0,0.0,0.0,0.0,0.0,0.0,0.0,0.0,0.0,0.0,0.0,0.0,0.0,0.0,0.0,0.0,0.0,0.0,0.0,0.0,0.0,0.0,0.0,0.0,0.0,0.0,0.0,0.0,0.0,0.0,0.0,0.0,0.0,0.0,0.0,0.0,0.0,0.0,0.0,0.0,0.0,0.0,0.0,0.0,0.0,0.0,0.0,0.0,0.0,0.0,0.0,0.0,0.0,0.0,0.0,0.0,0.0,0.0,0.0,0.0,0.0,0.0,0.0,0.0,0.0,0.0,0.0,0.0,0.0,0.0,0.0,0.0,0.0,0.0,0.0,0.0,0.0,0.0,0.0,0.0,0.0,0.0,0.0,0.0,0.0,0.0,0.0,0.0,0.0,0.0,0.0,0.0,0.0,0.0,0.0,0.0,0.0,0.0,0.0,0.0,0.0,0.0,0.0,0.0,0.0,0.0,0.0,0.0,0.0,0.0,0.0,0.0,0.0,0.0,0.0,0.0,0.0,0.0,0.0,0.0,0.0,0.0,0.0,0.0,0.0,0.0,0.0,0.0,0.0,0.0,0.0,0.0,0.0,0.0,0.0,0.0,0.0,0.0,0.0,0.0,0.0,0.0,0.0,0.0,0.0,0.0,0.0,0.0,0.0,0.0,0.0,0.0,0.0,0.0,0.0,0.0,0.0,0.0,0.0,0.0,0.0,0.0,0.0,0.0,0.0,0.0,0.0,0.0,0.0,0.0,0.0,0.0,0.0,0.0,0.0,0.0,0.0,0.0,0.0,0.0,0.0,0.0,0.0,0.0,0.0,0.0,0.0,0.0,0.0,0.0,0.0,0.0,0.0,0.0,0.0,0.0,0.0,0.0,0.0,0.0,0.0,0.0,0.0,0.0,0.0,0.0,0.0,0.0,0.0,0.0,0.0,0.0,0.0,0.0,0.0,0.0,0.0,0.0,0.0,0.0,0.0,0.0,0.0,0.0,0.0,0.0,0.0,0.0,0.0,0.0,0.0,0.0,0.0,0.0,0.0,0.0,0.0,0.0,0.0,0.0,0.0,0.0,0.0,0.0,0.0,0.0,0.0,0.0,0.0,0.0,0.0,0.0,0.0,0.0,0.0,0.0,0.0,0.0,0.0,0.0,0.0,0.0,0.0,0.0,0.0,0.0,0.0,0.0,0.0,0.0,0.0,0.0,0.0,0.0,0.0,0.0,0.0,0.0,0.0,0.0,0.0,0.0,0.0,0.0,0.0,0.0,0.0,0.0,0.0,0.0,0.0,0.0,0.0,0.0,0.0,0.0,0.0,0.0,0.0,0.0,0.0,0.0,0.0,0.0,0.0,0.0,0.0,0.0,0.0,0.0,0.0,0.0,0.0,0.0,0.0,0.0,0.0,0.0,0.0,0.0,0.0,0.0,0.0,0.0,0.0,0.0,0.0,0.0,0.0,0.0,0.0,0.0,0.0,0.0,0.0,0.0,0.0,0.0,0.0,0.0,0.0,0.0,0.0,0.0,0.0,0.0,0.0,0.0,0.0,0.0,0.0,0.0,0.0,0.0,0.0,0.0,0.0,0.0,0.0,0.0,0.0,0.0,0.0,0.0,0.0,0.0,0.0,0.0,0.0,0.0,0.0,0.0,0.0,0.0,0.0,0.0,0.0,0.0,0.0,0.0,0.0,0.0,0.0,0.0,0.0,0.0,0.0,0.0,0.0,0.0,0.0,0.0,0.0,0.0,0.0,0.0,0.0,0.0,0.0,0.0,0.0,0.0,0.0,0.0,0.0,0.0,0.0,0.0,0.0,0.0,0.0,0.0,0.0,0.0,0.0,0.0,0.0,0.0,0.0,0.0,0.0,0.0,0.0,0.0,0.0,0.0,0.0,0.0,0.0,0.0,0.0,0.0,0.0,0.0,0.0,0.0,0.0,0.0,0.0,0.0,0.0,0.0,0.0,0.0,0.0,0.0,0.0,0.0,0.0,0.0,0.0,0.0,0.0,0.0,0.0,0.0,0.0,0.0,0.0,0.0,0.0,0.0,0.0,0.0,0.0,0.0,0.0,0.0,0.0,0.0,0.0,0.0,0.0,0.0,0.0,0.0,0.0,0.0,0.0,0.0,0.0,0.0,0.0,0.0,0.0,0.0,0.0,0.0,0.0,0.0,0.0,0.0,0.0,0.0,0.0,0.0,0.0,0.0,0.0,0.0,0.0,0.0,0.0,0.0,0.0,0.0,0.0,0.0,0.0,0.0,0.0,0.0,0.0,0.0,0.0,0.0,0.0,0.0,0.0,0.0,0.0,0.0,0.0,0.0,0.0,0.0,0.0,0.0,0.0,0.0,0.0,0.0,0.0,0.0,0.0,0.0,0.0,0.0,0.0,0.0,0.0,0.0,0.0,0.0,0.0,0.0,0.0,0.0,0.0,0.0,0.0,0.0,0.0,0.0,0.0,0.0,0.0,0.0,0.0,0.0,0.0,0.0,0.0,0.0,0.0,0.0,0.0,0.0,0.0,0.0,0.0,0.0,0.0,0.0,0.0,0.0,0.0,0.0,0.0,0.0,0.0,0.0,0.0,0.0,0.0,0.0,0.0,0.0,0.0,0.0,0.0,0.0,0.0,0.0,0.0,0.0,0.0,0.0,0.0,0.0,0.0,0.0,0.0,0.0,0.0,0.0,0.0,0.0,0.0,0.0,0.0,0.0,0.0,0.0,0.0,0.0,0.0,0.0,0.0,0.0,0.0,0.0,0.0,0.0,0.0,0.0,0.0,0.0,0.0,0.0,0.0,0.0,0.0,0.0,0.0,0.0,0.0,0.0,0.0,0.0,0.0,0.0,0.0,0.0,0.0,0.0,0.0,0.0,0.0,0.0,0.0,0.0,0.0,0.0,0.0,0.0,0.0,0.0,0.0,0.0,0.0,0.0,0.0,0.0,0.0,0.0,0.0,0.0,0.0,0.0,0.0,0.0,0.0,0.0,0.0,0.0,0.0,0.0,0.0,0.0,0.0,0.0,0.0,0.0,0.0,0.0,0.0,0.0,0.0,0.0,0.0,0.0,0.0,0.0,0.0,0.0,0.0,0.0,0.0,0.0,0.0,0.0,0.0,0.0,0.0,0.0,0.0,0.0,0.0,0.0,0.0,0.0,0.0,0.0,0.0,0.0,0.0,0.0,0.0,0.0,0.0,0.0,0.0,0.0,0.0,0.0,0.0,0.0,0.0,0.0,0.0,0.0,0.0,0.0,0.0,0.0,0.0,0.0,0.0,0.0,0.0,0.0,0.0,0.0,0.0,0.0,0.0,0.0,0.0,0.0,0.0,0.0,0.0,0.0,0.0,0.0,0.0,0.0,0.0,0.0,0.0,0.0,0.0,0.0,0.0,0.0,0.0,0.0,0.0,0.0,0.0,0.0,0.0,0.0,0.0,0.0,0.0,0.0,0.0,0.0,0.0,0.0,0.0,0.0,0.0,0.0,0.0,0.0,0.0,0.0,0.0,0.0,0.0,0.0,0.0,0.0,0.0,0.0,0.0,0.0,0.0,0.0,0.0,0.0,0.0,0.0,0.0,0.0,0.0,0.0,0.0,0.0,0.0,0.0,0.0,0.0,0.0,0.0,0.0,0.0,0.0,0.0,0.0,0.0,0.0,0.0,0.0,0.0,0.0,0.0,0.0,0.0,0.0,0.0,0.0,0.0,0.0,0.0,0.0,0.0,0.0,0.0,0.0,0.0,0.0,0.0,0.0,0.0,0.0,0.0,0.0,0.0,0.0,0.0,0.0,0.0,0.0,0.0,0.0,0.0,0.0,0.0,0.0,0.0,0.0,0.0,0.0,0.0,0.0,0.0,0.0,0.0,0.0,0.0,0.0,0.0,0.0,0.0,0.0,0.0,0.0,0.0,0.0,0.0,0.0,0.0,0.0,0.0,0.0,0.0,0.0,0.0,0.0,0.0,0.0,0.0,0.0,0.0,0.0,0.0,0.0,0.0,0.0,0.0,0.0,0.0,0.0,0.0,0.0,0.0,0.0,0.0,0.0,0.0,0.0,0.0,0.0,0.0,0.0,0.0,0.0,0.0,0.0,0.0,0.0,0.0,0.0,0.0,0.0,0.0,0.0,0.0,0.0,0.0,0.0,0.0,0.0,0.0,0.0,0.0,0.0,0.0,0.0,0.0,0.0,0.0,0.0,0.0,0.0,0.0,0.0,0.0,0.0,0.0,0.0,0.0,0.0,0.0,0.0,0.0,0.0,0.0,0.0,0.0,0.0,0.0,0.0,0.0,0.0,0.0,0.0,0.0,0.0,0.0,0.0,0.0,0.0,0.0,0.0,0.0,0.0,0.0,0.0,0.0,0.0,0.0,0.0,0.0,0.0,0.0,0.0,0.0,0.0,0.0,0.0,0.0,0.0,0.0,0.0,0.0,0.0,0.0,0.0,0.0,0.0,0.0,0.0,0.0,0.0,0.0,0.0,0.0,0.0,0.0,0.0,0.0,0.0,0.0,0.0,0.0,0.0,0.0,0.0,0.0,0.0,0.0,0.0,0.0,0.0,0.0,0.0,0.0,0.0,0.0,0.0,0.0,0.0,0.0,0.0,0.0,0.0,0.0,0.0,0.0,0.0,0.0,0.0,0.0,0.0,0.0,0.0,0.0,0.0,0.0,0.0,0.0,0.0,0.0,0.0,0.0,0.0,0.0,0.0,0.0,0.0,0.0,0.0,0.0,0.0,0.0,0.0,0.0,0.0,0.0,0.0,0.0,0.0,0.0,0.0,0.0,0.0,0.0,0.0,0.0,0.0,0.0,0.0,0.0,0.0,0.0,0.0,0.0,0.0,0.0,0.0,0.0,0.0,0.0,0.0,0.0,0.0,0.0,0.0,0.0,0.0,0.0,0.0,0.0,0.0,0.0,0.0,0.0,0.0,0.0,0.0,0.0,0.0,0.0,0.0,0.0,0.0,0.0,0.0,0.0,0.0,0.0,0.0,0.0,0.0,0.0,0.0,0.0,0.0,0.0,0.0,0.0,0.0,0.0,0.0,0.0,0.0,0.0,0.0,0.0,0.0,0.0,0.0,0.0,0.0,0.0,0.0,0.0,0.0,0.0,0.0,0.0,0.0,0.0,0.0,0.0,0.0,0.0,0.0,0.0,0.0,0.0,0.0,0.0,0.0,0.0,0.1932,0.1892,0.0,0.0,0.0,0.0,0.0,0.0,0.0,0.0,0.0,0.0,0.0,0.0,0.0,0.0,0.0,0.0,0.0,0.0,0.0,0.0,0.0,0.0,0.0,0.0,0.0,0.0,0.0,0.0,0.0,0.0,0.0,0.0,0.0,0.0,0.0,0.0,0.0,0.0,0.3185,0.3413,0.3412,0.3892,0.4271,0.4527,0.0,0.0,0.0,0.0,0.0,0.0,0.0,0.0,0.0,0.0,0.0,0.0,0.0,0.0,0.0,0.0,0.0,0.0,0.0,0.0,0.0,0.0,0.0,0.0,0.0,0.0,0.0,0.0,0.0,0.0,0.0,0.0,0.0,0.0,0.0,0.0,0.0,0.0,0.0,0.0,0.0,0.0,0.0,0.0,0.0,0.0,0.0,0.0,0.0,0.0,0.0,0.0,0.0,0.0,0.0,0.0,0.0,0.0,0.0,0.0,0.0,0.0,0.0,0.0,0.0,0.0,0.0,0.0,0.0,0.0,0.196,0.1953,0.0,0.0,0.0,0.0,0.0,0.0,0.0,0.0,0.0,0.0,0.0,0.0,0.0,0.0,0.0,0.0,0.0,0.0,0.0,0.0,0.0,0.0,0.0,0.0,0.0,0.0,0.0,0.0,0.0,0.0,0.0,0.0,0.0,0.0,0.0,0.0,0.0,0.2354,0.3088,0.3443,0.3443,0.3443,0.3443,0.3441,0.3421,0.0,0.0,0.0,0.0,0.0,0.0,0.0,0.0,0.0,0.0,0.0,0.0,0.0,0.0,0.0,0.0,0.0,0.0,0.0,0.0,0.0,0.0,0.0,0.0,0.0,0.0,0.0,0.0,0.0,0.0,0.0,0.0,0.0,0.0,0.0,0.0,0.0,0.0,0.0,0.0,0.0,0.0,0.0,0.0,0.0,0.0,0.0,0.0,0.0,0.0,0.0,0.0,0.0,0.0,0.0,0.0,0.0,0.0,0.0,0.0,0.0,0.0,0.0,-0.0302,0.0396,0.0401,0.1481,0.2008,0.2008,0.2008,0.2008,0.2008,0.2008,0.0,0.0,0.0,0.0,0.0,0.0,0.0,0.0,0.0,0.0,0.0,0.0,0.0,0.0,0.0,0.0,0.0,0.0,0.0,0.0,0.0,0.0,0.3205,0.3205,0.0,0.0,0.0,0.0,0.0,0.0,0.0,0.0,0.0,0.3461,0.3431,0.3321,0.3483,0.3564,0.3564,0.3564,0.3564,0.356,0.3458,0.3651,0.4075,0.0,0.0,0.0,0.0,0.0,0.0,0.0,0.0,0.0,0.0,0.0,0.0,0.0,0.0,0.0,0.0,0.0,0.0,0.0,0.0,0.0,0.0,0.0,0.0,0.0,0.0,0.0,0.0,0.0,0.0,0.0,0.0,0.0,0.0,0.0,0.0,0.0,0.0,0.0,0.0,0.0,0.3242,0.3261,0.0,0.0,0.0,0.0,0.0,0.0,0.0,0.0,0.0,0.0,0.0,0.0,0.0,-0.5108,-0.5251,-0.2937,-0.1843,-0.1933,0.0553,0.1756,0.1729,0.1915,0.2008,0.2008,0.2008,0.0,0.2008,0.2008,0.0,0.0,0.0,0.0,0.0,0.0,0.0,0.0,0.0,0.0,0.0,0.0,0.0,0.0,0.0,0.0,0.0,0.0,0.0,0.0,0.0,0.0,0.327,0.3304,0.0,0.0,0.0,0.0,0.0,0.0,0.0,0.3511,0.3511,0.3536,0.3548,0.3548,0.3071,0.3081,0.3587,0.3587,0.3587,0.3585,0.3533,0.3646,0.3838,0.3619,0.0,0.0,0.0,0.0,0.0,0.0,0.0,0.0,0.0,0.0,0.0,0.0,0.0,0.0,0.0,0.0,0.0,0.0,0.0,0.0,0.0,0.0,0.0,0.0,0.0,0.0,0.0,0.0,0.0,0.0,0.0,0.0,0.0,0.0,0.0,0.0,0.0,0.0,0.0,0.3245,0.3197,0.3249,0.2915,0.2693,0.0,0.0,0.0,0.0,0.0,0.0,0.0,0.0,0.0,-0.348,-0.2649,-0.198,-0.1433,-0.0244,0.0306,0.0277,0.145,0.2008,0.2008,0.2008,0.2008,0.2008,0.2008,0.1986,0.1999,0.2014,0.2015,0.1995,0.0,0.0,0.0,0.0,0.2005,0.2014,0.0,0.0,0.0,0.0,0.0,0.0,0.0,0.0,0.0,0.0,0.0,0.0,0.3312,0.3319,0.3336,0.3409,0.0,0.0,0.0,0.0,0.0,0.0,0.0,0.3587,0.3587,0.3587,0.3587,0.3587,0.2913,0.2913,0.3587,0.3587,0.3587,0.3587,0.3587,0.3587,0.3587,0.3587,0.3587,0.3587,0.0,0.0,0.0,0.0,0.0,0.0,0.0,0.0,0.0,0.0,0.0,0.0,0.0,0.0,0.0,0.0,0.0,0.0,0.0,0.0,0.0,0.0,0.0,0.0,0.0,0.0,0.0,0.0,0.0,0.0,0.0,0.0,0.0,0.0,0.0,0.0,0.0,0.3212,0.3141,0.3228,0.2706,0.2404,0.0,0.0,0.0,0.0,0.0,0.0,-0.139,-0.2129,-0.2322,-0.1875,-0.0787,0.0183,0.0956,0.1327,0.1485,0.149,0.1832,0.2022,0.203,0.203,0.203,0.203,0.203,0.2011,0.2028,0.1999,0.1996,0.201,0.201,0.2028,0.205,0.2021,0.2024,0.2037,0.0,0.0,0.0,0.0,0.0,0.0,0.0,0.0,0.0,0.0,0.0,0.3315,0.3401,0.3407,0.3409,0.3413,0.3462,0.3492,0.0,0.0,0.3582,0.3582,0.3586,0.3587,0.3587,0.3587,0.3587,0.3587,0.3559,0.3559,0.3587,0.3587,0.3587,0.3587,0.3587,0.3587,0.3587,0.3587,0.3587,0.3587,0.3587,0.0,0.0,0.0,0.0,0.0,0.0,0.0,0.0,0.0,0.0,0.0,0.0,0.0,0.0,0.0,0.0,0.0,0.0,0.0,0.0,0.0,0.0,0.0,0.0,0.0,0.0,0.0,0.0,0.0,0.0,0.0,0.0,0.0,0.0,0.0,0.0,0.0,0.0,0.3338,0.2796,0.0,0.0,0.0,0.0,0.1972,0.2032,0.1452,-0.003,-0.015,-0.0727,-0.1936,-0.1906,-0.1845,-0.1785,-0.0524,0.0093,0.0126,0.1386,0.2031,0.2091,0.2091,0.2091,0.2091,0.2091,0.2093,0.2091,0.2029,0.205,0.2103,0.2103,0.2121,0.2178,0.2114,0.2104,0.2101,0.0,0.0,0.0,0.0,0.0,0.0,0.0,0.0,0.0,0.3293,0.3329,0.3402,0.3461,0.3466,0.3482,0.3522,0.3544,0.3555,0.3555,0.0,0.3587,0.3587,0.3587,0.3587,0.3587,0.3587,0.3587,0.3587,0.3587,0.3587,0.3587,0.3587,0.3587,0.3587,0.3587,0.3587,0.3587,0.3587,0.3587,0.3587,0.3587,0.3587,0.0,0.0,0.0,0.0,0.0,0.0,0.0,0.0,0.0,0.0,0.0,0.0,0.0,0.0,0.0,0.0,0.0,0.0,0.0,0.0,0.0,0.0,0.0,0.0,0.0,0.0,0.0,0.0,0.0,0.0,0.0,0.0,0.0,0.0,0.0,0.0,0.0,0.2972,0.2457,0.0,0.2614,0.2385,0.2213,0.2212,0.1357,0.0578,0.0031,-0.0825,-0.1107,-0.0718,-0.0719,-0.0283,0.0634,0.111,0.1336,0.1343,0.1824,0.2085,0.2096,0.2096,0.2096,0.2096,0.2096,0.2107,0.2092,0.2081,0.2078,0.2112,0.2112,0.2119,0.2127,0.2117,0.2112,0.2111,0.0,0.0,0.0,0.0,0.0,0.0,0.0,0.0,0.0,0.3377,0.3416,0.3463,0.3521,0.3527,0.3544,0.3583,0.3587,0.3587,0.3587,0.0,0.3587,0.3587,0.3587,0.3587,0.3587,0.3587,0.3587,0.3587,0.3587,0.3587,0.3587,0.3587,0.3587,0.3587,0.3587,0.3587,0.3587,0.3587,0.3587,0.3587,0.3587,0.3587,0.3587,0.0,0.0,0.0,0.0,0.0,0.0,0.0,0.0,0.0,0.0,0.0,0.0,0.0,0.0,0.0,0.0,0.0,0.0,0.0,0.0,0.0,0.0,0.0,0.0,0.0,0.0,0.0,0.0,0.0,0.0,0.0,0.0,0.0,0.0,0.255,0.2521,0.2792,0.2288,0.215,0.2634,0.2246,0.2022,0.2234,0.1303,0.072,0.072,-0.0125,-0.022,0.0667,0.0699,0.1149,0.2096,0.2096,0.2102,0.2111,0.2111,0.2117,0.2127,0.2127,0.2127,0.2127,0.2127,0.2138,0.2125,0.2125,0.2146,0.2127,0.2127,0.2127,0.2127,0.2127,0.2127,0.2127,0.0,0.0,0.0,0.0,0.0,0.0,0.0,0.0,0.3435,0.3489,0.3497,0.3522,0.358,0.3587,0.3587,0.3587,0.3587,0.3587,0.3587,0.359,0.359,0.359,0.3589,0.3587,0.3587,0.3587,0.3587,0.3587,0.3587,0.3587,0.3587,0.3587,0.3587,0.3587,0.3587,0.3587,0.3587,0.3587,0.3587,0.3587,0.3587,0.3587,0.3587,0.0,0.0,0.0,0.0,0.0,0.0,0.0,0.0,0.0,0.0,0.0,0.0,0.0,0.0,0.0,0.0,0.0,0.0,0.0,0.0,0.0,0.0,0.0,0.0,0.0,0.0,0.0,0.0,0.0,0.0,0.0,0.0,0.0,0.2744,0.2568,0.2504,0.2837,0.2358,0.2133,0.2471,0.219,0.1988,0.1988,0.2047,0.2096,0.2096,0.2096,0.2096,0.2098,0.2098,0.2098,0.2099,0.2099,0.2114,0.211,0.211,0.2126,0.2188,0.2188,0.2188,0.2188,0.2188,0.2188,0.2188,0.219,0.219,0.219,0.2189,0.2188,0.2188,0.2188,0.2188,0.2188,0.0,0.0,0.0,0.0,0.0,0.0,0.0,0.3995,0.3478,0.3495,0.3536,0.3568,0.3585,0.3587,0.3587,0.3587,0.3587,0.3587,0.3587,0.0,0.3681,0.3681,0.3639,0.3587,0.3587,0.3587,0.3587,0.3587,0.3587,0.3587,0.3587,0.3587,0.3587,0.3587,0.3587,0.3587,0.3587,0.3587,0.3587,0.3587,0.3587,0.3587,0.3587,0.0,0.0,0.0,0.0,0.0,0.0,0.0,0.0,0.0,0.0,0.0,0.0,0.0,0.0,0.0,0.0,0.0,0.0,0.0,0.0,0.0,0.0,0.0,0.0,0.0,0.0,0.0,0.0,0.0,0.0,0.0,0.2517,0.2438,0.249,0.2267,0.2149,0.2243,0.2147,0.2104,0.2199,0.2142,0.2083,0.2083,0.2091,0.2096,0.2096,0.2096,0.2107,0.2096,0.2097,0.2108,0.2163,0.2163,0.2168,0.2176,0.2176,0.218,0.2188,0.2188,0.2188,0.2188,0.2188,0.2188,0.219,0.2213,0.2187,0.2185,0.2197,0.2188,0.2188,0.2188,0.2188,0.2192,0.0,0.0,0.0,0.0,0.0,0.0,0.0,0.5445,0.5013,0.5013,0.503,0.5061,0.5061,0.5061,0.4866,0.4397,0.4369,0.4189,0.3682,0.3687,0.3696,0.367,0.3634,0.3587,0.3587,0.3587,0.3587,0.3587,0.3587,0.3587,0.3587,0.3587,0.3587,0.3587,0.3587,0.3587,0.3587,0.3587,0.3587,0.359,0.3644,0.3639,0.3587,0.3587,0.3604,0.3654,0.3654,0.3694,0.3746,0.3746,0.0,0.0,0.0,0.0,0.0,0.0,0.0,0.0,0.0,0.0,0.0,0.0,0.0,0.0,0.0,0.0,0.0,0.0,0.0,0.0,0.0,0.0,0.0,0.0,0.2375,0.2287,0.2267,0.2141,0.2037,0.2037,0.2085,0.2096,0.2096,0.2108,0.2115,0.2115,0.2127,0.2135,0.2135,0.2135,0.2143,0.2128,0.2128,0.217,0.2188,0.2188,0.2188,0.2188,0.2201,0.2208,0.2208,0.2187,0.2193,0.2193,0.2193,0.2193,0.2194,0.2212,0.2184,0.2217,0.0,0.0,0.0,0.0,0.2193,0.2195,0.0,0.0,0.0,0.0,0.0,0.0,0.0,0.718,0.7116,0.7129,0.7132,0.7137,0.7176,0.7179,0.6763,0.5736,0.5701,0.5238,0.4013,0.3807,0.3696,0.3648,0.364,0.3636,0.3636,0.3636,0.3636,0.3636,0.3636,0.3636,0.3636,0.3636,0.3636,0.3636,0.3636,0.3636,0.3636,0.3636,0.3636,0.3641,0.3696,0.368,0.3598,0.3633,0.367,0.3717,0.3717,0.3757,0.3809,0.3809,0.0,0.0,0.0,0.0,0.0,0.0,0.0,0.0,0.0,0.0,0.0,0.0,0.0,0.0,0.0,0.0,0.0,0.0,0.0,0.0,0.0,0.0,0.0,0.0,0.2293,0.2102,0.2102,0.2105,0.2105,0.2102,0.2105,0.2107,0.2107,0.2099,0.2114,0.2114,0.2172,0.2188,0.2188,0.2188,0.0,0.0,0.0,0.2188,0.2188,0.2192,0.2194,0.2194,0.2191,0.2205,0.2206,0.2198,0.221,0.221,0.221,0.221,0.2211,0.2214,0.2217,0.2219,0.2213,0.221,0.221,0.221,0.221,0.2211,0.0,0.0,0.0,0.0,0.0,0.0,0.0,0.7735,0.7146,0.733,0.7344,0.7408,0.7559,0.757,0.7484,0.7282,0.7277,0.6747,0.5477,0.4393,0.3798,0.3835,0.379,0.3764,0.3764,0.3764,0.3764,0.3764,0.3764,0.3764,0.3764,0.3764,0.3764,0.3764,0.3764,0.3764,0.3764,0.3764,0.3764,0.3764,0.3776,0.3744,0.3695,0.3744,0.377,0.3781,0.3781,0.382,0.3872,0.3872,0.3883,0.3903,0.3903,0.3911,0.0,0.0,0.0,0.0,0.0,0.0,0.0,0.0,0.0,0.0,0.0,0.0,0.0,0.0,0.0,0.0,0.0,0.0,0.0,0.2191,0.215,0.2101,0.2101,0.2154,0.2161,0.2104,0.2155,0.217,0.217,0.2176,0.2179,0.2179,0.2185,0.2188,0.2188,0.2188,0.2188,0.2188,0.2188,0.2188,0.2188,0.2213,0.2191,0.2191,0.2187,0.0,0.2201,0.2208,0.221,0.221,0.221,0.221,0.2212,0.2272,0.2295,0.2275,0.2228,0.221,0.221,0.221,0.221,0.2214,0.0,0.0,0.0,0.0,0.0,0.0,0.0,0.9275,0.894,0.9046,0.9056,0.9142,0.9321,0.9338,0.9136,0.8659,0.8078,0.7493,0.6839,0.6172,0.5791,0.5791,0.5777,0.5752,0.5752,0.5083,0.4762,0.4762,0.412,0.3799,0.3799,0.3799,0.3799,0.3799,0.3799,0.3799,0.3799,0.3799,0.3799,0.3802,0.3832,0.3827,0.3799,0.3799,0.3817,0.3845,0.3845,0.3884,0.3905,0.3905,0.3895,0.3889,0.3889,0.3889,0.3889,0.0,0.0,0.0,0.0,0.0,0.0,0.0,0.0,0.0,0.0,0.0,0.0,0.0,0.0,0.2302,0.2287,0.0,0.2124,0.214,0.2155,0.2165,0.2165,0.2179,0.2183,0.2167,0.2179,0.2188,0.2188,0.2188,0.2188,0.2188,0.2188,0.2195,0.221,0.2211,0.2185,0.22,0.22,0.22,0.22,0.2215,0.2188,0.2188,0.2218,0.2232,0.2233,0.2247,0.2253,0.2253,0.2253,0.2253,0.2255,0.2269,0.2284,0.2293,0.2265,0.2253,0.2253,0.2253,0.2253,0.2255,0.0,0.0,0.0,0.0,0.0,0.0,0.0,0.0,1.0704,1.0741,1.0772,1.083,1.1078,1.1102,1.0795,1.0,0.8877,0.8187,0.8187,0.7951,0.7787,0.7746,0.7741,0.7741,0.7741,0.6685,0.6128,0.6128,0.5101,0.4601,0.4601,0.4601,0.4601,0.4601,0.4601,0.4601,0.4601,0.4601,0.4601,0.4606,0.4666,0.469,0.4682,0.4623,0.4311,0.3908,0.3908,0.3909,0.395,0.4195,0.4287,0.4349,0.4593,0.4685,0.4626,0.4394,0.4275,0.0,0.0,0.0,0.0,0.0,0.0,0.0,0.0,0.3602,0.3165,0.2882,0.2885,0.2763,0.2203,0.2114,0.2126,0.2184,0.2188,0.2188,0.2188,0.2188,0.2188,0.2188,0.2188,0.2188,0.2188,0.2188,0.2191,0.2197,0.2197,0.221,0.2207,0.2208,0.2185,0.221,0.221,0.221,0.221,0.2216,0.2219,0.2219,0.2285,0.2299,0.23,0.2286,0.2296,0.2296,0.2296,0.2296,0.2296,0.2296,0.2296,0.2296,0.2296,0.2296,0.2296,0.2296,0.2296,0.2296,0.0,0.0,0.0,0.0,0.0,0.0,0.0,0.0,0.0,1.0943,1.0964,1.1094,1.1403,1.1439,1.1483,1.1549,1.0352,0.9566,0.9566,0.8505,0.7892,0.7878,0.7878,0.7878,0.7878,0.7727,0.7666,0.7666,0.7514,0.7453,0.7453,0.7453,0.7453,0.7453,0.7453,0.7453,0.7453,0.7453,0.7453,0.7453,0.7436,0.7441,0.7441,0.7459,0.5973,0.3909,0.3909,0.3915,0.4073,0.5266,0.5663,0.5876,0.7065,0.7462,0.7237,0.6098,0.5557,0.5321,0.5391,0.5802,0.6339,0.663,0.6183,0.5708,0.0,0.5845,0.5516,0.4269,0.4061,0.3711,0.2339,0.2165,0.2184,0.2188,0.2188,0.2188,0.2188,0.2188,0.2188,0.2188,0.2188,0.2188,0.2188,0.2188,0.2199,0.2193,0.2195,0.2208,0.2204,0.2205,0.2207,0.221,0.221,0.221,0.221,0.2273,0.2286,0.2286,0.2279,0.2292,0.2292,0.2295,0.2296,0.2296,0.2296,0.2296,0.2296,0.2296,0.2296,0.2296,0.2296,0.2296,0.2296,0.2296,0.2296,0.2296,0.0,0.0,0.0,0.0,0.0,0.0,0.0,0.0,0.0,0.0,1.0833,1.0944,1.1297,1.1533,1.1721,1.1798,1.1281,1.097,1.097,1.0486,1.0179,1.0179,1.0179,1.0179,1.0179,0.9414,0.9012,0.9012,0.8252,0.7889,0.7889,0.7889,0.7889,0.7889,0.7889,0.7889,0.7889,0.7889,0.7889,0.7889,0.7889,0.7889,0.7889,0.7889,0.7217,0.6243,0.6243,0.6243,0.0,0.0,0.7065,0.7156,0.7736,0.7969,0.7911,0.737,0.7081,0.6841,0.6577,0.6699,0.6927,0.7115,0.6769,0.6409,0.6549,0.6447,0.6022,0.4791,0.4418,0.3932,0.2669,0.2313,0.2188,0.2188,0.2188,0.2188,0.2188,0.2188,0.2188,0.2188,0.2204,0.2208,0.219,0.2205,0.2187,0.2199,0.2217,0.2205,0.2271,0.2272,0.2244,0.226,0.226,0.226,0.226,0.2273,0.2315,0.2315,0.2291,0.2296,0.2296,0.2296,0.2296,0.2296,0.2296,0.2296,0.2296,0.2296,0.2296,0.2296,0.2296,0.2878,0.3568,0.266,0.2878,0.3713,0.0,0.0,0.0,0.0,0.0,0.0,0.0,0.0,0.0,0.0,0.0,0.0,0.0,1.1553,1.1806,1.1806,1.1806,1.1806,1.1806,1.1806,1.1806,1.1806,1.1806,1.1806,1.1806,1.0849,1.0358,1.0358,0.9414,0.8988,0.8988,0.8988,0.8988,0.8988,0.8988,0.8988,0.8988,0.8988,0.8988,0.8988,0.8988,0.8988,0.8988,0.8988,0.8988,0.8894,0.8163,0.7889,0.0,0.0,0.8461,0.8582,0.8919,0.9137,0.9196,0.8821,0.8573,0.8258,0.7732,0.7825,0.8086,0.8267,0.8081,0.7896,0.8126,0.8026,0.7527,0.6244,0.5797,0.5235,0.3966,0.3195,0.2893,0.3294,0.2691,0.2323,0.2726,0.2431,0.2201,0.2201,0.2194,0.2204,0.2216,0.22,0.2216,0.2224,0.2245,0.2236,0.2301,0.2303,0.2311,0.2295,0.2296,0.2296,0.2296,0.2296,0.2296,0.2296,0.2296,0.2296,0.2296,0.2296,0.2296,0.2296,0.2296,0.2296,0.2333,0.2769,0.295,0.2987,0.3422,0.4292,0.52,0.4039,0.4329,0.5345,0.0,0.0,0.0,0.0,0.0,0.0,0.0,0.0,0.0,0.0,0.0,0.0,0.0,1.1553,1.1806,1.1806,1.1806,1.1806,1.1806,1.1806,1.1806,1.1806,1.1806,1.1806,1.1806,1.1776,1.1746,1.1746,1.1716,1.1686,1.1686,1.1686,1.1686,1.1686,1.1686,1.1686,1.1686,1.1686,1.1686,1.1686,1.1686,1.1686,1.1686,1.1686,1.1686,1.1345,0.8803,0.0,0.0,0.9316,0.9873,1.0246,1.1491,1.2021,1.1945,1.068,0.9946,0.9438,0.8979,0.9594,1.0511,1.1043,1.1016,1.0966,1.1361,1.1555,1.1137,0.9329,0.8967,0.8402,0.6633,0.5166,0.4667,0.6066,0.3997,0.2691,0.4033,0.3063,0.2199,0.2199,0.2191,0.2209,0.2208,0.2209,0.2221,0.2286,0.2289,0.2302,0.2293,0.2295,0.2295,0.2296,0.2296,0.2296,0.2296,0.2296,0.2296,0.2296,0.2296,0.2296,0.2296,0.2296,0.2296,0.2296,0.2296,0.2296,0.2405,0.3968,0.4622,0.4766,0.6282,0.6896,0.6934,0.6859,0.6896,0.6934,0.0,0.0,0.0,0.0,0.0,0.0,0.0,0.0,0.0,0.0,0.0,0.0,0.0,0.0,0.0,0.0,1.2281,1.1806,1.1806,1.1806,1.1806,1.1806,1.1806,1.1806,1.1806,1.1806,1.1806,1.1806,1.1806,1.1806,1.1806,1.1806,1.1806,1.1806,1.1806,1.1806,1.1806,1.1806,1.1806,1.1806,1.1806,1.1806,1.1806,1.1806,1.1806,1.1698,0.0,0.0,1.07,1.1133,1.1402,1.1642,1.2054,1.2337,1.2351,1.1573,1.1126,1.078,1.0143,1.0483,1.1034,1.1084,1.1264,1.1459,1.1672,1.1574,1.1045,0.9709,0.9075,0.8395,0.7159,0.6243,0.5886,0.6515,0.5813,0.534,0.5815,0.5577,0.5314,0.5314,0.5307,0.5315,0.5315,0.3479,0.2279,0.229,0.2308,0.2286,0.2296,0.2296,0.2805,0.3859,0.3895,0.4401,0.5414,0.5414,0.5414,0.5414,0.4365,0.3895,0.3895,0.3895,0.3895,0.3931,0.4981,0.5414,0.5449,0.5994,0.6279,0.6402,0.6913,0.7796,0.878,0.878,0.9451,1.0221,0.0,0.0,0.0,0.0,0.0,0.0,0.0,0.0,0.0,0.0,0.0,0.0,0.0,0.0,0.0,0.0,0.0,1.3174,1.3174,1.3174,1.3174,1.3174,1.3174,1.3174,1.3174,1.3174,1.3174,1.3174,1.3174,1.2934,1.2487,1.2487,1.2251,1.1806,1.1806,1.1806,1.1806,1.1806,1.1806,1.1806,1.1806,1.1806,1.1815,1.1845,1.1866,0.0,0.0,0.0,1.2211,1.2119,1.2247,1.2366,1.2238,1.2262,1.2214,1.1807,1.1592,1.1362,1.0898,1.1006,1.1249,1.1228,1.1445,1.1679,1.1787,1.1615,1.1181,1.0346,0.9886,0.9405,0.8677,0.7846,0.7492,0.8181,0.7413,0.6889,0.744,0.715,0.6896,0.6896,0.6904,0.6924,0.6924,0.5136,0.3992,0.3992,0.3984,0.3965,0.3965,0.3965,0.4438,0.5489,0.5525,0.5994,0.7004,0.7004,0.7004,0.7004,0.5994,0.5525,0.5525,0.5525,0.5539,0.5637,0.6655,0.711,0.7176,0.7726,0.8021,0.8155,0.8713,0.9616,1.0548,1.0548,1.1223,1.2009,0.0,0.0,0.0,0.0,0.0,0.0,0.0,0.0,0.0,0.0,0.0,0.0,0.0,0.0,0.0,0.0,0.0,0.0,1.5604,1.5604,1.5604,1.5604,1.5604,1.5604,1.5604,1.5604,1.5604,1.5604,1.5604,1.4976,1.3814,1.3814,1.3135,1.1984,1.1984,1.1984,1.1984,1.1984,1.1984,1.1988,1.1935,1.1909,1.193,1.1979,0.0,0.0,0.0,1.2426,1.2572,1.2377,1.243,1.2495,1.2101,1.1884,1.1724,1.1571,1.1374,1.1231,1.1268,1.1246,1.1267,1.1514,1.1694,1.1813,1.1813,1.178,1.1652,1.1291,1.1349,1.1361,1.1002,0.9826,0.9416,1.0976,0.8805,0.7433,0.8932,0.7992,0.7134,0.7134,0.7208,0.7223,0.7223,0.7223,0.7223,0.7223,0.7076,0.7004,0.7004,0.7004,0.7042,0.7115,0.7115,0.7151,0.7223,0.7223,0.7223,0.7223,0.7151,0.7115,0.7115,0.7119,0.7205,0.7328,0.7406,0.7533,0.777,0.923,0.9834,0.9989,1.1504,1.2115,1.2121,1.2121,1.2213,1.2281,0.0,0.0,0.0,0.0,0.0,0.0,0.0,0.0,0.0,0.0,0.0,0.0,0.0,0.0,0.0,0.0,0.0,0.0,1.5604,1.5604,1.5604,1.5604,1.5604,1.5604,1.5604,1.5604,1.5604,1.5604,1.5604,1.5421,1.5124,1.5124,1.4946,1.4624,1.4624,1.4624,1.4624,1.4624,1.4624,1.455,0.0,1.3362,1.3293,0.0,0.0,0.0,1.2434,1.256,1.2588,1.2543,1.2399,1.2153,1.1644,1.1445,1.1466,1.154,1.1442,1.1259,1.1221,1.1363,1.1482,1.1333,1.1549,1.1813,1.1813,1.1582,1.1383,1.1404,1.1228,1.1084,1.1236,1.0785,1.0586,1.1256,1.061,1.0216,1.0712,1.057,1.0407,1.0407,1.0434,1.0416,1.0416,1.0416,1.0416,1.0416,0.8309,0.7004,0.7004,0.7004,0.7512,0.8672,0.8709,0.9252,1.0416,1.0416,1.0416,1.0416,0.9252,0.8709,0.8711,0.8834,0.8891,0.8995,1.0273,1.0859,1.093,1.1341,1.1555,1.1694,1.2079,1.2294,1.2389,1.2389,1.2413,1.244,0.0,0.0,0.0,0.0,0.0,0.0,0.0,0.0,0.0,0.0,0.0,0.0,0.0,0.0,0.0,0.0,0.0,0.0,0.0,1.7261,1.7261,1.7261,1.7261,1.7261,1.7261,1.7261,1.7261,1.7261,1.7261,1.6991,1.6426,1.6426,1.6131,1.5604,1.5604,1.5604,1.5604,1.5604,0.0,0.0,0.0,0.0,0.0,0.0,0.0,1.2442,1.2621,1.2661,1.2552,1.2319,1.2131,1.1891,1.1449,1.134,1.1432,1.1643,1.1624,1.1531,1.1541,1.1621,1.1595,1.1292,1.138,1.1516,1.135,1.1204,1.1111,1.1201,1.1156,1.1192,1.1362,1.1199,1.1141,1.1443,1.1342,1.1274,1.146,1.1565,1.1584,1.1584,1.1584,1.1584,1.1584,1.1584,1.1584,1.1584,0.9981,0.9036,0.9036,0.9036,0.9399,1.0269,1.0308,1.0707,1.1584,1.1584,1.1584,1.1584,1.0707,1.0338,1.0393,1.0471,1.0607,1.0763,1.1746,1.2234,1.2295,1.2295,1.2305,1.2383,1.2383,1.243,1.2501,1.2501,1.2501,1.2501,0.0,0.0,0.0,0.0,0.0,0.0,0.0,0.0,0.0,0.0,0.0,0.0,0.0,0.0,0.0,0.0,0.0,0.0,0.0,0.0,1.9395,1.9395,1.9395,1.9395,1.9395,1.9395,1.9395,1.9395,1.9395,1.8829,1.7747,1.7747,1.7161,1.6101,1.6101,1.6101,1.6101,1.6101,0.0,0.0,0.0,0.0,0.0,0.0,0.0,1.2908,1.2845,1.2718,1.2507,1.1984,1.1783,1.1697,1.1327,1.1369,1.1534,1.1738,1.1863,1.1918,1.1951,1.1897,1.1681,1.1247,1.1115,1.1052,1.0754,1.0803,1.0921,1.0938,1.1199,1.1399,1.1416,1.1332,1.1322,1.1572,1.1379,1.1329,1.1543,1.1584,1.1584,1.1584,1.1584,1.1584,1.1584,1.1584,1.1584,1.1584,1.1584,1.1584,1.1584,1.1584,1.1584,1.1584,1.1584,1.1584,1.1584,1.1584,1.1584,1.1584,1.1604,1.1675,1.1797,1.1837,1.2037,1.2291,1.2311,1.2389,1.2501,1.2501,1.2501,1.2501,1.2501,1.2501,1.2501,1.2501,1.2501,1.2501,0.0,0.0,0.0,0.0,0.0,0.0,0.0,0.0,0.0,0.0,1.7829,1.8136,0.0,0.0,0.0,0.0,0.0,0.0,0.0,0.0,0.0,1.9395,1.9395,1.9395,1.9395,1.9395,1.9395,1.9395,1.9395,1.9278,1.9068,1.9068,1.8946,1.8742,1.8742,1.8742,1.8742,1.8742,0.0,0.0,0.0,0.0,0.0,0.0,0.0,0.0,1.3214,1.2718,1.2507,1.1984,1.1701,1.146,1.1042,1.1175,1.1553,1.1732,1.2099,1.2378,1.1935,1.1824,1.1648,1.0953,1.0787,1.0754,1.0721,1.0803,1.0948,1.1101,1.1267,1.143,1.1555,1.1453,1.1409,1.1553,1.1467,1.1413,1.1596,1.1584,1.1584,1.1584,1.1584,1.1584,1.1584,1.1584,1.1584,1.1584,1.1584,1.1584,1.1584,1.1584,1.1584,1.1584,1.1584,1.1584,1.1584,1.1584,1.1584,1.1584,1.1702,1.1769,1.1803,1.2094,1.224,1.2298,1.2413,1.2478,1.2501,1.2501,1.2501,1.2501,1.2501,1.2501,1.2501,1.2501,1.2501,1.2501,0.0,0.0,0.0,0.0,0.0,0.0,0.0,1.7608,1.7608,1.7608,1.7829,1.8136,1.8457,1.8611,0.0,0.0,0.0,0.0,0.0,0.0,0.0,0.0,0.0,0.0,1.9395,1.9395,1.9395,1.9395,0.0,1.9395,1.9395,1.9395,1.9395,1.9395,1.9395,1.9395,1.9395,1.9395,1.9481,1.9511,1.8229,1.7973,0.0,0.0,0.0,0.0,1.5233,1.4419,1.3595,1.3343,1.2593,1.1676,1.1283,1.1499,1.196,1.2167,1.2306,1.2363,1.1923,1.1648,1.135,1.082,1.0688,1.0688,1.0688,1.0897,1.108,1.1183,1.1348,1.1531,1.1606,1.1494,1.1443,1.1596,1.1491,1.1443,1.1563,1.1584,1.1584,1.1584,1.1584,1.1584,1.1584,1.1584,1.1584,1.1584,1.1584,1.1584,1.1584,1.1584,1.1584,1.1584,1.1584,1.1584,1.1584,1.1584,1.1584,1.1584,1.1729,1.1837,1.1959,1.2186,1.2332,1.2406,1.2471,1.2501,1.2501,1.2501,1.2501,1.2501,1.2501,1.2501,1.2501,1.2501,1.2501,1.2501,0.0,0.0,0.0,0.0,0.0,0.0,0.0,1.7608,1.7608,1.7608,1.7769,1.8036,1.8364,1.851,1.8798,0.0,0.0,0.0,0.0,0.0,0.0,0.0,0.0,0.0,1.9395,0.0,0.0,1.9395,1.9395,0.0,0.0,0.0,0.0,0.0,1.9395,1.9395,1.9395,1.9395,1.9528,0.0,0.0,1.8391,0.0,0.0,0.0,0.0,0.0,1.5988,1.4648,1.46,1.3433,1.1955,1.1674,1.1937,1.2341,1.2543,1.2466,1.2243,1.1879,1.1516,1.1118,1.0787,1.0688,1.0688,1.0688,1.0951,1.1196,1.1196,1.1406,1.1584,1.1584,1.1521,1.148,1.1563,1.1518,1.1484,1.1603,1.1584,1.1584,1.1584,1.1584,1.1584,1.1584,1.1584,1.1584,1.1584,1.1584,1.1584,1.1584,1.1584,1.1584,1.1584,1.1584,1.1584,1.1584,1.1584,1.16,1.1631,1.1776,1.1962,1.2156,1.2267,1.2396,1.2501,1.2501,1.2501,1.2501,1.2501,1.2501,1.2501,1.2501,1.2501,1.2501,1.2501,1.2501,1.2501,0.0,0.0,0.0,0.0,0.0,0.0,0.0,1.7608,1.7608,1.7608,1.7609,1.7742,1.8029,1.8536,1.9011,0.0,0.0,0.0,0.0,0.0,0.0,0.0,0.0,0.0,0.0,0.0,0.0,1.9395,1.9395,0.0,0.0,0.0,0.0,0.0,0.0,1.9395,1.9395,1.9395,0.0,0.0,0.0,0.0,0.0,0.0,0.0,0.0,0.0,1.6091,1.4851,1.4652,1.3454,1.1997,1.1965,1.2099,1.2341,1.2543,1.2466,1.2243,1.1879,1.1516,1.1118,1.0787,1.0688,1.0688,1.0688,1.0951,1.1196,1.1196,1.1406,1.1584,1.1584,1.1606,1.1603,1.1616,1.1606,1.1603,1.1616,1.1584,1.1584,1.1584,1.1584,1.1584,1.1584,1.1584,1.1584,1.1584,1.1584,1.1584,1.1584,1.1584,1.1584,1.1584,1.1584,1.1584,1.1584,1.1584,1.1648,1.1776,1.1969,1.2159,1.2274,1.2416,1.2488,1.2501,1.2501,1.2501,1.2501,1.2501,1.2501,1.2501,1.2501,1.2501,1.2501,1.2501,1.2501,1.2501,0.0,0.0,0.0,0.0,0.0,0.0,1.7608,1.7608,1.7608,1.7608,1.7608,1.7702,1.7955,1.8202,1.8556,0.0,0.0,0.0,0.0,0.0,0.0,0.0,0.0,0.0,0.0,0.0,1.9395,1.9395,1.9395,0.0,0.0,0.0,0.0,0.0,0.0,1.9395,1.9395,1.9395,0.0,0.0,0.0,0.0,0.0,0.0,0.0,0.0,0.0,0.0,1.6155,1.6063,1.4244,1.2027,1.2136,1.2018,1.1917,1.2283,1.2221,1.2011,1.2078,1.1648,1.1218,1.1317,1.1019,1.0778,1.1104,1.1186,1.1223,1.1315,1.147,1.1584,1.1584,1.1584,1.1584,1.1584,1.1584,1.1584,1.1584,1.1584,1.1584,1.1584,1.1584,1.1584,1.1584,1.1584,1.1584,1.1584,1.1584,1.1584,1.1584,1.1584,1.1584,1.1584,1.1584,1.1584,1.1584,1.1668,1.1739,1.1797,1.2081,1.2268,1.2294,1.2437,1.2501,1.2501,1.2501,1.2501,1.2501,1.2501,1.2501,1.2501,1.2501,1.2501,1.2501,1.2501,1.2501,1.2501,0.0,0.0,0.0,0.0,0.0,1.7608,1.7608,1.7608,1.7608,1.7608,1.7608,1.7662,1.7856,1.7935,1.8162,1.8603,0.0,0.0,0.0,0.0,0.0,0.0,0.0,0.0,0.0,0.0,1.9395,1.9395,1.9395,1.9395,0.0,0.0,1.9395,1.9395,0.0,0.0,0.0,0.0,0.0,0.0,0.0,0.0,0.0,0.0,0.0,0.0,0.0,0.0,0.0,0.0,0.0,1.1982,1.2237,1.1895,1.1526,1.2142,1.2045,1.1879,1.221,1.1843,1.1449,1.1747,1.1317,1.0961,1.1386,1.1333,1.124,1.1358,1.1511,1.1584,1.1584,1.1584,1.1584,1.1584,1.1584,1.1584,1.1584,1.1584,1.1584,1.1584,1.1584,1.1584,1.1584,1.1584,1.1584,1.1584,1.1584,1.1584,1.1584,1.1584,1.1584,1.1584,1.1584,1.1584,1.1584,1.1722,1.1817,1.1901,1.2166,1.2311,1.2355,1.2457,1.2501,1.2501,1.2501,1.2501,1.2501,1.2501,1.2501,1.2501,1.2501,1.2501,1.2501,1.2501,1.2501,1.2501,0.0,0.0,0.0,0.0,0.0,0.0,1.7608,1.7608,1.7608,1.7608,1.7608,1.7608,1.7615,1.7836,1.7995,1.8002,0.0,0.0,0.0,0.0,0.0,0.0,0.0,0.0,0.0,0.0,1.9395,1.9395,1.9395,1.9395,1.9395,1.9395,1.9395,1.9395,0.0,0.0,0.0,0.0,0.0,0.0,0.0,0.0,0.0,0.0,0.0,0.0,0.0,0.0,0.0,0.0,0.0,0.0,0.0,1.181,1.1347,1.2078,1.2045,1.1879,1.221,1.2045,1.178,1.1813,1.1483,1.1257,1.1454,1.1333,1.124,1.1358,1.1511,1.1584,1.1584,1.1584,1.1584,1.1584,1.1584,1.1584,1.1584,1.1584,1.1584,1.1584,1.1584,1.1584,1.1584,1.1584,1.1584,1.1584,1.1584,1.1584,1.1584,1.1584,1.1584,1.1584,1.1584,1.1584,1.1584,1.1722,1.1908,1.2098,1.2216,1.2366,1.2501,1.2501,1.2501,1.2501,1.2501,1.2501,1.2501,1.2501,1.2501,1.2501,1.2501,1.2501,1.2501,1.2501,1.2501,1.2501,0.0,0.0,0.0,0.0,0.0,0.0,0.0,1.7608,1.7608,1.7608,1.7608,1.7608,1.7608,1.7669,1.7789,1.7975,0.0,0.0,0.0,0.0,0.0,0.0,0.0,0.0,0.0,0.0,1.9395,1.9395,1.9395,1.9395,1.9395,1.9395,1.9395,1.9395,1.9395,1.9395,0.0,0.0,0.0,0.0,0.0,0.0,1.8267,0.0,0.0,0.0,0.0,0.0,0.0,0.0,0.0,0.0,0.0,0.0,0.0,1.1813,1.2045,1.2144,1.2276,1.2045,1.1813,1.1813,1.1317,1.0985,1.1514,1.1406,1.1271,1.1494,1.1586,1.1584,1.1584,1.1584,1.1584,1.1584,1.1584,1.1584,1.1584,1.1584,1.1584,1.1584,1.1584,1.1584,1.1584,1.1584,1.1584,1.1584,1.1584,1.1584,1.1584,1.1584,1.1584,1.1584,1.1584,1.1584,1.1584,1.1864,1.205,1.2101,1.2315,1.2457,1.2501,1.2501,1.2501,1.2501,1.2501,1.2501,1.2501,1.2501,1.2501,1.2501,1.2501,1.2501,1.2501,1.2501,1.2501,1.2501,0.0,0.0,0.0,0.0,0.0,0.0,0.0,1.7608,1.7608,1.7608,1.7608,1.7608,1.7608,1.7608,1.7662,1.7829,0.0,0.0,0.0,0.0,0.0,0.0,0.0,0.0,0.0,1.9395,1.9395,1.9395,1.9395,1.9395,1.9395,1.9395,1.9395,1.9395,1.9395,1.9395,0.0,0.0,0.0,0.0,0.0,0.0,1.7479,0.0,0.0,0.0,0.0,0.0,0.0,0.0,0.0,0.0,0.0,0.0,0.0,0.0,1.2243,1.2309,1.2309,1.209,1.1858,1.1795,1.1397,1.1135,1.1588,1.1541,1.1459,1.1769,1.1939,1.2043,1.2043,1.1939,1.1835,1.1835,1.1691,1.1584,1.1584,1.1584,1.1584,1.1584,1.1584,1.1584,1.1584,1.1584,1.1584,1.1584,1.1584,1.1584,1.1584,1.1584,1.1584,1.1584,1.1584,1.1611,1.1661,1.1975,1.2128,1.219,1.2389,1.2501,1.2501,1.2501,1.2501,1.2501,1.2501,1.2501,0.0,1.2501,1.2501,1.2501,1.2501,1.2501,1.2501,1.2501,1.2501,1.2501,0.0,0.0,0.0,0.0,0.0,0.0,0.0,0.0,1.7608,1.7608,1.7608,1.7608,1.7608,1.7608,1.7608,1.7608,0.0,0.0,0.0,0.0,0.0,0.0,0.0,0.0,0.0,1.9395,1.9395,1.9395,1.9395,1.9395,1.9395,1.9307,1.9249,1.9249,1.9249,1.9249,0.0,0.0,0.0,0.0,0.0,0.0,0.0,0.0,0.0,0.0,0.0,0.0,0.0,0.0,0.0,0.0,0.0,0.0,0.0,0.0,0.0,0.0,0.0,1.2111,1.1925,1.177,1.1624,1.1509,1.1682,1.1686,0.0,1.2166,1.251,1.2753,1.2789,1.2474,1.2194,1.2194,1.1871,1.1584,1.1584,1.1584,1.1584,1.1584,1.1584,1.1584,1.1584,1.1584,1.1584,1.1584,1.1584,1.1584,1.1584,1.1584,1.1584,1.1584,1.1584,1.1651,1.1793,1.1982,1.2176,1.2291,1.2433,1.2501,1.2501,1.2501,1.2501,1.2501,1.2501,1.2501,1.2501,1.2501,1.2501,1.2501,1.2501,1.2501,1.2501,1.2501,1.2501,1.2501,0.0,0.0,0.0,0.0,0.0,0.0,0.0,0.0,0.0,0.0,1.7608,1.7608,1.7608,1.7608,1.7608,0.0,0.0,0.0,0.0,0.0,0.0,0.0,0.0,0.0,0.0,1.9395,1.9395,1.9395,1.9395,1.9395,1.9366,1.8409,1.7958,1.7958,1.7958,1.7958,0.0,0.0,0.0,0.0,0.0,0.0,0.0,0.0,0.0,0.0,1.2975,1.2938,0.0,0.0,0.0,0.0,0.0,0.0,0.0,0.0,1.1978,1.1873,1.1736,0.0,1.155,1.1207,1.1176,1.1362,0.0,1.1566,1.1706,1.2501,1.2474,1.2442,1.2753,1.2474,1.2194,1.2194,1.1871,1.1584,1.1584,1.1584,1.1584,1.1584,1.1584,1.1584,1.1584,1.1584,1.1584,1.1584,1.1584,1.1584,1.1584,1.1584,1.1584,1.1584,1.1584,1.1651,1.1793,1.1982,1.2176,1.2291,1.2433,1.2501,1.2501,1.2501,1.2501,1.2501,1.2501,1.2501,1.2501,1.2501,1.2501,1.2501,1.2501,1.2501,1.2501,1.2501,1.2501,1.2501,0.0,0.0,0.0,0.0,0.0,0.0,0.0,0.0,0.0,0.0,0.0,0.0,0.0,0.0,0.0,0.0,0.0,0.0,0.0,0.0,0.0,0.0,0.0,1.9065,1.9388,1.9395,1.9395,1.9395,1.9395,1.9395,1.9366,1.811,1.7513,1.7484,1.6897,1.6302,0.0,0.0,0.0,0.0,1.4093,0.0,0.0,0.0,0.0,0.0,1.2535,1.2682,0.0,1.2605,1.2441,1.2309,0.0,0.0,0.0,0.0,1.2045,1.1799,1.1837,1.1593,1.1323,1.108,1.1158,1.1406,1.1754,1.1857,1.2104,1.2862,1.3011,1.2975,1.3003,1.2721,1.2406,1.223,1.1871,1.1584,1.1584,1.1584,1.1584,1.1584,1.1584,1.1584,1.1584,1.1584,1.1584,1.1584,1.1584,1.1584,1.1584,1.1584,1.1584,1.1584,1.1584,1.1721,1.1935,1.2057,1.221,1.2389,1.2464,1.2501,1.2501,1.2501,1.2501,1.2501,1.2501,1.2501,1.2501,1.2501,1.2501,1.2501,1.2501,1.2501,1.2501,1.2501,1.2501,1.2501,0.0,0.0,0.0,0.0,0.0,0.0,0.0,0.0,0.0,0.0,0.0,0.0,0.0,0.0,0.0,0.0,0.0,0.0,0.0,0.0,0.0,0.0,0.0,1.8479,1.8794,1.8829,1.8829,1.8829,1.8829,1.8829,1.88,1.7519,1.6921,1.6862,1.58,1.4708,0.0,0.0,0.0,0.0,1.2221,0.0,0.0,0.0,0.0,0.0,0.0,0.0,0.0,1.2474,1.2375,1.2375,1.2375,0.0,0.0,0.0,0.0,0.0,1.208,1.1714,1.1272,1.1227,1.1384,1.1631,1.1994,1.2326,1.2695,1.3262,1.3579,1.365,1.3361,1.2968,1.2617,1.2266,1.1871,1.1584,1.1584,1.1584,1.1584,1.1584,1.1584,1.1584,1.1584,1.1584,1.1584,1.1584,1.1584,1.1584,1.1584,1.1584,1.1584,1.1584,1.1584,1.1762,1.2094,1.2098,1.2247,1.2501,1.2501,1.2501,1.2501,1.2501,1.2501,1.2501,1.2501,1.2501,1.2501,1.2501,1.2501,1.2501,1.2501,1.2501,1.2501,1.2501,1.2501,1.2501,0.0,0.0,0.0,0.0,0.0,0.0,0.0,0.0,0.0,0.0,0.0,0.0,0.0,0.0,0.0,0.0,0.0,0.0,0.0,0.0,0.0,1.5615,1.566,1.5851,1.619,1.6196,1.6196,1.6196,1.6196,1.6196,1.6166,1.4882,1.4287,1.4257,1.4083,1.3874,1.3695,0.0,0.0,0.0,1.1867,0.0,0.0,0.0,0.0,0.0,0.0,0.0,0.0,1.2737,1.2704,1.2704,1.2704,0.0,0.0,0.0,0.0,0.0,1.1904,1.1714,1.1573,1.1394,1.1719,1.2123,1.2375,1.2583,1.2937,1.3646,1.3365,1.3039,1.3253,1.276,1.2266,1.2194,1.1871,1.1584,1.1584,1.1584,1.1584,1.1584,1.1584,1.1584,1.1584,1.1584,1.1584,1.1584,1.1584,1.1584,1.1584,1.1584,1.1584,1.1584,1.1584,1.1762,1.2094,1.2098,1.2247,1.2501,1.2501,1.2501,1.2501,1.2501,1.2501,1.2501,1.2501,1.2501,1.2501,1.2501,1.2501,1.2501,1.2501,1.2501,1.2501,1.2501,1.2501,1.2501,0.0,0.0,0.0,0.0,0.0,0.0,0.0,0.0,0.0,0.0,0.0,0.0,0.0,0.0,0.0,0.0,0.0,0.0,0.0,0.0,0.0,1.434,1.368,1.402,1.5569,1.5604,1.5604,1.5604,1.5604,1.5604,1.5575,1.4292,1.3345,1.2664,1.2664,1.2664,1.2664,1.2664,0.0,0.0,0.0,0.0,0.0,0.0,0.0,0.0,0.0,0.0,0.0,0.0,1.2803,1.2803,1.2803,0.0,0.0,0.0,0.0,0.0,1.2357,1.2228,1.2072,1.1797,1.1699,1.1741,1.2016,1.2226,1.252,1.3051,1.2942,1.2789,1.2725,1.2445,1.2122,1.1907,1.1727,1.1584,1.1584,1.1584,1.1584,1.1584,1.1584,1.1584,1.1584,1.1584,1.1584,1.1584,1.1584,1.1584,1.1584,1.1584,1.1584,1.1584,1.1584,1.1762,1.2094,1.2098,1.2247,1.2501,1.2501,1.2501,1.2501,1.2501,1.2501,1.2501,1.2501,1.2501,1.2501,1.2501,1.2501,1.2501,1.2501,1.2501,1.2501,1.2501,1.2501,1.2501,0.0,0.0,0.0,0.0,0.0,0.0,0.0,0.0,0.0,0.0,0.0,0.0,0.0,0.0,0.0,0.0,0.0,0.0,0.0,0.0,1.2951,1.3241,1.2311,1.2698,1.4684,1.4714,1.4714,1.4714,1.4714,1.4714,1.4684,1.3699,1.2719,1.1806,1.1806,1.1806,1.1806,1.1806,1.1806,0.0,0.0,0.0,0.0,0.0,0.0,0.0,0.0,0.0,0.0,0.0,0.0,0.0,0.0,0.0,0.0,1.2803,1.279,1.2783,1.2814,1.2735,1.2553,1.2202,1.1853,1.1605,1.1743,1.1997,1.2256,1.2539,1.2635,1.2581,1.2266,1.2122,1.1943,1.1655,1.1584,1.1584,1.1584,1.1584,1.1584,1.1584,1.1584,1.1584,1.1584,1.1584,1.1584,1.1584,1.1584,1.1584,1.1584,1.1584,1.1584,1.1584,1.1584,1.1762,1.2094,1.2098,1.2247,1.2501,1.2501,1.2501,1.2501,1.2501,1.2501,1.2501,1.2501,1.2501,1.2501,1.2501,1.2501,1.2501,1.2501,1.2501,1.2501,1.2501,1.2501,1.2501,0.0,0.0,0.0,0.0,0.0,0.0,0.0,0.0,0.0,0.0,0.0,0.0,0.0,0.0,0.0,0.0,0.0,0.0,0.0,0.0,1.173,1.1915,1.1837,1.1897,1.2074,1.2074,1.2074,1.2074,1.2074,1.2074,1.2074,1.1988,1.1897,1.1806,1.1806,1.1806,1.1806,1.1806,1.1806,1.1823,1.1947,0.0,0.0,0.0,0.0,0.0,0.0,0.0,0.0,0.0,0.0,0.0,0.0,0.0,1.2803,1.2803,1.305,1.3249,1.2884,1.2947,1.2974,1.2553,1.2583,1.2572,1.2076,1.2374,1.2738,1.277,1.2502,1.223,1.2194,1.1907,1.1619,1.1584,1.1584,1.1584,1.1584,1.1584,1.1584,1.1584,1.1584,1.1584,1.1584,1.1584,1.1584,1.1584,1.1584,1.1584,1.1584,1.1584,1.1584,1.1584,1.1584,1.1762,1.2094,1.2098,1.2247,1.2501,1.2501,1.2501,1.2501,1.2501,1.2501,1.2501,1.2501,1.2501,1.2501,1.2501,1.2501,1.2501,1.2501,1.2501,1.2501,1.2501,1.2501,1.2501,0.0,0.0,0.0,0.0,0.0,0.0,0.0,0.0,0.0,0.0,0.0,0.0,0.0,0.0,0.0,0.0,0.0,0.0,0.0,1.1504,1.1733,1.1806,1.1806,1.1806,1.1806,1.1806,1.1806,1.1806,1.1806,1.1806,1.1806,1.1806,1.1806,1.1806,1.1806,1.1806,1.1806,1.1806,1.1806,1.1815,1.1845,1.2048,0.0,0.0,0.0,0.0,0.0,0.0,0.0,0.0,1.2803,1.2803,1.2803,1.2803,1.2823,1.2966,1.3173,1.3299,1.2922,1.3021,1.3039,1.2201,1.221,1.2337,1.1898,1.1857,1.1935,1.1935,1.1873,1.1835,1.1835,1.1691,1.1584,1.1584,1.1584,1.1584,1.1584,1.1584,1.1584,1.1584,1.1584,1.1584,1.1584,1.1584,1.1584,1.1584,1.1584,1.1584,1.1584,1.1584,1.1584,1.1584,1.1584,1.1762,1.2094,1.2098,1.2247,1.2501,1.2501,1.2501,1.2501,1.2501,1.2501,1.2501,1.2501,1.2501,1.2501,1.2501,1.2501,1.2501,1.2501,1.2501,1.2501,1.2501,1.2501,1.2501,0.0,0.0,0.0,0.0,0.0,0.0,0.0,0.0,0.0,0.0,0.0,0.0,0.0,0.0,0.0,0.0,0.0,0.0,1.1195,1.1569,1.1806,1.1806,1.1806,1.1806,1.1806,1.1806,1.1806,1.1806,1.1806,1.1806,1.1806,1.1806,1.1806,1.1806,1.1806,1.1806,1.1806,1.1806,1.1806,1.1811,1.1837,1.2036,0.0,0.0,0.0,0.0,0.0,0.0,0.0,0.0,1.2803,1.2803,1.2803,1.2803,1.2827,1.2945,1.3073,1.3078,1.2805,1.2882,1.2906,1.2298,1.2171,1.2209,1.219,1.1808,1.1463,1.1463,1.1545,1.1655,1.1763,1.1691,1.1584,1.1584,1.1584,1.1584,1.1584,1.1584,1.1584,1.1584,1.1584,1.1584,1.1584,1.1584,1.1584,1.1584,1.1584,1.1584,1.1584,1.1584,1.1584,1.1584,1.1584,1.1762,1.2094,1.2098,1.2247,1.2501,1.2501,1.2501,1.2501,1.2501,1.2501,1.2501,1.2501,1.2501,1.2501,1.2501,1.2501,1.2501,1.2501,1.2501,1.2501,1.2501,1.2501,1.2501,0.0,0.0,0.0,0.0,0.0,0.0,0.0,0.0,0.0,0.0,0.0,0.0,0.0,0.0,0.0,0.0,0.0,0.0,1.1195,1.1569,1.1806,1.1806,1.1806,1.1806,1.1806,1.1806,1.1806,1.1806,1.1806,1.1806,1.1806,1.1806,1.1806,1.1806,1.1806,1.1806,1.1806,1.1806,1.1806,1.1823,1.1963,1.2111,1.2324,0.0,0.0,0.0,0.0,0.0,0.0,0.0,1.2803,1.2803,1.2803,1.2803,1.2803,1.2807,1.2696,1.2625,1.2591,1.2574,1.2588,1.2978,1.2645,1.2373,1.3114,1.2402,1.1584,1.1584,1.1584,1.1727,1.2122,1.1871,1.1584,1.1584,1.1584,1.1584,1.1584,1.1584,1.1584,1.1584,1.1584,1.1584,1.1584,1.1584,1.1584,1.1584,1.1584,1.1584,1.1584,1.1584,1.1584,1.1584,1.1584,1.1762,1.2094,1.2098,1.2247,1.2501,1.2501,1.2501,1.2501,1.2501,1.2501,1.2501,1.2501,1.2501,1.2501,1.2501,1.2501,1.2501,1.2501,1.2501,1.2501,1.2501,1.2501,1.2501,0.0,0.0,0.0,0.0,0.0,0.0,0.0,0.0,0.0,0.0,0.0,0.0,0.0,0.0,0.0,0.0,0.0,0.0,1.1195,1.1569,1.1806,1.1806,1.1806,1.1806,1.1806,1.1806,1.1806,1.1806,1.1806,1.1682,1.1458,1.1682,1.1682,1.1462,1.1682,1.1806,1.1806,1.1806,1.1806,1.1823,1.1963,1.2111,1.2324,0.0,0.0,0.0,0.0,0.0,0.0,0.0,0.0,0.0,1.2803,1.2803,1.2827,1.2982,1.3077,1.3116,1.2809,1.2886,1.294,1.2439,1.2254,1.2194,1.2119,1.1832,1.1584,1.1584,1.1584,1.1655,1.1763,1.1691,1.1584,1.1584,1.1584,1.1584,1.1584,1.1584,1.1584,1.1584,1.1584,1.1584,1.1584,1.1584,1.1584,1.1584,1.1584,1.1584,1.1584,1.1584,1.1584,1.1584,1.1584,1.1671,1.1898,1.2043,1.2196,1.2352,1.2454,1.2501,1.2501,1.2501,1.2501,1.2501,1.2501,1.2501,1.2501,1.2501,1.2501,1.2501,1.2501,1.2501,1.2501,1.2501,1.2501,1.2501,0.0,0.0,0.0,0.0,0.0,0.0,0.0,0.0,0.0,0.0,1.0692,0.0,0.0,0.0,0.0,0.0,0.0,0.0,0.0,1.1446,1.1651,1.1776,1.1682,1.1651,1.1806,1.1806,1.1742,1.1587,1.1587,1.1492,1.1303,1.1522,1.1492,1.1307,1.1568,1.1756,1.1882,1.1832,1.1895,1.1996,1.2097,1.2247,1.2422,0.0,0.0,0.0,0.0,0.0,0.0,0.0,0.0,0.0,1.2803,1.2803,1.2823,1.2962,1.2922,1.279,1.2547,1.2514,1.246,1.2083,1.197,1.1907,1.1655,1.1584,1.1655,1.1799,1.1727,1.1655,1.1799,1.1727,1.1584,1.1584,1.1584,1.1584,1.1584,1.1584,1.1584,1.1584,1.1584,1.1584,1.1584,1.1584,1.1584,1.1584,1.1584,1.1584,1.1584,1.1584,1.1584,1.1584,1.1584,1.1651,1.1793,1.1982,1.2176,1.2291,1.2433,1.2501,1.2501,1.2501,1.2501,1.2501,1.2501,1.2501,1.2501,1.2501,1.2501,1.2501,1.2501,1.2501,1.2501,1.2501,1.2501,1.2501,0.0,0.0,0.0,0.0,0.0,0.0,0.0,0.0,0.0,0.0,1.0692,1.0692,0.0,0.0,0.0,0.0,0.0,0.0,0.0,0.0,1.1492,1.1776,1.1522,1.1462,1.1746,1.1746,1.1595,1.1266,1.1281,1.1273,1.1212,1.1288,1.1296,1.1243,1.1448,1.1685,1.191,1.1827,1.1957,1.2213,1.2293,1.2422,1.2564,1.2613,0.0,0.0,0.0,0.0,0.0,0.0,0.0,0.0,1.2803,1.2803,1.2803,1.2803,1.2467,1.2067,1.2082,1.1797,1.1572,1.1938,1.1803,1.1584,1.1584,1.1584,1.1691,1.2086,1.1835,1.1727,1.2086,1.1835,1.1584,1.1584,1.1584,1.1584,1.1584,1.1584,1.1584,1.1584,1.1584,1.1584,1.1584,1.1584,1.1584,1.1584,1.1584,1.1584,1.1584,1.1584,1.1584,1.1584,1.1584,1.1644,1.1773,1.1979,1.2169,1.2271,1.2427,1.2501,1.2501,1.2501,1.2501,1.2501,1.2501,1.2501,1.2501,1.2501,1.2501,1.2501,1.2501,1.2501,1.2501,1.2501,1.2501,1.2501,0.0,0.0,0.0,0.0,0.0,0.0,0.0,0.0,0.0,0.0,0.0,0.0,0.0,0.0,0.0,0.0,0.0,0.0,0.0,0.0,1.1712,1.1806,1.1742,1.1587,1.1398,1.1398,1.1282,1.1048,1.1217,1.1031,1.052,1.1168,1.1171,1.0716,1.1412,1.1614,1.1397,1.1688,1.1672,1.149,1.2231,1.2367,1.2156,1.2592,1.2771,0.0,0.0,0.0,0.0,0.0,0.0,0.0,1.2803,1.2803,1.2803,1.2803,1.2629,1.2488,1.2589,1.2435,1.2231,1.2184,1.1883,1.1584,1.1584,1.1584,1.1619,1.1727,1.1655,1.1619,1.1727,1.1655,1.1584,1.1584,1.1584,1.1584,1.1584,1.1584,1.1584,1.1584,1.1584,1.1584,1.1584,1.1584,1.1584,1.1584,1.1584,1.1584,1.1584,1.1584,1.1584,1.1584,1.1584,1.1597,1.1627,1.1965,1.2115,1.2152,1.2376,1.2501,1.2501,1.2501,1.2501,1.2501,1.2501,1.2501,1.2501,1.2501,1.2501,1.2501,1.2501,1.2501,1.2501,1.2501,1.2501,1.2501,0.0,0.0,0.0,0.0,0.0,0.0,0.0,0.0,0.0,0.0,0.0,0.0,0.0,0.0,0.0,0.0,0.0,0.0,0.0,0.0,1.1469,1.1553,1.1557,1.1492,1.1303,1.1202,1.1045,1.076,1.0973,1.0876,1.0535,1.1121,1.113,1.0667,1.1361,1.1532,1.1343,1.1457,1.1491,1.1531,1.2202,1.2335,1.218,1.2635,1.2803,1.2803,1.2803,0.0,0.0,0.0,0.0,0.0,0.0,0.0,1.3809,1.3809,1.3773,1.3705,1.3802,1.3238,1.2581,1.228,1.2191,1.2115,1.1943,1.2047,1.2187,1.2187,1.1868,1.1727,1.2115,1.2011,1.1907,1.1907,1.1907,1.1835,1.1619,1.1584,1.1584,1.1584,1.1584,1.1584,1.1584,1.1584,1.1584,1.1584,1.1584,1.1584,1.1584,1.1584,1.1584,1.1584,1.1584,1.1584,1.1584,1.1915,1.2098,1.2101,1.2362,1.2501,1.2501,1.2501,1.2501,1.2501,1.2501,1.2501,1.2501,1.2501,1.2501,1.2501,1.2501,1.2501,1.2501,1.2501,1.2501,1.2501,0.0,0.0,0.0,0.0,0.0,0.0,0.0,0.0,0.0,0.0,0.0,0.0,0.0,0.0,0.0,0.0,0.0,0.0,0.0,0.0,0.0,1.1295,1.1274,1.1229,1.1168,1.1028,1.0814,1.0499,1.0665,1.0774,1.0803,1.1093,1.1078,1.0771,1.1242,1.1409,1.1351,1.126,1.1347,1.1648,1.2045,1.2177,1.2144,1.2572,1.2704,1.2704,1.2704,1.2737,1.2803,1.2737,0.0,0.0,0.0,0.0,1.494,1.5201,1.521,1.5191,1.5261,1.4266,1.3035,1.2442,1.2545,1.2721,1.237,1.2545,1.2824,1.286,1.2291,1.2011,1.2681,1.2545,1.2302,1.2302,1.2302,1.2158,1.1763,1.1691,1.1691,1.1619,1.1584,1.1584,1.1584,1.1584,1.1584,1.1584,1.1584,1.1584,1.1584,1.1584,1.1584,1.1584,1.1584,1.1584,1.1584,1.1887,1.2074,1.2101,1.2362,1.2501,1.2501,1.2501,1.2501,1.2501,1.2501,1.2501,1.2501,1.2501,1.2501,1.2501,1.2501,1.2501,1.2501,1.2501,1.2501,1.2501,0.0,0.0,0.0,0.0,0.0,0.0,0.0,0.0,0.0,0.0,1.0692,1.078,0.0,0.0,0.0,0.0,0.0,0.0,0.0,0.0,0.0,1.1303,1.1141,1.0912,1.0603,1.0765,1.0725,1.0497,1.0517,1.0596,1.0722,1.0947,1.0851,1.0567,1.1016,1.1087,1.0822,1.1075,1.1052,1.092,1.1582,1.1648,1.1413,1.2111,1.2375,1.2375,1.2375,1.2539,1.277,1.2474,1.2572,0.0,0.0,0.0,1.5136,1.6365,1.6461,1.6297,1.6691,1.5785,1.4374,1.3039,1.2753,1.2789,1.2717,1.2753,1.2896,1.3182,1.2932,1.2681,1.2789,1.2753,1.2721,1.2721,1.2721,1.2578,1.2194,1.2122,1.1979,1.1655,1.1584,1.1584,1.1584,1.1584,1.1584,1.1584,1.1584,1.1584,1.1584,1.1584,1.1584,1.1584,1.1584,1.1584,1.1584,1.1742,1.1928,1.2101,1.2362,1.2501,1.2501,1.2501,1.2501,1.2501,1.2501,1.2501,1.2501,1.2501,1.2501,1.2501,1.2501,1.2501,1.2501,1.2501,1.2501,1.2501,0.0,0.0,0.0,0.0,0.0,0.0,0.0,0.0,0.0,0.0,0.0,1.1021,0.0,0.0,0.0,0.0,0.0,0.0,0.0,0.0,0.0,1.1141,1.0966,1.0807,1.0681,1.064,1.059,1.049,1.0578,1.0653,1.0684,1.0781,1.075,1.0622,1.1021,1.1019,1.0721,1.0853,1.0817,1.0754,1.1247,1.1347,1.1247,1.1813,1.2011,1.2011,1.2011,1.2243,1.2507,1.2342,1.3058,1.4067,1.4716,0.0,0.0,0.0,1.8075,1.7768,1.6638,1.5953,1.5226,1.35,1.3257,1.3365,1.3146,1.3253,1.3499,1.3746,1.3614,1.3436,1.3436,1.3218,1.3075,1.3075,1.3075,1.2936,1.2581,1.2334,1.2122,1.1943,1.1727,1.1584,1.1584,1.1584,1.1584,1.1584,1.1584,1.1584,1.1584,1.1584,1.1584,1.1584,1.1584,1.1584,1.1584,1.1722,1.1952,1.2193,1.2322,1.2423,1.2501,1.2501,1.2501,1.2501,1.2501,1.2501,1.2501,1.2501,1.2501,1.2501,1.2501,1.2501,1.2501,1.2501,1.2501,1.2501,0.0,0.0,0.0,0.0,0.0,0.0,0.0,0.0,0.0,0.0,0.0,0.0,0.0,0.0,0.0,0.0,0.0,0.0,0.0,0.0,0.0,1.0946,1.0791,1.0717,1.0717,1.0603,1.0551,1.0551,1.0663,1.0688,1.0688,1.0688,1.0688,1.0721,1.0953,1.0916,1.0688,1.0688,1.0688,1.0721,1.0986,1.1085,1.1115,1.1516,1.1648,1.1648,1.1648,1.1879,1.2177,1.2177,1.3313,1.4842,1.5298,1.7071,0.0,0.0,0.0,1.9514,1.742,1.7037,1.671,1.456,1.4248,1.4288,1.3611,1.3686,1.3941,1.4079,1.3997,1.39,1.39,1.365,1.3432,1.3432,1.3432,1.3325,1.2968,1.2653,1.2406,1.223,1.1943,1.1727,1.1619,1.1584,1.1584,1.1584,1.1584,1.1584,1.1584,1.1584,1.1584,1.1584,1.1584,1.1584,1.1584,1.1722,1.1965,1.2233,1.2271,1.2366,1.2501,1.2501,1.2501,1.2501,1.2501,1.2501,1.2501,1.2501,1.2501,1.2501,1.2501,1.2501,1.2501,1.2501,1.2501,1.2501,0.0,0.0,0.0,0.0,0.0,0.0,0.0,0.0,0.0,0.0,0.0,0.0,1.1464,1.1484,1.1557,1.1762,0.0,0.0,0.0,0.0,0.0,1.0799,1.0631,0.0,1.0512,1.0629,1.0674,1.0674,1.0684,1.0688,1.0688,1.0688,1.0688,1.0688,1.0721,1.0721,1.0688,1.0688,1.0688,1.0688,1.0721,1.0721,1.0754,1.1115,1.1214,1.1214,1.1214,1.1483,1.1846,1.1846,1.2984,1.4707,1.636,1.7844,1.9266,0.0,0.0,0.0,2.0294,2.015,1.9652,1.6675,1.5978,1.5624,1.4181,1.3864,1.3904,1.3912,1.3908,1.39,1.39,1.3864,1.3864,1.3864,1.3864,1.3722,1.3325,1.3253,1.2971,1.2266,1.2194,1.2015,1.1655,1.1584,1.1584,1.1584,1.1584,1.1584,1.1584,1.1584,1.1584,1.1584,1.1584,1.1584,1.1584,1.1722,1.1911,1.2115,1.2223,1.2366,1.2501,1.2501,1.2501,1.2501,1.2501,1.2501,1.2501,1.2501,1.2501,1.2501,1.2501,1.2501,1.2501,1.2501,1.2501,1.2501,0.0,0.0,0.0,0.0,0.0,0.0,0.0,0.0,0.0,0.0,0.0,0.0,0.0,1.1363,1.1301,1.1182,1.1061,0.0,0.0,0.0,0.0,1.0602,1.0623,1.0636,1.0636,1.0694,1.0688,1.0688,1.0688,1.0688,1.0688,1.0688,1.0688,1.0688,1.0688,1.0688,1.0688,1.0688,1.0688,1.0688,1.0688,1.0688,1.0721,1.0817,1.0883,1.0883,1.0883,1.1115,1.1413,1.1413,1.3177,1.5484,1.6101,1.8119,2.0483,2.139,2.1951,2.195,2.0586,2.0396,2.0103,1.807,1.7579,1.7444,1.6911,1.6775,1.6532,1.5677,1.5395,1.5066,1.4235,1.3981,1.39,1.39,1.39,1.3864,1.3722,1.3289,1.2896,1.2613,1.2119,1.1763,1.1619,1.1584,1.1584,1.1584,1.1584,1.1584,1.1584,1.1584,1.1584,1.1584,1.1584,1.1584,1.1584,1.1634,1.1732,1.1915,1.2108,1.2223,1.2369,1.2461,1.2501,1.2501,1.2501,1.2501,1.2501,1.2501,1.2501,1.2501,1.2501,1.2501,1.2501,1.2501,1.2501,1.2501,0.0,0.0,0.0,0.0,0.0,0.0,0.0,0.0,0.0,1.1617,0.0,0.0,0.0,0.0,1.1031,1.0819,1.0789,1.0707,1.0504,1.0699,1.0696,1.0519,1.0636,1.0688,1.0688,1.067,1.0637,1.0688,1.0637,1.067,1.0688,1.0688,1.0688,1.0688,1.0688,1.0688,1.0688,1.0688,1.0688,1.0688,1.0688,1.0688,1.0688,1.0688,1.0688,1.0688,1.0688,1.0853,1.1049,1.1148,1.291,1.5168,1.5829,1.8307,2.1097,2.178,2.2104,2.2068,2.1306,2.1155,2.0859,1.9484,1.9056,1.8913,1.8503,1.8,1.7379,1.6463,1.5787,1.5106,1.4279,1.3985,1.39,1.39,1.39,1.39,1.39,1.3472,1.3075,1.2824,1.233,1.1903,1.1619,1.1584,1.1584,1.1584,1.1584,1.1584,1.1584,1.1584,1.1584,1.1584,1.1584,1.1584,1.1584,1.1584,1.1655,1.1797,1.1935,1.2091,1.2294,1.2386,1.2457,1.2501,1.2501,1.2501,1.2501,1.2501,1.2501,1.2501,1.2501,1.2501,1.2501,1.2501,1.2501,1.2501,0.0,0.0,0.0,0.0,0.0,0.0,0.0,0.0,1.1303,1.1303,0.0,0.0,0.0,0.0,0.0,1.0759,1.0759,1.0677,1.0512,1.0668,1.0696,1.0526,0.0,0.0,1.0688,1.0575,1.0571,1.0688,1.0571,1.0575,1.0688,1.0688,1.0688,1.0688,1.0688,1.0688,1.0688,1.0688,1.0688,1.0688,1.0688,1.0688,1.0688,1.0688,1.0688,1.0688,1.0688,1.0688,1.0754,1.1082,1.2128,1.3625,1.565,1.8371,2.0951,2.1634,2.1853,2.2013,0.0,0.0,0.0,2.0936,2.0464,1.9968,1.8773,1.7368,1.6291,1.6185,1.5026,1.4007,1.3936,1.39,1.39,1.3864,1.39,1.39,1.39,1.3864,1.3615,1.2896,1.2789,1.247,1.1691,1.1584,1.1584,1.1584,1.1584,1.1584,1.1584,1.1584,1.1584,1.1584,1.1584,1.1584,1.1584,1.1584,1.1651,1.1786,1.1793,1.1989,1.2277,1.2281,1.2362,1.2494,1.2494,1.2498,1.2501,1.2501,1.2501,1.2501,1.2501,1.2501,1.2501,1.2501,1.2501,1.2501,0.0,0.0,0.0,0.0,0.0,0.0,1.1428,1.1152,1.094,0.0,0.0,0.0,1.0456,1.0213,1.0092,1.0092,1.0092,1.0149,1.0356,1.0415,1.0488,1.0646,1.0664,1.0688,1.0688,1.0644,1.0644,1.0688,1.0644,1.0644,1.0688,1.0688,1.0688,1.0688,1.0688,1.0688,1.0688,1.0688,1.0688,1.0688,1.0688,1.0688,1.0688,1.0688,1.0688,1.0688,1.0688,1.0688,1.0721,1.082,1.184,1.3445,1.5633,1.7518,1.9078,1.9678,2.065,2.1636,2.2052,0.0,0.0,0.0,0.0,0.0,2.1427,2.1143,2.0409,1.821,1.7439,1.6494,1.4288,1.39,1.3793,1.3503,1.3722,1.39,1.39,1.3432,1.3039,1.2824,1.2295,1.1832,1.1619,1.1584,1.1584,1.1584,1.1584,1.1584,1.1584,1.1584,1.1584,1.1584,1.1584,1.1584,1.1584,1.1584,1.1604,1.1644,1.1746,1.1837,1.1925,1.2074,1.2244,1.2349,1.2349,1.2406,1.2501,1.2501,1.2501,1.2501,1.2501,1.2501,1.2501,1.2501,1.2501,1.2501,0.0,0.0,0.0,0.0,0.0,1.1091,1.1091,1.0819,1.0577,0.0,0.0,0.0,1.0122,0.9913,0.9852,1.0001,1.0063,1.0177,1.036,1.0523,1.0608,1.0616,1.0654,1.0688,1.0688,1.0656,1.0623,1.0688,1.0623,1.0656,1.0688,1.0688,1.0688,1.0688,1.0688,1.0688,1.0688,1.0688,1.0688,1.0688,1.0688,1.0688,1.0688,1.0688,1.0688,1.0688,1.0688,1.0688,1.0688,1.0688,1.1773,1.331,1.4606,1.6011,1.7385,1.8579,1.9585,2.0511,2.1554,2.1857,2.1917,2.2103,0.0,0.0,2.2001,2.1541,2.0498,1.8253,1.7753,1.7057,1.4764,1.4359,1.4288,1.4034,1.3682,1.3432,1.3432,1.3075,1.2753,1.2581,1.2155,1.1763,1.1619,1.1584,1.1584,1.1584,1.1584,1.1584,1.1584,1.1584,1.1584,1.1584,1.1584,1.1584,1.1584,1.1584,1.1584,1.1584,1.1668,1.1739,1.1797,1.1925,1.205,1.2234,1.2234,1.2277,1.2413,1.2413,1.2447,1.2501,1.2501,1.2501,1.2501,1.2501,1.2501,1.2501,0.0,0.0,1.1152,1.0849,1.0759,1.0728,1.0728,1.0456,1.0251,0.0,1.0042,0.9842,0.9842,0.9842,0.9961,1.0266,1.0397,1.0485,1.0502,1.0792,1.0821,1.0517,1.0649,1.0688,1.0688,1.0585,1.0582,1.0688,1.0582,1.0585,1.0688,1.0688,1.0688,1.0688,1.0688,1.0688,1.0688,1.0688,1.0688,1.0688,1.0688,1.0688,1.0688,1.0688,1.0688,1.0688,1.0688,1.0688,1.0688,1.0708,1.1725,1.2949,1.297,1.4077,1.5754,1.7549,1.8295,1.8965,2.086,2.1291,2.1285,2.1575,2.1276,0.0,2.1246,2.0069,1.8592,1.7368,1.7116,1.6767,1.5458,1.5243,1.5243,1.5172,1.3954,1.2945,1.2821,1.2753,1.2617,1.223,1.2162,1.1979,1.1619,1.1584,1.1584,1.1584,1.1584,1.1584,1.1584,1.1584,1.1584,1.1584,1.1584,1.1584,1.1584,1.1584,1.1584,1.1584,1.1584,1.1648,1.1773,1.1773,1.1891,1.2074,1.2074,1.2162,1.2267,1.2284,1.2372,1.2501,1.2501,1.2501,1.2501,1.2501,1.2501,1.2501,0.0,1.1091,1.088,1.0819,1.0577,1.0395,1.0395,1.0122,0.9924,1.005,1.0145,1.0192,1.0192,1.0192,1.0223,1.0283,1.0314,1.0379,1.0495,1.0557,1.0613,1.067,1.0704,1.0688,1.0688,1.0657,1.0657,1.0688,1.0657,1.0657,1.0688,1.0688,1.0688,1.0688,1.0688,1.0688,1.0688,1.0688,1.0688,1.0688,1.0688,1.0688,1.0688,1.0688,1.0688,1.0688,1.0688,1.0688,1.0708,1.083,1.109,1.1368,1.1556,1.2471,1.3595,1.4,1.5792,1.7796,1.8466,1.9609,2.0612,2.0707,2.0883,0.0,2.0723,2.0614,2.0142,1.8659,1.8564,1.8306,1.6868,1.6839,1.6834,1.6221,1.5056,1.3893,1.2945,1.251,1.2302,1.2194,1.1907,1.1691,1.1619,1.1584,1.1584,1.1584,1.1584,1.1584,1.1584,1.1584,1.1584,1.1584,1.1584,1.1584,1.1584,1.1584,1.1584,1.1584,1.1584,1.1597,1.1624,1.1624,1.1702,1.1874,1.1874,1.1965,1.2156,1.2278,1.2372,1.2501,1.2501,1.2501,1.2501,1.2501,1.2501,1.2501,1.1122,1.091,1.0698,1.0365,1.0152,1.0059,1.0135,0.9995,0.9957,1.0144,1.0232,1.0312,1.0312,1.0312,1.0312,1.0312,1.0344,1.0415,1.0487,1.0565,1.0639,1.0684,1.0688,1.0688,1.0688,1.0688,1.0688,1.0688,1.0688,1.0688,1.0688,1.0688,1.0688,1.0688,1.0688,1.0688,1.0688,1.0688,1.0688,1.0688,1.0688,1.0688,1.0688,1.0688,1.0688,1.0688,1.0688,1.0688,1.0698,1.0775,1.0799,1.0813,1.0921,1.1354,1.2033,1.2846,1.4644,1.6402,1.6709,1.8451,1.9978,1.9324,1.9697,0.0,0.0,2.0031,1.9638,1.8227,1.8714,1.892,1.7534,1.7449,1.7444,1.7073,1.5265,1.3753,1.3118,1.2404,1.1907,1.1907,1.1727,1.1584,1.1584,1.1584,1.1584,1.1584,1.1584,1.1584,1.1584,1.1584,1.1584,1.1584,1.1584,1.1584,1.1584,1.1584,1.1584,1.1584,1.1584,1.1584,1.1584,1.1584,1.1621,1.1688,1.1688,1.1809,1.1952,1.203,1.2149,1.2298,1.2444,1.2501,1.2501,1.2501,1.2501,1.2501,1.0527,1.0577,1.0516,0.9913,0.9792,0.9842,0.9994,0.9987,1.0082,1.0297,1.0094,1.0062,1.0321,1.007,1.0022,1.028,1.0385,1.0463,1.049,1.0609,1.0654,1.0684,1.0688,1.0688,1.0688,1.0688,1.0688,1.0688,1.0688,1.0688,1.0688,1.0688,1.0688,1.0688,1.0688,1.0688,1.0688,1.0688,1.0688,1.0688,1.0688,1.0688,1.0688,1.0688,1.0688,1.0688,1.0688,1.0688,1.0688,1.0688,1.0688,1.0688,1.0688,1.0688,1.0974,1.2323,1.3728,1.4858,1.5087,1.6987,1.8717,1.7867,1.8347,1.9093,0.0,0.0,0.0,1.7795,1.8624,1.9185,1.8183,1.805,1.8056,1.7984,1.5832,1.4104,1.407,1.2816,1.1813,1.1567,1.1531,1.1545,1.1572,1.1567,1.1584,1.1584,1.1584,1.1584,1.1584,1.1584,1.1584,1.1584,1.1584,1.1584,1.1584,1.1584,1.1584,1.1584,1.1584,1.1584,1.1584,1.1584,1.1584,1.1584,1.1584,1.1648,1.1756,1.1783,1.1904,1.2084,1.2345,1.2461,1.2464,1.2491,1.2501,1.2501,0.9068,0.9754,1.0243,0.9852,0.9792,0.9842,0.9994,0.9987,1.012,1.0432,0.9452,0.9157,1.0337,0.9319,0.8994,1.0216,1.0293,1.0358,1.0483,1.0507,1.0578,1.0681,1.0688,1.0688,1.0688,1.0688,1.0688,1.0688,1.0688,1.0688,1.0688,1.0688,1.0688,1.0688,1.0688,1.0688,1.0688,1.0688,1.0688,1.0688,1.0688,1.0688,1.0688,1.0688,1.0688,1.0688,1.0688,1.0688,1.0688,1.0688,1.0688,1.0688,1.0688,1.0688,1.0757,1.0937,1.1994,1.3079,1.3133,1.4256,1.5731,1.6833,1.7201,1.7605,1.8857,0.0,1.9052,1.8916,0.0,1.9537,1.9401,0.0,0.0,1.9408,1.8148,1.7098,1.681,1.4668,1.2655,1.1386,1.1251,1.1302,1.1402,1.1541,1.1584,1.1584,1.1584,1.1584,1.1584,1.1584,1.1584,1.1584,1.1584,1.1584,1.1584,1.1584,1.1584,1.1584,1.1584,1.1584,1.1584,1.1584,1.1584,1.1584,1.1584,1.1594,1.1617,1.1742,1.1803,1.1887,1.2196,1.2315,1.2328,1.2457,1.2501,1.2501,1.0026,1.0301,1.0492,1.0149,1.0086,1.0137,1.0283,1.0349,1.0451,1.0609,1.0126,0.9991,1.0557,1.0074,0.9908,1.0469,1.0534,1.0561,1.0619,1.0622,1.0653,1.0684,1.0688,1.0688,1.0688,1.0688,1.0688,1.0688,1.0688,1.0688,1.0688,1.0688,1.0688,1.0688,1.0688,1.0688,1.0688,1.0688,1.0688,1.0688,1.0688,1.0688,1.0688,1.0688,1.0688,1.0688,1.0688,1.0688,1.0688,1.0688,1.0688,1.0688,1.0688,1.0688,1.0688,1.0688,1.1703,1.2618,1.1802,1.321,1.4842,1.4605,1.5191,1.6138,1.7571,1.7893,1.8118,1.8944,0.0,0.0,0.0,0.0,0.0,0.0,1.8172,1.7255,1.7098,1.4742,1.2847,1.2471,1.171,1.1257,1.1379,1.145,1.1525,1.1577,1.1584,1.1584,1.1584,1.1584,1.1584,1.1584,1.1584,1.1584,1.1584,1.1584,1.1584,1.1584,1.1584,1.1584,1.1584,1.1584,1.1584,1.1584,1.1584,1.1584,1.1587,1.1648,1.1671,1.1692,1.1905,1.2077,1.2213,1.2325,1.2379,1.2389,1.0709,1.0781,1.0562,0.9828,1.0022,1.0359,1.047,1.0622,1.0552,1.0183,1.0115,1.0092,1.0059,0.9695,0.9605,0.9969,1.0002,1.0018,1.0059,1.0425,1.0677,1.0684,1.0688,1.0688,1.0688,1.0688,1.0688,1.0688,1.0688,1.0688,1.0688,1.0688,1.0688,1.0688,1.0688,1.0688,1.0688,1.0688,1.0688,1.0688,1.0688,1.0711,1.0748,1.0748,1.0748,1.0755,1.0829,1.0843,1.0843,1.0843,1.0816,1.0748,1.0748,1.0721,1.0688,1.0688,1.1409,1.1996,1.0982,1.2194,1.36,1.2947,1.3571,1.4679,1.6101,1.6425,1.6721,1.7738,1.8258,0.0,0.0,0.0,1.8479,1.8479,0.0,1.6327,1.6353,1.4294,1.2856,1.3131,1.1959,1.1148,1.1257,1.1345,1.1436,1.1548,1.1596,1.1584,1.1584,1.1584,1.1584,1.1584,1.1584,1.1584,1.1584,1.1584,1.1584,1.1584,1.1584,1.1584,1.1584,1.1584,1.1584,1.1584,1.1584,1.1584,1.1584,1.1584,1.1584,1.1594,1.1695,1.1843,1.2002,1.2193,1.2254,1.2305,1.0237,1.0768,1.0241,0.8475,0.9347,1.0359,1.047,1.0622,1.0216,0.8842,0.8604,0.8532,0.8473,0.7202,0.6853,0.8071,0.8199,0.8282,0.8467,0.9749,1.0565,1.0681,1.0688,1.0688,1.0688,1.0688,1.0688,1.0688,1.0688,1.0688,1.0688,1.0688,0.0,0.0,1.0688,1.0688,1.0688,1.0688,1.0688,1.0688,1.0688,1.0775,1.0873,1.0873,1.0873,1.0924,1.1097,1.1183,1.1183,1.1183,1.1056,1.0873,1.0873,1.0806,1.0688,1.0688,1.0721,1.0754,1.0721,1.0784,1.1144,1.2458,1.2816,1.3243,1.4646,1.4973,1.4973,1.5038,1.6106,1.7077,1.7077,1.6962,1.6878,1.6878,1.5569,0.0,0.0,1.3512,1.2653,1.2812,1.1695,1.0924,1.0928,1.1223,1.1392,1.1399,1.1535,1.1584,1.1584,1.1584,1.1584,1.1584,1.1584,1.1584,1.1584,1.1584,1.1584,1.1584,1.1584,1.1584,1.1584,1.1584,1.1584,1.1584,1.1584,1.1584,1.1584,1.1584,1.1584,1.1584,1.1587,1.1594,1.167,1.1999,1.22,1.2291,0.9377,1.0073,1.0535,0.994,1.0238,1.0588,1.0636,0.9895,0.9136,0.8651,0.7768,0.7158,0.7095,0.6626,0.6508,0.6935,0.6968,0.7412,0.848,0.8979,0.9663,1.0651,1.0688,1.0688,1.0688,1.0688,1.0688,1.0688,1.0688,1.0688,1.0688,1.0688,1.0688,0.0,1.0688,1.0688,1.0688,1.0688,1.0688,1.0694,1.0796,1.0809,1.0775,1.0877,1.0972,1.1097,1.1179,1.1196,1.1196,1.1196,1.1166,1.1073,1.0945,1.088,1.0819,1.0718,1.0688,1.0688,1.0688,1.0688,1.0817,1.1277,1.1409,1.1769,1.3177,1.3501,1.3763,1.4716,1.5266,1.5619,1.5619,1.5505,1.5424,1.5424,1.4889,1.4517,0.0,1.342,1.2278,1.137,1.0965,1.0803,1.0904,1.1005,1.1103,1.1268,1.1382,1.1467,1.1467,1.1565,1.1584,1.1584,1.1584,1.1584,1.1584,1.1584,1.1584,1.1584,1.1584,1.1584,1.1584,1.1584,1.1584,1.1584,1.1584,1.1584,1.1584,1.1584,1.1584,1.1584,1.1584,1.1584,1.1607,1.1837,1.2006,1.2207,0.941,1.0081,1.0552,1.0047,1.0395,1.0748,1.0694,0.9557,0.8473,0.7884,0.7022,0.6262,0.5705,0.5666,0.5666,0.5666,0.5666,0.6268,0.7736,0.8307,0.9244,1.0654,1.0688,1.0688,1.0688,1.0688,1.0688,1.0688,1.0688,1.0688,1.0688,1.0688,1.0688,1.0688,1.0688,1.0688,1.0688,1.0688,1.0688,1.0701,1.0853,1.0917,1.0968,1.1036,1.1131,1.121,1.1322,1.1324,1.1324,1.1324,1.1325,1.1261,1.1134,1.0999,1.0894,1.0796,1.0728,1.0688,1.0688,1.0688,1.0688,1.0688,1.0688,1.0949,1.1835,1.2062,1.2326,1.321,1.3796,1.4156,1.4156,1.4027,1.3952,1.3952,1.3409,1.2999,0.0,1.2338,1.1519,1.062,1.0626,1.0725,1.0823,1.0884,1.0951,1.108,1.1277,1.1392,1.1392,1.1538,1.1584,1.1584,1.1584,1.1584,1.1584,1.1584,1.1584,1.1584,1.1584,1.1584,1.1584,1.1584,1.1584,1.1584,1.1584,1.1584,1.1584,1.1584,1.1584,1.1584,1.1584,1.1584,1.1594,1.1685,1.1887,1.2135,1.0127,1.0664,1.0293,0.895,0.9933,1.0863,1.0711,0.956,0.8134,0.6612,0.6268,0.5672,0.4333,0.4201,0.4201,0.4201,0.4201,0.4833,0.6299,0.7702,0.9144,1.0654,1.0688,1.0688,1.0688,1.0688,1.0688,1.0688,1.0688,1.0688,1.0688,1.0688,1.0688,1.0688,1.0688,1.0688,1.0688,1.0688,1.0691,1.0711,1.0874,1.11,1.1382,1.1396,1.1342,1.1247,1.1511,1.1584,1.1584,1.1584,1.1525,1.1402,1.1392,1.1164,1.0934,1.0928,1.0816,1.0698,1.0698,1.0724,1.0688,1.0688,1.0688,1.0688,1.0688,1.0688,1.0688,1.0688,1.1769,1.2684,1.2684,1.2601,1.2512,1.2512,1.1261,1.0312,1.0312,1.0434,1.049,1.049,1.0626,1.0688,1.0688,1.0819,1.0904,1.0904,1.1206,1.1372,1.1379,1.1525,1.1577,1.1584,1.1584,1.1584,1.1584,1.1584,1.1584,1.1584,1.1584,1.1584,1.1584,1.1584,1.1584,1.1584,1.1584,1.1584,1.1584,1.1584,1.1584,1.1584,1.1584,1.1584,1.1584,1.1626,1.1813,1.2121,0.9199,1.0139,1.0718,1.0378,1.0647,1.0863,1.0711,0.8643,0.691,0.6477,0.4572,0.3129,0.2762,0.2726,0.2726,0.2726,0.2726,0.3797,0.6233,0.6767,0.8071,1.0585,1.0688,1.0688,1.0688,1.0688,1.0688,1.0688,1.0688,1.0688,1.0688,1.0688,1.0688,1.0688,1.0688,1.0688,1.0688,1.0688,1.0752,1.0877,1.1172,1.1257,1.1281,1.1474,1.1467,1.1358,1.1552,1.1584,1.1584,1.1584,1.1592,1.1541,1.1426,1.1338,1.1253,1.1141,1.1006,1.0857,1.0857,1.0772,1.0688,1.0688,1.0688,1.0688,1.0688,1.0688,1.0688,1.0688,1.0982,1.1244,1.1244,1.1145,1.1038,1.1038,1.0628,1.0312,1.0312,1.0434,1.049,1.049,1.0626,1.0688,1.0688,1.0721,1.0745,1.0745,1.0921,1.1073,1.1251,1.1365,1.1501,1.1616,1.1584,1.1584,1.1584,1.1584,1.1584,1.1584,1.1584,1.1584,1.1584,1.1584,1.1584,1.1584,1.1584,1.1584,1.1584,1.1584,1.1584,1.1584,1.1584,1.1584,1.1597,1.1702,1.1898,1.2121,0.8707,1.0008,1.0965,1.0836,1.0357,0.994,0.98,0.8551,0.7351,0.6639,0.5148,0.4171,0.4173,0.4078,0.3797,0.3161,0.3696,0.4698,0.6297,0.7,0.8371,1.0585,1.0688,1.0688,1.0688,1.0688,1.0688,1.0688,1.0688,1.0688,1.0688,1.0688,1.0688,1.0688,1.0688,1.0688,1.0691,1.0759,1.087,1.1063,1.1297,1.1379,0.0,1.1555,1.1565,1.1501,1.1589,1.1584,1.1584,1.1584,1.1584,1.1603,1.1518,1.1447,1.1372,1.1322,1.1158,1.0995,1.0931,1.085,1.0772,1.0704,1.0688,1.0688,1.0688,1.0688,1.0688,1.0688,1.0688,1.0688,1.0688,1.0649,1.0592,1.0592,1.047,1.0403,1.0403,1.0439,1.049,1.049,1.0626,1.0688,1.0688,1.0688,1.0688,1.0688,1.083,1.0951,1.1063,1.1274,1.143,1.1518,1.1586,1.1584,1.1584,1.1584,1.1584,1.1584,1.1584,1.1584,1.1584,1.1584,1.1584,1.1584,1.1584,1.1584,1.1584,1.1584,1.1584,1.1584,1.1584,1.1584,1.1594,1.1671,1.1833,1.1982,0.8844,1.021,1.1094,1.0819,0.9667,0.8667,0.8408,0.8525,0.8232,0.7108,0.6791,0.6653,0.6653,0.6514,0.59,0.4667,0.5533,0.6299,0.6667,0.7702,0.9042,1.0621,1.0688,1.0688,1.0688,1.0688,1.0688,1.0688,1.0688,1.0688,1.0688,1.0688,1.0688,1.0688,1.0688,1.0698,1.0728,1.0877,1.106,1.124,1.1358,1.1501,1.1584,1.1584,1.1584,1.1584,1.1584,1.1584,1.1584,1.1584,1.1584,1.1584,1.1584,1.1528,1.1419,1.1419,1.1346,1.12,1.1005,1.0945,1.0884,1.0748,1.0701,1.0688,1.0688,1.0688,1.0688,1.0688,1.0688,1.0688,1.0688,1.0688,1.0688,1.0688,1.0609,1.0521,1.0521,1.0521,1.0521,1.0521,1.0639,0.0,1.0688,1.0688,1.0688,1.0688,1.0809,1.0894,1.0914,1.1192,1.1352,1.1389,1.1518,1.1563,1.1584,1.1584,1.1584,1.1584,1.1584,1.1584,1.1584,1.1584,1.1584,1.1584,1.1584,1.1584,1.1584,1.1584,1.1584,1.1584,1.1584,1.1584,1.1584,1.1584,1.1661,1.1826,1.0508,1.0861,1.0975,1.1073,0.9743,0.8262,0.7181,0.695,0.7181,0.8138,0.7194,0.6457,0.6457,0.6408,0.6299,0.6066,0.52,0.567,0.8071,0.7303,0.7971,1.0585,1.0688,1.0688,1.0688,1.0688,1.0688,1.0688,1.0688,1.0688,1.0688,1.0688,1.0688,1.0688,1.0688,1.0759,1.0884,1.1063,1.1212,1.1365,1.1518,1.1596,1.1584,1.1584,1.1584,1.1584,1.1584,1.1584,1.1584,1.1584,1.1584,1.1584,1.1584,1.1567,1.1543,1.1543,1.147,1.1345,1.1321,1.11,1.0873,1.088,1.0779,1.0688,1.0688,1.0688,1.0688,1.0688,1.0688,1.0688,1.0688,1.0688,1.0688,1.0688,1.0664,1.0647,1.0647,1.0647,1.0647,1.0647,1.0704,1.0688,1.0688,1.0688,1.0688,1.0688,1.0711,1.0782,1.0873,1.0965,1.1103,1.1385,1.1416,1.1491,1.1616,1.1584,1.1584,1.1584,1.1584,1.1584,1.1584,1.1584,1.1584,1.1584,1.1584,1.1584,1.1584,1.1584,1.1584,1.1584,1.1584,1.1584,1.1584,1.1584,1.16,1.1694,1.1036,1.1226,1.0907,1.0095,0.864,0.7381,0.6667,0.5826,0.585,0.741,0.762,0.7923,0.8666,0.8678,0.8338,0.7603,0.7572,0.7907,0.854,0.8607,0.9241,1.0654,1.0688,1.0688,1.0688,1.0688,1.0688,1.0688,1.0688,1.0688,1.0688,1.0688,1.0688,1.0691,1.0769,1.0846,1.0928,1.1185,1.1324,1.1406,1.1558,1.1584,1.1584,1.1584,1.1584,1.1584,1.1584,1.1584,1.1584,1.1584,1.1584,1.1584,1.1584,1.1584,1.1584,1.1584,1.1565,1.1494,1.1413,1.1287,1.1107,1.0955,1.086,1.0786,1.0704,1.0688,1.0688,1.0688,1.0688,1.0688,1.0688,1.0688,1.0688,1.0688,1.0688,1.0688,1.0688,1.0688,1.0688,1.0688,1.0688,1.0688,1.0688,1.0688,1.0688,1.0688,1.0688,1.0718,1.0792,1.087,1.0978,1.1124,1.1311,1.1426,1.1501,1.1579,1.1584,1.1584,1.1584,1.1584,1.1584,1.1584,1.1584,1.1584,1.1584,1.1584,1.1584,1.1584,1.1584,1.1584,1.1584,1.1584,1.1584,1.1368,1.1296,1.1335,1.0725,1.0859,1.031,0.8652,0.7167,0.6152,0.6,0.5044,0.4853,0.6431,0.7866,0.9194,1.0287,1.0588,1.025,0.9144,0.9806,0.9958,0.9151,0.9886,1.0478,1.0779,1.0816,1.0816,1.0816,1.0748,1.0735,1.0735,1.0701,1.0688,1.0688,1.0688,1.0704,1.0742,1.086,1.0951,1.1022,1.129,1.1409,1.145,1.1569,1.1584,1.1584,1.1584,1.1584,1.1584,1.1584,1.1584,1.1584,1.1584,1.1584,1.1584,1.1584,1.1584,1.1584,1.1584,1.1584,1.1592,1.147,1.1416,1.1335,1.1066,1.0961,1.0884,1.0762,1.0711,1.0688,1.0688,1.0688,1.0688,1.0688,1.0688,1.0688,1.0688,1.0688,1.0688,1.0688,1.0688,1.0688,1.0688,1.0688,1.0688,1.0688,1.0688,1.0688,1.0688,1.0688,1.0688,1.0688,1.0799,1.088,1.0914,1.1206,1.1358,1.1392,1.1541,1.1584,1.1584,1.1584,1.1584,1.1584,1.1584,1.1584,1.1584,1.1584,1.1584,1.1584,1.1584,1.1584,1.1584,1.1584,1.1548,1.144,1.1116,1.0933,1.0932,0.9446,0.9142,0.8578,0.7153,0.5594,0.4559,0.4676,0.4469,0.4803,0.6245,0.7717,0.8659,0.8792,0.9954,1.0654,1.0518,0.9557,0.9457,1.062,0.9743,0.9771,1.1087,1.1155,1.1155,1.1155,1.0958,1.0894,1.0894,1.0755,1.0688,1.0688,1.0688,1.0762,1.0894,1.0873,1.1063,1.1352,1.1379,1.147,1.1563,1.1577,1.1584,1.1584,1.1584,1.1584,1.1584,1.1584,1.1584,1.1584,1.1584,1.1584,1.1584,1.1584,1.1584,1.1584,1.1584,1.1584,1.1616,1.1567,1.1497,1.1385,1.1358,1.1114,1.0911,1.0897,1.0786,1.0688,1.0688,1.0688,1.0688,1.0688,1.0688,1.0688,1.0688,1.0688,1.0688,1.0688,1.0688,1.0688,1.0688,1.0688,1.0688,1.0688,1.0688,1.0688,1.0688,1.0688,1.0688,1.0688,1.0701,1.0772,1.0911,1.1101,1.1285,1.1389,1.1541,1.1584,1.1584,1.1584,1.1584,1.1584,1.1584,1.1584,1.1584,1.1584,1.1584,1.1584,1.1584,1.1584,1.1584,1.1584,1.1368,1.1044,1.1008,1.0822,1.0513,1.056,1.0441,0.9987,0.8371,0.7555,0.6781,0.579,0.5586,0.5767,0.6333,0.7669,0.8607,0.8607,0.911,0.9462,0.9566,0.9103,0.9451,1.0974,1.0611,1.0571,1.1162,1.1196,1.1196,1.1196,1.1104,1.1077,1.1077,1.1016,1.0941,1.0826,1.0945,1.1019,1.108,1.1172,1.128,1.1396,1.1491,1.1562,1.1584,1.1584,1.1584,1.1584,1.1584,1.1584,1.1584,1.1584,1.1584,1.1584,1.1584,1.1584,1.1584,1.1584,1.1584,1.1584,1.1584,1.1584,1.1584,1.1584,1.1575,1.1504,1.1413,1.1304,1.1134,1.0955,1.0867,1.0796,1.0708,1.0688,1.0688,1.0688,1.0688,1.0688,1.0688,1.0688,1.0688,1.0688,1.0688,1.0688,1.0688,1.0688,1.0688,1.0688,1.0688,1.0688,1.0688,1.0688,1.0688,1.0688,1.0688,1.0715,1.0775,1.0955,1.1104,1.1288,1.1406,1.1528,1.1584,1.1584,1.1584,1.1584,1.1584,1.1584,1.1584,1.1584,1.1584,1.1584,1.1584,1.1476,1.1224,1.1224,1.1005,1.0675,1.0426,1.0242,1.0113,1.0863,1.0828,1.036,0.8694,0.8382,0.7981,0.6736,0.6884,0.7157,0.7157,0.8441,0.9173,0.8697,0.9075,0.9391,0.9493,0.9544,1.0037,1.1195,1.1305,1.1332,1.1332,1.1332,1.1332,1.1332,1.1288,1.1264,1.1264,1.122,1.1145,1.0982,1.1114,1.1223,1.1271,1.1345,1.1416,1.1463,1.1572,1.1584,1.1584,1.1584,1.1584,1.1584,1.1584,1.1584,1.1584,1.1584,1.1584,1.1584,1.1584,1.1584,1.1584,1.1584,1.1584,1.1584,1.1584,1.1584,1.1584,1.1584,1.1584,1.1592,1.1487,1.1423,1.1324,1.1036,1.0945,1.087,1.0718,1.0688,1.0688,1.0688,1.0688,1.0688,1.0688,1.0688,1.0688,1.0688,1.0688,1.0688,1.0688,1.0688,1.0688,1.0688,1.0688,1.0688,1.0688,1.0688,1.0688,1.0688,1.0688,1.0688,1.0688,1.0836,1.0985,1.1196,1.1314,1.1467,1.1584,1.1584,1.1584,1.1584,1.1584,1.1584,1.1584,1.1584,1.1584,1.1584,1.1476,1.126,1.1008,1.0897,1.0639,1.0275,0.9987,0.9843,0.9713,0.9526,0.9218,0.8756,0.7211,0.6917,0.6915,0.6913,0.8065,0.8969,0.8969,1.0254,1.0548,0.8973,1.0207,1.1162,1.1162,1.1297,1.1389,1.1389,1.1531,1.1613,1.1613,1.1613,1.1613,1.1613,1.1463,1.1389,1.1389,1.1271,1.1196,1.1196,1.1196,1.1278,1.1389,1.1392,1.1474,1.1616,1.1584,1.1584,1.1584,1.1584,1.1584,1.1584,1.1584,1.1584,1.1584,1.1584,1.1584,1.1584,1.1584,1.1584,1.1584,1.1584,1.1584,1.1584,1.1584,1.1584,1.1584,1.1584,1.1584,1.1584,1.1616,1.1504,1.1352,1.123,1.105,1.087,1.0718,1.0688,1.0688,1.0688,1.0688,1.0688,1.0688,1.0688,1.0688,1.0688,1.0688,1.0688,1.0688,1.0688,1.0688,1.0688,1.0688,1.0688,1.0688,1.0688,1.0688,1.0688,1.0688,1.0688,1.0688,1.0836,1.0985,1.1196,1.1314,1.1467,1.1584,1.1584,1.1584,1.1584,1.1584,1.1584,1.1584,1.1584,1.1584,1.1584,1.1188,1.1008,1.0972,1.0639,1.0275,0.9915,0.9915,0.9663,0.9304,1.0793,1.0754,1.0637,1.007,0.9976,0.9946,0.9853,1.0222,1.0502,1.0502,1.0975,1.1123,1.062,1.0086,0.9792,0.9827,0.9915,1.0424,1.1473,1.1592,1.1584,1.1584,1.1584,1.1584,1.1584,1.1572,1.1548,1.1548,1.1497,1.1474,1.147,1.1365,1.1399,1.1548,1.1548,1.1572,1.1584,1.1584,1.1584,1.1584,1.1584,1.1584,1.1584,1.1584,1.1584,1.1584,1.1584,1.1584,1.1584,1.1584,1.1584,1.1584,1.1584,1.1584,1.1584,1.1584,1.1584,1.1584,1.1584,1.1584,1.1584,1.1584,1.1582,1.1508,1.1352,1.1124,1.087,1.0718,1.0688,1.0688,1.0688,1.0688,1.0688,1.0688,1.0688,1.0688,1.0688,1.0688,1.0688,1.0688,1.0688,1.0688,1.0688,1.0688,1.0688,1.0688,1.0688,1.0688,1.0688,1.0688,1.0688,1.0688,1.0735,0.0,1.0982,1.1162,1.1346,1.1463,1.1569,1.1584,1.1584,1.1584,1.1584,1.1584,1.1296,1.1188,1.1152,1.0822,1.0494,1.0242,1.0131,0.9843,0.9485,0.9485,0.941,0.9304,1.1477,1.1555,1.1553,1.1494,1.1477,1.1443,1.1348,1.1335,1.1335,1.1335,1.1416,1.1477,1.1477,1.0611,1.0072,1.0111,1.015,1.0563,1.1548,1.1584,1.1584,1.1584,1.1584,1.1584,1.1584,1.1584,1.1584,1.1584,1.1584,1.1584,1.1616,1.1521,1.1528,1.1584,1.1584,1.1584,1.1584,1.1584,1.1584,1.1584,1.1584,1.1584,1.1584,1.1584,1.1584,1.1584,1.1584,1.1584,1.1584,1.1584,1.1584,1.1584,1.1584,1.1584,1.1584,1.1584,1.1584,1.1584,1.1584,1.1584,1.1584,1.1584,1.1584,1.1565,1.1355,1.1087,1.087,1.0718,1.0688,1.0688,1.0688,1.0688,1.0688,1.0688,1.0688,1.0688,1.0688,1.0688,1.0688,1.0688,1.0216,1.0117,1.0651,1.0216,1.0114,1.0651,1.0688,1.0688,1.0688,1.0688,1.0688,1.0688,1.0688,1.0762,1.0914,1.109,1.1274,1.1392,1.1545,1.1584,1.1584,1.1584,1.1512,1.1368,1.1116,1.0933,1.0786,1.0422,1.0131,0.9879,0.9735,0.9518,0.9304,0.9304,0.9304,0.9304,1.1584,1.1584,1.1584,1.1584,1.1584,1.1584,1.1584,1.1584,1.1584,1.1584,1.1584,1.1584,1.1584,1.1584,1.1584,1.1584,1.1584,1.1584,1.1584,1.1584,1.1584,1.1584,1.1584,1.1584,1.1584,1.1584,1.1584,1.1584,1.1584,1.1584,1.1584,1.1584,1.1584,1.1584,1.1584,1.1584,1.1584,1.1584,1.1584,1.1584,1.1584,1.1584,1.1584,1.1584,1.1584,1.1584,1.1584,1.1584,1.1584,1.1584,1.1584,1.1584,1.1584,1.1584,1.1584,1.1584,1.1584,1.1584,1.1584,1.1584,1.1584,1.1584,1.1584,1.1538,1.1268,1.106,1.0884,1.0721,1.0688,1.0688,1.0688,1.0688,1.0688,1.0688,1.0688,1.0688,1.0688,1.0688,1.0688,1.0688,0.9546,0.9244,1.0585,0.951,0.9277,1.0585,1.0688,1.0688,1.0688,1.0688,1.0688,1.0688,1.0688,1.0755,1.0897,1.1077,1.1264,1.1392,1.1545,1.1584,1.1548,1.1548,1.1332,1.0969,1.0933,1.075,1.0419,1.0023,0.9843,0.9807,0.9449,0.9304,0.9304,0.9304,0.9304,0.9304,1.1584,1.1584,1.1584,1.1584,1.1584,1.1584,1.1584,1.1584,1.1584,1.1584,1.1584,1.1584,1.1584,1.1584,1.1584,1.1584,1.1584,1.1584,1.1584,1.1584,1.1584,1.1584,1.1584,1.1584,1.1584,1.1584,1.1584,1.1584,1.1584,1.1584,1.1584,1.1584,1.1584,1.1584,1.1584,1.1584,1.1584,1.1584,1.1584,1.1584,1.1584,1.1584,1.1584,1.1584,1.1584,1.1584,1.1584,1.1584,1.1584,1.1584,1.1584,1.1584,1.1584,1.1584,1.1584,1.1584,1.1584,1.1584,1.1584,1.1584,1.1584,1.1584,1.1584,1.1538,1.1268,1.1169,1.1036,1.0775,1.0688,1.0688,1.0688,1.0688,1.0688,1.0688,1.0688,1.0688,1.0688,1.0688,1.0688,1.0688,1.0419,1.0316,1.0688,1.0386,1.0349,1.0688,1.0688,1.0688,1.0688,1.0688,1.0688,1.0688,1.0688,1.0704,1.0742,1.089,1.1131,1.1392,1.1545,1.144,1.1152,1.1152,1.0966,1.0603,1.0278,1.0134,1.0023,0.959,0.9449,0.9449,0.9338,0.9304,0.9304,0.9304,0.9304,0.9304,1.1584,1.1584,1.1584,1.1584,1.1584,1.1584,1.1584,1.1584,1.1584,1.1584,1.1584,1.1584,1.1584,1.1584,1.1584,1.1584,1.1584,1.1584,1.1584,1.1584,1.1584,1.1584,1.1584,1.1584,1.1584,1.1584,1.1584,1.1584,1.1584,1.1584,1.1584,1.1584,1.1584,1.1584,1.1584,1.1584,1.1584,1.1584,1.1584,1.1584,1.1584,1.1584,1.1584,1.1584,1.1584,1.1584,1.1584,1.1584,1.1584,1.1584,1.1584,1.1584,1.1584,1.1584,1.1584,1.1584,1.1584,1.1584,1.1584,1.1584,1.1584,1.1584,1.1584,1.1538,1.1268,1.1196,1.1111,1.0782,1.0688,1.0688,1.0688,1.0688,1.0688,1.0688,1.0688,1.0688,1.0688,1.0688,1.0688,1.0688,1.0114,0.9981,1.0654,1.0117,1.0014,1.0651,1.0688,1.0688,1.0688,1.0688,1.0688,1.0688,1.0688,1.0688,1.0688,1.0836,1.1063,1.1392,1.1474,1.1337,1.1008,1.1008,1.0714,1.0203,0.9987,0.9807,0.959,0.9374,0.9304,0.9304,0.9304,0.9304,0.9304,0.9304,0.9304,0.9304,1.1584,1.1584,1.1584,1.1584,1.1584,1.1584,1.1584,1.1584,1.1584,1.1584,1.1584,1.1584,1.1584,1.1584,1.1584,1.1584,1.1584,1.1584,1.1584,1.1584,1.1584,1.1584,1.1584,1.1584,1.1584,1.1584,1.1584,1.1584,1.1584,1.1584,1.1584,1.1584,1.1584,1.1584,1.1584,1.1584,1.1584,1.1584,1.1584,1.1584,1.1584,1.1584,1.1584,1.1584,1.1584,1.1584,1.1584,1.1584,1.1584,1.1584,1.1584,1.1584,1.1584,1.1584,1.1584,1.1584,1.1584,1.1584,1.1584,1.1584,1.1584,1.1584,1.1584,1.1538,1.1268,1.1196,1.1111,1.0782,1.0688,1.0688,1.0688,1.0688,1.0688,1.0688,1.0688,1.0688,1.0688,1.0688,1.0688,1.0688,0.9646,0.9377,1.0585,0.9613,0.941,1.0621,1.0688,1.0688,1.0621,1.0654,1.0654,1.0555,1.0588,1.0621,1.0621,1.0806,1.1005,1.1254,1.1298,1.1138,1.0796,1.0815,1.0462,0.9807,0.9807,0.9627,0.9304,0.9304,0.9304,0.9304,0.9304,0.9304,0.9304,0.9304,0.9304,0.9304,1.1584,1.1584,1.1584,1.1584,1.1584,1.1584,1.1584,1.1584,1.1584,1.1584,1.1584,1.1584,1.1584,1.1584,1.1584,1.1584,1.1584,1.1584,1.1584,1.1584,1.1584,1.1584,1.1584,1.1584,1.1584,1.1584,1.1584,1.1584,1.1584,1.1584,1.1584,1.1584,1.1584,1.1584,1.1584,1.1584,1.1584,1.1584,1.1584,1.1584,1.1584,1.1584,1.1584,1.1584,1.1584,1.1584,1.1584,1.1584,1.1584,1.1584,1.1584,1.1584,1.1584,1.1584,1.1584,1.1584,1.1584,1.1584,1.1584,1.1584,1.1584,1.1584,1.1584,1.1538,1.1268,1.1196,1.1111,1.0782,1.0688,1.0688,1.0688,1.0688,1.0688,1.0688,1.0688,1.0688,1.0688,1.0688,1.0688,1.0688,1.0518,1.0452,1.0688,1.0485,1.0452,1.0688,1.0688,1.0588,1.0289,1.0555,1.0455,0.9861,1.0123,1.0289,1.0289,1.0705,1.0765,1.0566,1.0779,1.0555,0.9909,1.0012,0.9807,0.9374,0.9374,0.9377,0.9304,0.9304,0.9304,0.9304,0.9304,0.9304,0.9304,0.9304,0.9304,0.9304,1.1584,1.1584,1.1584,1.1584,1.1584,1.1584,1.1584,1.1584,1.1584,1.1584,1.1584,1.1584,1.1584,1.1584,1.1584,1.1584,1.1584,1.1584,1.1584,1.1584,1.1584,1.1584,1.1584,1.1584,1.1584,1.1584,1.1584,1.1584,1.1584,1.1584,1.1584,1.1584,1.1584,1.1584,1.1584,1.1584,1.1584,1.1584,1.1584,1.1584,1.1584,1.1584,1.1584,1.1584,1.1584,1.1584,1.1584,1.1584,1.1584,1.1584,1.1584,1.1584,1.1584,1.1584,1.1584,1.1584,1.1584,1.1584,1.1584,1.1584,1.1584,1.1584,1.1584,1.1538,1.1268,1.1196,1.1111,1.0782,1.0688,1.0688,1.0688,1.0688,1.0688,1.0688,1.0688,1.0688,1.0688,1.0688,1.0688,1.0688,1.0688,1.0688,1.0688,1.0688,1.0688,1.0688,1.0688,1.0555,1.0226,1.0522,1.0489,0.9994,0.996,0.9927,0.9927,1.0324,1.0392,1.0125,1.0505,1.033,0.9703,0.9824,0.9663,0.9304,0.9304,0.9304,0.9304,0.9304,0.9304,0.9304,0.9304,0.9304,0.9304,0.9304,0.9304,0.9304,1.1584,1.1584,1.1584,1.1584,1.1584,1.1584,1.1584,1.1584,1.1584,1.1584,1.1584,1.1584,1.1584,1.1584,1.1584,1.1584,1.1584,1.1584,1.1584,1.1584,1.1584,1.1584,1.1584,1.1584,1.1584,1.1584,1.1584,1.1584,1.1584,1.1584,1.1584,1.1584,1.1584,1.1584,1.1584,1.1584,1.1584,1.1584,1.1584,1.1584,1.1584,1.1584,1.1584,1.1584,1.1584,1.1584,1.1584,1.1584,1.1584,1.1584,1.1584,1.1584,1.1584,1.1584,1.1584,1.1584,1.1584,1.1584,1.1584,1.1584,1.1584,1.1584,1.1584,1.1538,1.1268,1.1196,1.1111,1.0782,1.0688,1.0688,1.0688,1.0688,1.0688,1.0688,0.0,1.0688,1.0688,1.0688,1.0688,1.0688,1.0688,1.0688,1.0688,1.0688,1.0688,1.0688,1.0688,1.0522,1.0127,1.0389,1.0389,0.9954,0.9861,0.9728,0.9558,0.9894,0.9944,0.9706,1.0113,1.0013,0.9519,0.9638,0.9565,0.9304,0.9304,0.9304,0.9304,0.9304,0.9304,0.9304,0.9304,0.9304,0.9304,0.9304,0.9304,0.9304,1.1584,1.1584,1.1584,1.1584,1.1584,1.1584,1.1584,1.1584,1.1584,1.1584,1.1584,1.1584,1.1584,1.1584,1.1584,1.1584,1.1584,1.1584,1.1584,1.1584,1.1584,1.1584,1.1584,1.1584,1.1584,1.1584,1.1584,1.1584,1.1584,1.1584,1.1584,1.1584,1.1584,1.1584,1.1584,1.1584,1.1584,1.1584,1.1584,1.1584,1.1584,1.1584,1.1584,1.1584,1.1584,1.1584,1.1584,1.1584,1.1584,1.1584,1.1584,1.1584,1.1584,1.1584,1.1584,1.1584,1.1584,1.1584,1.1584,1.1584,1.1584,1.1584,1.1584,1.1538,1.1268,1.1196,1.1111,1.0782,1.0688,1.0688,1.0688,1.0688,1.0688,1.0688,0.0,0.0,1.0688,1.0688,1.0688,1.0688,1.0688,1.0688,1.0688,1.0688,1.0688,1.0688,1.0688,1.0422,0.9764,1.006,0.9921,0.9217,0.9821,0.9824,0.915,0.9525,0.9528,0.9165,0.9332,0.9257,0.897,0.9092,0.9204,0.9304,0.9304,0.9304,0.9304,0.9304,0.9304,0.9304,0.9304,0.9304,0.9304,0.9304,0.9304,0.9304,1.1584,1.1584,1.1584,1.1584,1.1584,1.1584,1.1584,1.1584,1.1584,1.1584,1.1584,1.1584,1.1584,1.1584,1.1584,1.1584,1.1584,1.1584,1.1584,1.1584,1.1584,1.1584,1.1584,1.1584,1.1584,1.1584,1.1584,1.1584,1.1584,1.1584,1.1584,1.1584,1.1584,1.1584,1.1584,1.1584,1.1584,1.1584,1.1584,1.1584,1.1584,1.1584,1.1584,1.1584,1.1584,1.1584,1.1584,1.1584,1.1584,1.1584,1.1584,1.1584,1.1584,1.1584,1.1584,1.1584,1.1584,1.1584,1.1584,1.1584,1.1584,1.1584,1.1584,1.1538,1.1268,1.1196,1.1111,1.0782,1.0688,1.0688,1.0688,1.0688,1.0688,1.0688,0.0,1.0688,1.0688,1.0688,1.0688,1.0688,1.0688,1.0688,1.0688,1.0688,1.0688,1.0688,1.0688,1.0489,1.0027,0.9927,0.9758,0.9492,0.9489,0.9286,0.8787,0.9153,0.9153,0.8787,0.9148,0.9135,0.8845,0.9008,0.9122,0.9165,0.9272,0.9304,0.9304,0.9304,0.9304,0.9304,0.9304,0.9304,0.9304,0.9304,0.9304,0.9304,1.1584,1.1584,1.1584,1.1584,1.1584,1.1584,1.1584,1.1584,1.1584,1.1584,1.1584,1.1584,1.1584,1.1584,1.1584,1.1584,1.1584,1.1584,1.1584,1.1584,1.1584,1.1584,1.1584,1.1584,1.1584,1.1584,1.1584,1.1584,1.1584,1.1584,1.1584,1.1584,1.1584,1.1584,1.1584,1.1584,1.1584,1.1584,1.1584,1.1584,1.1584,1.1584,1.1584,1.1584,1.1584,1.1584,1.1584,1.1584,1.1584,1.1584,1.1584,1.1584,1.1584,1.1584,1.1584,1.1584,1.1584,1.1584,1.1584,1.1584,1.1584,1.1584,1.1584,1.1538,1.1268,1.1196,1.1111,1.0782,1.0688,1.0688,1.0688,1.0688,1.0688,1.0688,1.0688,1.0688,1.0688,1.0688,1.0688,1.0688,1.0688,1.0688,1.0688,1.0688,1.0688,1.0688,1.0688,1.0522,1.006,0.9691,0.9458,0.9359,0.9086,0.8817,0.8587,0.8817,0.8817,0.859,0.894,0.8968,0.8811,0.8943,0.9027,0.9103,0.9182,0.9272,0.9304,0.9304,0.9304,0.9304,0.9304,0.9304,0.9304,0.9304,0.9304,0.9304,1.1584,1.1584,1.1584,1.1584,1.1584,1.1584,1.1584,1.1584,1.1584,1.1584,1.1584,1.1584,1.1584,1.1584,1.1584,1.1584,1.1584,1.1584,1.1584,1.1584,1.1584,1.1584,1.1584,1.1584,1.1584,1.1584,1.1584,1.1584,1.1584,1.1584,1.1584,1.1584,1.1584,1.1584,1.1584,1.1584,1.1584,1.1584,1.1584,1.1584,1.1584,1.1584,1.1584,1.1584,1.1584,1.1584,1.1584,1.1584,1.1584,1.1584,1.1584,1.1584,1.1584,1.1584,1.1584,1.1584,1.1584,1.1584,1.1584,1.1584,1.1584,1.1584,1.1616,1.1538,1.1268,1.1196,1.1111,1.0782,1.0688,1.0688,1.0688,1.0688,1.0688,1.0688,1.0688,1.0688,1.0688,1.0688,1.0688,1.0688,1.0688,1.0688,1.0688,1.0688,1.0688,1.0688,1.0688,1.0422,0.9728,0.9319,0.895,0.862,0.8587,0.8587,0.8587,0.8587,0.8587,0.8587,0.8587,0.8683,0.8803,0.8803,0.8902,0.9095,0.9098,0.9163,0.9302,0.9304,0.9304,0.9304,0.9304,0.9304,0.9304,0.9304,0.9304,0.9304,1.1584,1.1584,1.1584,1.1584,1.1584,1.1584,1.1584,1.1584,1.1584,1.1584,1.1584,1.1584,1.1584,1.1584,1.1584,1.1584,1.1584,1.1584,1.1584,1.1584,1.1584,1.1584,1.1584,1.1584,1.1584,1.1584,1.1584,1.1584,1.1584,1.1584,1.1584,1.1584,1.1584,1.1584,1.1584,1.1584,1.1584,1.1584,1.1584,1.1584,1.1584,1.1584,1.1584,1.1584,1.1584,1.1584,1.1584,1.1584,1.1584,1.1584,1.1584,1.1584,1.1584,1.1584,1.1584,1.1584,1.1584,1.1584,1.1584,1.1584,1.1584,1.1584,1.1538,1.1406,1.1244,1.1084,1.0921,1.0728,1.0688,1.0688,1.0688,1.0688,1.0688,1.0688,1.0688,1.0688,1.0688,1.0688,1.0688,1.0688,1.0688,1.0688,1.0688,1.0688,1.0688,1.0688,1.0688,1.0621,1.0422,0.9857,0.9458,0.9359,0.8856,0.8587,0.8587,0.8587,0.8587,0.8587,0.8587,0.8606,0.8677,0.8765,0.8844,0.8889,0.9025,0.9119,0.9155,0.9272,0.9304,0.9304,0.9304,0.9304,0.9304,0.9304,0.9304,0.9304,1.1584,1.1584,1.1584,1.1584,1.1584,1.1584,1.1584,1.1584,1.1584,1.1584,1.1584,1.1584,1.1584,1.1584,1.1584,1.1584,1.1584,1.1584,1.1584,1.1584,1.1584,1.1584,1.1584,1.1584,1.1584,1.1584,1.1584,1.1584,1.1584,1.1584,1.1584,1.1584,1.1584,1.1584,1.1584,1.1584,1.1584,1.1584,1.1584,1.1584,1.1584,1.1584,1.1584,1.1584,1.1584,1.1584,1.1584,1.1584,1.1584,1.1584,1.1584,1.1584,1.1584,1.1584,1.1584,1.1584,1.1584,1.1584,1.1584,1.1584,1.1584,1.1584,1.1504,1.1352,1.1234,1.1053,1.087,1.0718,1.0688,1.0688,1.0688,1.0688,1.0688,1.0688,1.0688,1.0688,1.0688,1.0688,1.0688,1.0688,1.0688,1.0688,1.0688,1.0688,1.0688,1.0688,1.0688,1.0588,1.0326,0.9927,0.9561,0.9259,0.8823,0.8587,0.8587,0.8587,0.8587,0.8587,0.8587,0.8587,0.859,0.8699,0.8757,0.8817,0.8943,0.9054,0.9109,0.9258,0.9304,0.9304,0.9304,0.9304,0.9304,0.9304,0.9304,0.9304,1.1584,1.1584,1.1584,1.1584,1.1584,1.1584,1.1584,1.1584,1.1584,1.1584,1.1584,1.1584,1.1584,1.1584,1.1584,1.1584,1.1584,1.1584,1.1584,1.1584,1.1584,1.1584,1.1584,1.1584,1.1584,1.1584,1.1584,1.1584,1.1584,1.1584,1.1584,1.1584,1.1584,1.1584,1.1584,1.1584,1.1584,1.1584,1.1584,1.1584,1.1584,1.1584,1.1584,1.1584,1.1584,1.1584,1.1584,1.1584,1.1584,1.1584,1.1584,1.1584,1.1584,1.1584,1.1584,1.1584,1.1584,1.1584,1.1584,1.1584,1.1584,1.1584,1.1494,1.1335,1.123,1.1043,1.0857,1.0715,1.0688,1.0688,1.0688,1.0688,1.0688,1.0688,1.0688,1.0688,1.0688,1.0688,1.0688,1.0688,1.0688,1.0688,1.0688,1.0688,1.0688,1.0688,1.0688,1.0422,0.9794,0.9731,0.9359,0.8653,0.862,0.8587,0.8587,0.8587,0.8587,0.8587,0.8587,0.8587,0.8587,0.8587,0.868,0.8795,0.8849,0.8971,0.9092,0.9242,0.9296,0.9304,0.9304,0.9304,0.9304,0.9304,0.9304,0.9304,1.1584,1.1584,1.1584,1.1584,1.1584,1.1584,1.1584,1.1584,1.1584,1.1584,1.1584,1.1584,1.1584,1.1584,1.1584,1.1584,1.1584,1.1584,1.1584,1.1584,1.1584,1.1584,1.1584,1.1584,1.1584,1.1584,1.1584,1.1584,1.1584,1.1584,1.1584,1.1584,1.1584,1.1584,1.1584,1.1584,1.1584,1.1584,1.1584,1.1584,1.1584,1.1584,1.1584,1.1584,1.1584,1.1584,1.1584,1.1584,1.1584,1.1584,1.1584,1.1584,1.1584,1.1584,1.1584,1.1584,1.1584,1.1584,1.1584,1.1584,1.1584,1.1584,1.1413,1.1237,1.1203,1.0958,1.0728,1.0694,1.0688,1.0688,1.0688,1.0688,1.0688,1.0688,1.0688,1.0688,1.0688,1.0688,1.0688,1.0688,1.0688,1.0688,1.0688,1.0688,1.0688,1.0688,1.0688,1.0522,1.0127,0.9827,0.9492,0.9017,0.8753,0.8587,0.8587,0.8587,0.8587,0.8587,0.8587,0.8587,0.8587,0.8587,0.86,0.8633,0.8755,0.888,0.8965,0.9087,0.9187,0.9304,0.9304,0.9304,0.9304,0.9304,0.9304,0.9304,1.1584,1.1584,1.1584,1.1584,1.1584,1.1584,1.1584,1.1584,1.1584,1.1584,1.1584,1.1584,1.1584,1.1584,1.1584,1.1584,1.1584,1.1584,1.1584,1.1584,1.1584,1.1584,1.1584,1.1584,1.1584,1.1584,1.1584,1.1584,1.1584,1.1584,1.1584,1.1584,1.1584,1.1584,1.1584,1.1584,1.1584,1.1584,1.1584,1.1584,1.1584,1.1584,1.1584,1.1584,1.1584,1.1584,1.1584,1.1584,1.1584,1.1584,1.1584,1.1584,1.1584,1.1584,1.1584,1.1584,1.1584,1.1584,1.1584,1.1584,1.1584,1.1584,1.1389,1.1196,1.1196,1.0931,1.0688,1.0688,1.0688,1.0688,1.0688,1.0688,1.0688,1.0688,1.0688,1.0688,1.0688,1.0688,1.0688,1.0688,1.0688,1.0688,1.0688,1.0688,1.0688,1.0688,1.0555,1.0326,0.9994,0.9625,0.9253,0.8887,0.8687,0.8587,0.8587,0.8587,0.8587,0.8587,0.8587,0.8587,0.8587,0.8587,0.8587,0.8595,0.8751,0.884,0.8927,0.9049,0.9165,0.9304,0.9304,0.9304,0.9304,0.9304,0.9304,0.9304,1.1584,1.1584,1.1584,1.1584,1.1584,1.1584,1.1584,1.1584,1.1584,1.1584,1.1584,1.1584,1.1584,1.1584,1.1584,1.1584,1.1584,1.1584,1.1584,1.1584,1.1584,1.1584,1.1584,1.1584,1.1584,1.1584,1.1584,1.1584,1.1584,1.1584,1.1584,1.1584,1.1584,1.1584,1.1584,1.1584,1.1584,1.1584,1.1584,1.1584,1.1584,1.1584,1.1584,1.1584,1.1584,1.1584,1.1584,1.1584,1.1584,1.1584,1.1584,1.1584,1.1584,1.1584,1.1584,1.1584,1.1584,1.1584,1.1584,1.1584,1.1584,1.1584,1.1389,1.1196,1.1196,1.0931,1.0688,1.0688,1.0688,1.0688,1.0688,1.0688,1.0688,1.0688,1.0688,1.0688,1.0688,1.0688,1.0688,1.0688,1.0688,1.0688,1.0688,1.0688,1.0688,1.0621,1.0356,1.0027,0.9628,0.9286,0.895,0.862,0.8587,0.8587,0.8587,0.8587,0.8587,0.8587,0.8587,0.8587,0.8587,0.8587,0.8587,0.8592,0.8729,0.8807,0.8895,0.9017,0.9136,0.9277,0.9296,0.9304,0.9304,0.9304,0.9304,0.9304,1.1584,1.1584,1.1584,1.1584,1.1584,1.1584,1.1584,1.1584,1.1584,1.1584,1.1584,1.1584,1.1584,1.1584,1.1584,1.1584,1.1584,1.1584,1.1584,1.1584,1.1584,1.1584,1.1584,1.1584,1.1584,1.1584,1.1584,1.1584,1.1584,1.1584,1.1584,1.1584,1.1584,1.1584,1.1584,1.1584,1.1584,1.1584,1.1584,1.1584,1.1584,1.1584,1.1584,1.1584,1.1584,1.1584,1.1584,1.1584,1.1584,1.1584,1.1584,1.1584,1.1584,1.1584,1.1584,1.1584,1.1584,1.1584,1.1584,1.1584,1.1584,1.1584,1.1389,1.1196,1.1196,1.0931,1.0688,1.0688,1.0688,1.0688,1.0688,1.0688,1.0688,1.0688,1.0688,1.0688,1.0688,1.0688,1.0688,1.0688,1.0688,1.0688,1.0688,1.0688,1.0588,1.0289,1.0223,0.9891,0.922,0.9117,0.895,0.862,0.8587,0.8587,0.8587,0.8587,0.8587,0.8587,0.8587,0.8587,0.8587,0.8587,0.8587,0.859,0.8603,0.8682,0.8804,0.8892,0.9011,0.913,0.9266,0.9304,0.9304,0.9304,0.9304,0.9304,1.1584,1.1584,1.1584,1.1584,1.1584,1.1584,1.1584,1.1584,1.1584,1.1584,1.1584,1.1584,1.1584,1.1584,1.1584,1.1584,1.1584,1.1584,1.1584,1.1584,1.1584,1.1584,1.1584,1.1584,1.1584,1.1584,1.1584,1.1584,1.1584,1.1584,1.1584,1.1584,1.1584,1.1584,1.1584,1.1584,1.1584,1.1584,1.1584,1.1584,1.1584,1.1584,1.1584,1.1584,1.1584,1.1584,1.1584,1.1584,1.1584,1.1584,1.1584,1.1584,1.1584,1.1584,1.1584,1.1584,1.1584,1.1584,1.1584,1.1584,1.1584,1.1584,1.1389,1.1196,1.1196,1.0931,1.0688,1.0688,1.0688,1.0688,1.0688,1.0688,1.0688,1.0688,1.0688,1.0688,1.0688,1.0688,1.0688,1.0688,1.0688,1.0688,1.0688,1.0688,1.0555,1.0223,1.0027,0.9691,0.9117,0.8917,0.8753,0.862,0.8587,0.8587,0.8587,0.8587,0.8587,0.8587,0.8587,0.8587,0.8587,0.8587,0.8587,0.8587,0.8587,0.8691,0.8814,0.8868,0.8989,0.9111,0.9261,0.9304,0.9304,0.9304,0.9304,0.9304]},{"header":{"parameterUnit":"m.s-1","parameterCategory":1,"la1":30.6,"la2":28.766,"lo1":-90.7593,"lo2":-88.6598,"dy":0.0162,"dx":0.0183,"nx":116,"ny":114,"refTime":"2023-05-28T12:00:00:Z","depth":0,"parameterNumber":3,"parameterNumberName":"V-component_of_WINDS"},"data":[0.0,0.0,0.0,0.0,0.0,0.0,0.0,0.0,0.0,0.0,0.0,0.0,0.0,0.0,0.0,0.0,0.0,0.0,0.0,0.0,0.0,0.0,0.0,0.0,0.0,0.0,0.0,0.0,0.0,0.0,0.0,0.0,0.0,0.0,0.0,0.0,0.0,0.0,0.0,0.0,0.0,0.0,0.0,0.0,0.0,0.0,0.0,0.0,0.0,0.0,0.0,0.0,0.0,0.0,0.0,0.0,0.0,0.0,0.0,0.0,0.0,0.0,0.0,0.0,0.0,0.0,0.0,0.0,0.0,0.0,0.0,0.0,0.0,0.0,0.0,0.0,0.0,0.0,0.0,0.0,0.0,0.0,0.0,0.0,0.0,0.0,0.0,0.0,0.0,0.0,0.0,0.0,0.0,0.0,0.0,0.0,0.0,0.0,0.0,0.0,0.0,0.0,0.0,0.0,0.0,0.0,0.0,0.0,0.0,0.0,0.0,0.0,0.0,0.0,0.0,0.0,0.0,0.0,0.0,0.0,0.0,0.0,0.0,0.0,0.0,0.0,0.0,0.0,0.0,0.0,0.0,0.0,0.0,0.0,0.0,0.0,0.0,0.0,0.0,0.0,0.0,0.0,0.0,0.0,0.0,0.0,0.0,0.0,0.0,0.0,0.0,0.0,0.0,0.0,0.0,0.0,0.0,0.0,0.0,0.0,0.0,0.0,0.0,0.0,0.0,0.0,0.0,0.0,0.0,0.0,0.0,0.0,0.0,0.0,0.0,0.0,0.0,0.0,0.0,0.0,0.0,0.0,0.0,0.0,0.0,0.0,0.0,0.0,0.0,0.0,0.0,0.0,0.0,0.0,0.0,0.0,0.0,0.0,0.0,0.0,0.0,0.0,0.0,0.0,0.0,0.0,0.0,0.0,0.0,0.0,0.0,0.0,0.0,0.0,0.0,0.0,0.0,0.0,0.0,0.0,0.0,0.0,0.0,0.0,0.0,0.0,0.0,0.0,0.0,0.0,0.0,0.0,0.0,0.0,0.0,0.0,0.0,0.0,0.0,0.0,0.0,0.0,0.0,0.0,0.0,0.0,0.0,0.0,0.0,0.0,0.0,0.0,0.0,0.0,0.0,0.0,0.0,0.0,0.0,0.0,0.0,0.0,0.0,0.0,0.0,0.0,0.0,0.0,0.0,0.0,0.0,0.0,0.0,0.0,0.0,0.0,0.0,0.0,0.0,0.0,0.0,0.0,0.0,0.0,0.0,0.0,0.0,0.0,0.0,0.0,0.0,0.0,0.0,0.0,0.0,0.0,0.0,0.0,0.0,0.0,0.0,0.0,0.0,0.0,0.0,0.0,0.0,0.0,0.0,0.0,0.0,0.0,0.0,0.0,0.0,0.0,0.0,0.0,0.0,0.0,0.0,0.0,0.0,0.0,0.0,0.0,0.0,0.0,0.0,0.0,0.0,0.0,0.0,0.0,0.0,0.0,0.0,0.0,0.0,0.0,0.0,0.0,0.0,0.0,0.0,0.0,0.0,0.0,0.0,0.0,0.0,0.0,0.0,0.0,0.0,0.0,0.0,0.0,0.0,0.0,0.0,0.0,0.0,0.0,0.0,0.0,0.0,0.0,0.0,0.0,0.0,0.0,0.0,0.0,0.0,0.0,0.0,0.0,0.0,0.0,0.0,0.0,0.0,0.0,0.0,0.0,0.0,0.0,0.0,0.0,0.0,0.0,0.0,0.0,0.0,0.0,0.0,0.0,0.0,0.0,0.0,0.0,0.0,0.0,0.0,0.0,0.0,0.0,0.0,0.0,0.0,0.0,0.0,0.0,0.0,0.0,0.0,0.0,0.0,0.0,0.0,0.0,0.0,0.0,0.0,0.0,0.0,0.0,0.0,0.0,0.0,0.0,0.0,0.0,0.0,0.0,0.0,0.0,0.0,0.0,0.0,0.0,0.0,0.0,0.0,0.0,0.0,0.0,0.0,0.0,0.0,0.0,0.0,0.0,0.0,0.0,0.0,0.0,0.0,0.0,0.0,0.0,0.0,0.0,0.0,0.0,0.0,0.0,0.0,0.0,0.0,0.0,0.0,0.0,0.0,0.0,0.0,0.0,0.0,0.0,0.0,0.0,0.0,0.0,0.0,0.0,0.0,0.0,0.0,0.0,0.0,0.0,0.0,0.0,0.0,0.0,0.0,0.0,0.0,0.0,0.0,0.0,0.0,0.0,0.0,0.0,0.0,0.0,0.0,0.0,0.0,0.0,0.0,0.0,0.0,0.0,0.0,0.0,0.0,0.0,0.0,0.0,0.0,0.0,0.0,0.0,0.0,0.0,0.0,0.0,0.0,0.0,0.0,0.0,0.0,0.0,0.0,0.0,0.0,0.0,0.0,0.0,0.0,0.0,0.0,0.0,0.0,0.0,0.0,0.0,0.0,0.0,0.0,0.0,0.0,0.0,0.0,0.0,0.0,0.0,0.0,0.0,0.0,0.0,0.0,0.0,0.0,0.0,0.0,0.0,0.0,0.0,0.0,0.0,0.0,0.0,0.0,0.0,0.0,0.0,0.0,0.0,0.0,0.0,0.0,0.0,0.0,0.0,0.0,0.0,0.0,0.0,0.0,0.0,0.0,0.0,0.0,0.0,0.0,0.0,0.0,0.0,0.0,0.0,0.0,0.0,0.0,0.0,0.0,0.0,0.0,0.0,0.0,0.0,0.0,0.0,0.0,0.0,0.0,0.0,0.0,0.0,0.0,0.0,0.0,0.0,0.0,0.0,0.0,0.0,0.0,0.0,0.0,0.0,0.0,0.0,0.0,0.0,0.0,0.0,0.0,0.0,0.0,0.0,0.0,0.0,0.0,0.0,0.0,0.0,0.0,0.0,0.0,0.0,0.0,0.0,0.0,0.0,0.0,0.0,0.0,0.0,0.0,0.0,0.0,0.0,0.0,0.0,0.0,0.0,0.0,0.0,0.0,0.0,0.0,0.0,0.0,0.0,0.0,0.0,0.0,0.0,0.0,0.0,0.0,0.0,0.0,0.0,0.0,0.0,0.0,0.0,0.0,0.0,0.0,0.0,0.0,0.0,0.0,0.0,0.0,0.0,0.0,0.0,0.0,0.0,0.0,0.0,0.0,0.0,0.0,0.0,0.0,0.0,0.0,0.0,0.0,0.0,0.0,0.0,0.0,0.0,0.0,0.0,0.0,0.0,0.0,0.0,0.0,0.0,0.0,0.0,0.0,0.0,0.0,0.0,0.0,0.0,0.0,0.0,0.0,0.0,0.0,0.0,0.0,0.0,0.0,0.0,0.0,0.0,0.0,0.0,0.0,0.0,0.0,0.0,0.0,0.0,0.0,0.0,0.0,0.0,0.0,0.0,0.0,0.0,0.0,0.0,0.0,0.0,0.0,0.0,0.0,0.0,0.0,0.0,0.0,0.0,0.0,0.0,0.0,0.0,0.0,0.0,0.0,0.0,0.0,0.0,0.0,0.0,0.0,0.0,0.0,0.0,0.0,0.0,0.0,0.0,0.0,0.0,0.0,0.0,0.0,0.0,0.0,0.0,0.0,0.0,0.0,0.0,0.0,0.0,0.0,0.0,0.0,0.0,0.0,0.0,0.0,0.0,0.0,0.0,0.0,0.0,0.0,0.0,0.0,0.0,0.0,0.0,0.0,0.0,0.0,0.0,0.0,0.0,0.0,0.0,0.0,0.0,0.0,0.0,0.0,0.0,0.0,0.0,0.0,0.0,0.0,0.0,0.0,0.0,0.0,0.0,0.0,0.0,0.0,0.0,0.0,0.0,0.0,0.0,0.0,0.0,0.0,0.0,0.0,0.0,0.0,0.0,0.0,0.0,0.0,0.0,0.0,0.0,0.0,0.0,0.0,0.0,0.0,0.0,0.0,0.0,0.0,0.0,0.0,0.0,0.0,0.0,0.0,0.0,0.0,0.0,0.0,0.0,0.0,0.0,0.0,0.0,0.0,0.0,0.0,0.0,0.0,0.0,0.0,0.0,0.0,0.0,0.0,0.0,0.0,0.0,0.0,0.0,0.0,0.0,0.0,0.0,0.0,0.0,0.0,0.0,0.0,0.0,0.0,0.0,0.0,0.0,0.0,0.0,0.0,0.0,0.0,0.0,0.0,0.0,0.0,0.0,0.0,0.0,0.0,0.0,0.0,0.0,0.0,0.0,0.0,0.0,0.0,0.0,0.0,0.0,0.0,0.0,0.0,0.0,0.0,0.0,0.0,0.0,0.0,0.0,0.0,0.0,0.0,0.0,0.0,0.0,0.0,0.0,0.0,0.0,0.0,0.0,0.0,0.0,0.0,0.0,0.0,0.0,0.0,0.0,0.0,0.0,0.0,0.0,0.0,0.0,0.0,0.0,0.0,0.0,0.0,0.0,0.0,0.0,0.0,0.0,0.0,0.0,0.0,0.0,0.0,0.0,0.0,0.0,0.0,0.0,0.0,0.0,0.0,0.0,0.0,0.0,0.0,0.0,0.0,0.0,0.0,0.0,0.0,0.0,0.0,0.0,0.0,0.0,0.0,0.0,0.0,0.0,0.0,0.0,0.0,0.0,0.0,0.0,0.0,0.0,0.0,0.0,0.0,0.0,0.0,0.0,0.0,0.0,0.0,0.0,0.0,0.0,0.0,0.0,0.0,0.0,0.0,0.0,0.0,0.0,0.0,0.0,0.0,0.0,0.0,0.0,0.0,0.0,0.0,0.0,0.0,0.0,0.0,0.0,0.0,0.0,0.0,0.0,0.0,0.0,0.0,0.0,0.0,0.0,0.0,0.0,0.0,0.0,0.0,0.0,0.0,0.0,0.0,0.0,0.0,0.0,0.0,0.0,0.0,0.0,0.0,0.0,0.0,0.0,0.0,0.0,0.0,0.0,0.0,0.0,0.0,0.0,0.0,0.0,0.0,0.0,0.0,0.0,0.0,0.0,0.0,0.0,0.0,0.0,0.0,0.0,0.0,0.0,0.0,0.0,0.0,0.0,0.0,0.0,0.0,0.0,0.0,0.0,0.0,0.0,0.0,0.0,0.0,0.0,0.0,0.0,0.0,0.0,0.0,0.0,0.0,0.0,0.0,0.0,0.0,0.0,0.0,0.0,0.0,0.0,0.0,0.0,0.0,0.0,0.0,0.0,0.0,0.0,0.0,0.0,0.0,0.0,0.0,0.0,0.0,0.0,0.0,0.0,0.0,0.0,0.0,0.0,0.0,0.0,0.0,0.0,0.0,0.0,0.0,0.0,0.0,0.0,0.0,0.0,0.0,0.0,0.0,0.0,0.0,0.0,0.0,0.0,0.0,0.0,0.0,0.0,0.0,0.0,0.0,0.0,0.0,0.0,0.0,0.0,0.0,0.0,0.0,0.0,0.0,0.0,0.0,0.0,0.0,0.0,0.0,0.0,0.0,0.0,0.0,0.0,0.0,0.0,0.0,0.0,0.0,0.0,0.0,0.0,0.0,0.0,0.0,0.0,0.0,0.0,0.0,0.0,0.0,0.0,0.0,0.0,0.0,0.0,0.0,0.0,0.0,0.0,0.0,0.0,0.0,0.0,0.0,0.0,0.0,0.0,0.0,0.0,0.0,0.0,0.0,0.0,0.0,0.0,0.0,0.0,0.0,0.0,0.0,0.0,0.0,0.0,0.0,0.0,0.0,0.0,0.0,0.0,0.0,0.0,0.0,0.0,0.0,0.0,0.0,0.0,0.0,0.0,0.0,0.0,0.0,0.0,0.0,0.0,0.0,0.0,0.0,0.0,0.0,0.0,0.0,0.0,0.0,0.0,0.0,0.0,0.0,0.0,0.0,0.0,0.0,0.0,0.0,0.0,0.0,0.0,0.0,0.0,0.0,0.0,0.0,0.0,0.0,0.0,0.0,0.0,0.0,0.0,0.0,0.0,0.0,0.0,0.0,0.0,0.0,0.0,0.0,0.0,0.0,0.0,0.0,0.0,0.0,0.0,0.0,0.0,0.0,0.0,0.0,0.0,0.0,0.0,0.0,0.0,0.0,0.0,0.0,0.0,0.0,0.0,0.0,0.0,0.0,0.0,0.0,0.0,0.0,0.0,0.0,0.0,0.0,0.0,5.5318,5.5026,0.0,0.0,0.0,0.0,0.0,0.0,0.0,0.0,0.0,0.0,0.0,0.0,0.0,0.0,0.0,0.0,0.0,0.0,0.0,0.0,0.0,0.0,0.0,0.0,0.0,0.0,0.0,0.0,0.0,0.0,0.0,0.0,0.0,0.0,0.0,0.0,0.0,0.0,4.8587,4.8806,4.8787,4.7791,4.7327,4.7284,0.0,0.0,0.0,0.0,0.0,0.0,0.0,0.0,0.0,0.0,0.0,0.0,0.0,0.0,0.0,0.0,0.0,0.0,0.0,0.0,0.0,0.0,0.0,0.0,0.0,0.0,0.0,0.0,0.0,0.0,0.0,0.0,0.0,0.0,0.0,0.0,0.0,0.0,0.0,0.0,0.0,0.0,0.0,0.0,0.0,0.0,0.0,0.0,0.0,0.0,0.0,0.0,0.0,0.0,0.0,0.0,0.0,0.0,0.0,0.0,0.0,0.0,0.0,0.0,0.0,0.0,0.0,0.0,0.0,0.0,5.6118,5.5923,0.0,0.0,0.0,0.0,0.0,0.0,0.0,0.0,0.0,0.0,0.0,0.0,0.0,0.0,0.0,0.0,0.0,0.0,0.0,0.0,0.0,0.0,0.0,0.0,0.0,0.0,0.0,0.0,0.0,0.0,0.0,0.0,0.0,0.0,0.0,0.0,0.0,4.9006,4.9161,4.9235,4.9235,4.9235,4.9235,4.9216,4.8923,0.0,0.0,0.0,0.0,0.0,0.0,0.0,0.0,0.0,0.0,0.0,0.0,0.0,0.0,0.0,0.0,0.0,0.0,0.0,0.0,0.0,0.0,0.0,0.0,0.0,0.0,0.0,0.0,0.0,0.0,0.0,0.0,0.0,0.0,0.0,0.0,0.0,0.0,0.0,0.0,0.0,0.0,0.0,0.0,0.0,0.0,0.0,0.0,0.0,0.0,0.0,0.0,0.0,0.0,0.0,0.0,0.0,0.0,0.0,0.0,0.0,0.0,0.0,5.5409,5.5819,5.6522,5.6563,5.6605,5.6605,5.6605,5.6605,5.6605,5.6605,0.0,0.0,0.0,0.0,0.0,0.0,0.0,0.0,0.0,0.0,0.0,0.0,0.0,0.0,0.0,0.0,0.0,0.0,0.0,0.0,0.0,0.0,4.6197,4.6197,0.0,0.0,0.0,0.0,0.0,0.0,0.0,0.0,0.0,4.9488,4.9843,4.9831,5.0603,5.0969,5.0969,5.0969,5.0969,5.0911,4.9449,4.877,4.8716,0.0,0.0,0.0,0.0,0.0,0.0,0.0,0.0,0.0,0.0,0.0,0.0,0.0,0.0,0.0,0.0,0.0,0.0,0.0,0.0,0.0,0.0,0.0,0.0,0.0,0.0,0.0,0.0,0.0,0.0,0.0,0.0,0.0,0.0,0.0,0.0,0.0,0.0,0.0,0.0,0.0,5.2537,5.3318,0.0,0.0,0.0,0.0,0.0,0.0,0.0,0.0,0.0,0.0,0.0,0.0,0.0,5.3977,5.4847,5.4902,5.5379,5.6236,5.6364,5.6476,5.6595,5.6608,5.6605,5.6605,5.6605,0.0,5.6605,5.6605,0.0,0.0,0.0,0.0,0.0,0.0,0.0,0.0,0.0,0.0,0.0,0.0,0.0,0.0,0.0,0.0,0.0,0.0,0.0,0.0,0.0,0.0,4.7133,4.762,0.0,0.0,0.0,0.0,0.0,0.0,0.0,5.0209,5.0209,5.056,5.0735,5.0735,5.1119,5.1294,5.13,5.13,5.13,5.1261,5.0521,5.018,5.0166,5.0182,0.0,0.0,0.0,0.0,0.0,0.0,0.0,0.0,0.0,0.0,0.0,0.0,0.0,0.0,0.0,0.0,0.0,0.0,0.0,0.0,0.0,0.0,0.0,0.0,0.0,0.0,0.0,0.0,0.0,0.0,0.0,0.0,0.0,0.0,0.0,0.0,0.0,0.0,0.0,5.2126,5.2735,5.3123,5.2869,5.2489,0.0,0.0,0.0,0.0,0.0,0.0,0.0,0.0,0.0,5.4459,5.4525,5.4984,5.588,5.5937,5.6132,5.6503,5.6563,5.6605,5.6605,5.6605,5.6605,5.6605,5.6605,5.686,5.7231,5.6781,5.68,5.7133,0.0,0.0,0.0,0.0,5.7406,5.768,0.0,0.0,0.0,0.0,0.0,0.0,0.0,0.0,0.0,0.0,0.0,0.0,4.7737,4.7834,4.8087,4.8748,0.0,0.0,0.0,0.0,0.0,0.0,0.0,5.13,5.13,5.13,5.13,5.13,5.1304,5.1304,5.13,5.13,5.13,5.13,5.13,5.13,5.13,5.13,5.13,5.13,0.0,0.0,0.0,0.0,0.0,0.0,0.0,0.0,0.0,0.0,0.0,0.0,0.0,0.0,0.0,0.0,0.0,0.0,0.0,0.0,0.0,0.0,0.0,0.0,0.0,0.0,0.0,0.0,0.0,0.0,0.0,0.0,0.0,0.0,0.0,0.0,0.0,5.2989,5.3267,5.3261,5.331,5.307,0.0,0.0,0.0,0.0,0.0,0.0,5.422,5.4196,5.454,5.5417,5.5483,5.5839,5.6535,5.6566,5.6699,5.6914,5.6904,5.7015,5.7249,5.7249,5.7249,5.7249,5.7249,5.7582,5.807,5.725,5.7172,5.7562,5.7562,5.807,5.8695,5.7875,5.7953,5.8343,0.0,0.0,0.0,0.0,0.0,0.0,0.0,0.0,0.0,0.0,0.0,4.7776,4.8631,4.8729,4.8748,4.8806,4.9508,4.9937,0.0,0.0,5.1222,5.1222,5.1281,5.13,5.13,5.13,5.13,5.13,5.1302,5.1302,5.13,5.13,5.13,5.13,5.13,5.13,5.13,5.13,5.13,5.13,5.13,0.0,0.0,0.0,0.0,0.0,0.0,0.0,0.0,0.0,0.0,0.0,0.0,0.0,0.0,0.0,0.0,0.0,0.0,0.0,0.0,0.0,0.0,0.0,0.0,0.0,0.0,0.0,0.0,0.0,0.0,0.0,0.0,0.0,0.0,0.0,0.0,0.0,0.0,5.5075,5.5066,0.0,0.0,0.0,0.0,5.3929,5.3966,5.4336,5.5098,5.5136,5.5503,5.6314,5.6335,5.6356,5.6417,5.6462,5.6914,5.7734,5.7737,5.8168,5.8967,5.8967,5.8967,5.8967,5.8967,5.9006,5.8967,5.8109,5.8714,6.0217,6.0217,6.0744,6.1407,6.0529,6.0237,6.0159,0.0,0.0,0.0,0.0,0.0,0.0,0.0,0.0,0.0,4.7464,4.799,4.8651,4.9488,4.9566,4.98,5.0365,5.0677,5.0833,5.0833,0.0,5.13,5.13,5.13,5.13,5.13,5.13,5.13,5.13,5.13,5.13,5.13,5.13,5.13,5.13,5.13,5.13,5.13,5.13,5.13,5.13,5.13,5.13,0.0,0.0,0.0,0.0,0.0,0.0,0.0,0.0,0.0,0.0,0.0,0.0,0.0,0.0,0.0,0.0,0.0,0.0,0.0,0.0,0.0,0.0,0.0,0.0,0.0,0.0,0.0,0.0,0.0,0.0,0.0,0.0,0.0,0.0,0.0,0.0,0.0,5.4431,5.4906,0.0,5.4429,5.4635,5.4799,5.4779,5.5296,5.5739,5.6015,5.6009,5.6376,5.7261,5.73,5.7577,5.8121,5.8153,5.8324,5.8637,5.8643,5.8791,5.9103,5.9103,5.9103,5.9103,5.9103,5.9416,5.9905,5.9592,5.9514,5.9552,5.9552,5.9747,5.9982,5.9689,5.9552,5.9513,0.0,0.0,0.0,0.0,0.0,0.0,0.0,0.0,0.0,4.83,4.8845,4.9527,5.0346,5.0443,5.0677,5.1242,5.13,5.13,5.13,0.0,5.13,5.13,5.13,5.13,5.13,5.13,5.13,5.13,5.13,5.13,5.13,5.13,5.13,5.13,5.13,5.13,5.13,5.13,5.13,5.13,5.13,5.13,5.13,0.0,0.0,0.0,0.0,0.0,0.0,0.0,0.0,0.0,0.0,0.0,0.0,0.0,0.0,0.0,0.0,0.0,0.0,0.0,0.0,0.0,0.0,0.0,0.0,0.0,0.0,0.0,0.0,0.0,0.0,0.0,0.0,0.0,0.0,5.4315,5.4981,5.4401,5.5167,5.5486,5.4839,5.5619,5.6135,5.6088,5.6879,5.7378,5.7378,5.7343,5.7597,5.8219,5.8238,5.8524,5.9084,5.9103,5.9259,5.9533,5.9533,5.9689,5.9982,5.9982,5.9982,5.9982,5.9982,6.0294,6.0842,6.0842,6.0509,5.9982,5.9982,5.9982,5.9982,5.9982,5.9982,5.9982,0.0,0.0,0.0,0.0,0.0,0.0,0.0,0.0,4.9118,4.9898,5.0014,5.0365,5.1203,5.13,5.13,5.13,5.13,5.13,5.13,5.1339,5.1339,5.1339,5.132,5.13,5.13,5.13,5.13,5.13,5.13,5.13,5.13,5.13,5.13,5.13,5.13,5.13,5.13,5.13,5.13,5.13,5.13,5.13,5.13,0.0,0.0,0.0,0.0,0.0,0.0,0.0,0.0,0.0,0.0,0.0,0.0,0.0,0.0,0.0,0.0,0.0,0.0,0.0,0.0,0.0,0.0,0.0,0.0,0.0,0.0,0.0,0.0,0.0,0.0,0.0,0.0,0.0,5.4051,5.4705,5.5275,5.5279,5.6103,5.6659,5.6587,5.7341,5.7837,5.7837,5.8616,5.9103,5.9103,5.9103,5.9103,5.9142,5.9142,5.9142,5.9181,5.9181,5.9611,6.0432,6.0432,6.0881,6.1699,6.1699,6.1699,6.1699,6.1699,6.1699,6.1699,6.1738,6.1738,6.1738,6.1719,6.1699,6.1699,6.1699,6.1699,6.1699,0.0,0.0,0.0,0.0,0.0,0.0,0.0,4.9056,4.9742,4.9976,5.056,5.1028,5.1261,5.13,5.13,5.13,5.13,5.13,5.13,0.0,5.2234,5.2234,5.163,5.13,5.13,5.13,5.13,5.13,5.13,5.13,5.13,5.13,5.13,5.13,5.13,5.13,5.13,5.13,5.13,5.13,5.13,5.13,5.13,0.0,0.0,0.0,0.0,0.0,0.0,0.0,0.0,0.0,0.0,0.0,0.0,0.0,0.0,0.0,0.0,0.0,0.0,0.0,0.0,0.0,0.0,0.0,0.0,0.0,0.0,0.0,0.0,0.0,0.0,0.0,5.5568,5.5845,5.4963,5.6146,5.7088,5.7085,5.787,5.8419,5.8396,5.8594,5.8732,5.8732,5.8967,5.9103,5.9103,5.9103,5.9396,6.0022,6.0041,6.0354,6.0977,6.0997,6.1114,6.1348,6.1348,6.1465,6.1699,6.1699,6.1699,6.1699,6.1699,6.1699,6.1758,6.2383,6.2637,6.2579,6.1953,6.1699,6.1699,6.1699,6.1699,6.1797,0.0,0.0,0.0,0.0,0.0,0.0,0.0,4.9722,5.0337,5.0337,5.0787,5.1098,5.1098,5.1098,5.1116,5.1218,5.1553,5.1784,5.1842,5.2312,5.2448,5.2078,5.1571,5.13,5.13,5.13,5.13,5.13,5.13,5.13,5.13,5.13,5.13,5.13,5.13,5.13,5.13,5.13,5.13,5.1339,5.1708,5.163,5.13,5.13,5.1534,5.1844,5.1844,5.2409,5.3149,5.3149,0.0,0.0,0.0,0.0,0.0,0.0,0.0,0.0,0.0,0.0,0.0,0.0,0.0,0.0,0.0,0.0,0.0,0.0,0.0,0.0,0.0,0.0,0.0,0.0,5.7255,5.7415,5.6908,5.7714,5.8343,5.8343,5.8791,5.9103,5.9103,5.9435,5.963,5.963,5.9982,6.0196,6.0196,6.0196,6.0411,6.0939,6.0939,6.1192,6.1699,6.1699,6.1699,6.1699,6.207,6.2246,6.2265,6.2618,6.2794,6.2794,6.2794,6.2794,6.2833,6.334,6.3537,6.3496,0.0,0.0,0.0,0.0,6.2794,6.2852,0.0,0.0,0.0,0.0,0.0,0.0,0.0,5.0291,5.0832,5.0929,5.0948,5.0987,5.1061,5.108,5.1156,5.1341,5.2052,5.2591,5.2836,5.2792,5.2448,5.1766,5.1649,5.1591,5.1591,5.1591,5.1591,5.1591,5.1591,5.1591,5.1591,5.1591,5.1591,5.1591,5.1591,5.1591,5.1591,5.1591,5.1591,5.1669,5.2448,5.2214,5.1456,5.1552,5.2078,5.274,5.274,5.3305,5.4046,5.4046,0.0,0.0,0.0,0.0,0.0,0.0,0.0,0.0,0.0,0.0,0.0,0.0,0.0,0.0,0.0,0.0,0.0,0.0,0.0,0.0,0.0,0.0,0.0,0.0,5.9174,5.9259,5.9259,5.9338,5.9357,5.9259,5.9338,5.9396,5.9396,6.01,6.0549,6.0549,6.125,6.1699,6.1699,6.1699,0.0,0.0,0.0,6.1699,6.1699,6.1797,6.1855,6.1855,6.2735,6.3145,6.3164,6.3946,6.4298,6.4298,6.4298,6.4298,6.4317,6.4415,6.4493,6.4552,6.4376,6.4298,6.4298,6.4298,6.4298,6.4317,0.0,0.0,0.0,0.0,0.0,0.0,0.0,5.0623,5.1045,5.1749,5.1846,5.2093,5.2742,5.282,5.2832,5.286,5.3038,5.3502,5.4393,5.3942,5.389,5.4416,5.3773,5.3403,5.3403,5.3403,5.3403,5.3403,5.3403,5.3403,5.3403,5.3403,5.3403,5.3403,5.3403,5.3403,5.3403,5.3403,5.3403,5.3403,5.3578,5.313,5.2428,5.313,5.35,5.3656,5.3656,5.4201,5.4942,5.4942,5.5528,5.6251,5.6251,5.6368,0.0,0.0,0.0,0.0,0.0,0.0,0.0,0.0,0.0,0.0,0.0,0.0,0.0,0.0,0.0,0.0,0.0,0.0,0.0,5.9041,5.9688,6.0159,6.0159,6.0743,6.0938,6.0237,6.0762,6.1192,6.1192,6.1348,6.1446,6.1446,6.1602,6.1699,6.1699,6.1699,6.1699,6.1699,6.1699,6.1699,6.1699,6.2402,6.2755,6.2755,6.3634,0.0,6.4044,6.422,6.4298,6.4298,6.4298,6.4298,6.4356,6.5058,6.5722,6.6172,6.4825,6.4298,6.4298,6.4298,6.4298,6.4395,0.0,0.0,0.0,0.0,0.0,0.0,0.0,5.0503,5.0702,5.114,5.1197,5.1519,5.236,5.2456,5.2651,5.3167,5.3653,5.4172,5.4711,5.4436,5.4242,5.4242,5.3831,5.3598,5.3598,5.3705,5.3754,5.3754,5.3846,5.3909,5.3909,5.3909,5.3909,5.3909,5.3909,5.3909,5.3909,5.3909,5.3909,5.3948,5.4377,5.4299,5.3909,5.3909,5.4162,5.4552,5.4552,5.5117,5.584,5.584,5.6134,5.6507,5.6507,5.6507,5.6507,0.0,0.0,0.0,0.0,0.0,0.0,0.0,0.0,0.0,0.0,0.0,0.0,0.0,0.0,5.8587,5.9018,0.0,5.9884,6.0333,6.0762,6.1055,6.1055,6.1426,6.1543,6.1094,6.1426,6.1699,6.1699,6.1699,6.1699,6.1699,6.1699,6.1895,6.2324,6.2343,6.2559,6.2989,6.3008,6.3008,6.3008,6.3438,6.3654,6.3654,6.4532,6.4942,6.4961,6.5371,6.5547,6.5547,6.5547,6.5547,6.5586,6.6016,6.6445,6.6718,6.5879,6.5547,6.5547,6.5547,6.5547,6.5606,0.0,0.0,0.0,0.0,0.0,0.0,0.0,0.0,5.0359,5.0531,5.0544,5.0951,5.1977,5.2092,5.2475,5.3467,5.4318,5.4782,5.4782,5.4837,5.4544,5.384,5.3801,5.3801,5.3801,5.3962,5.4048,5.4048,5.4214,5.4297,5.4297,5.4297,5.4297,5.4297,5.4297,5.4297,5.4297,5.4297,5.4297,5.4356,5.5056,5.5348,5.5251,5.455,5.4772,5.5448,5.5448,5.5899,5.6483,5.6446,5.6439,5.6434,5.6395,5.6388,5.6412,5.6626,5.6694,0.0,0.0,0.0,0.0,0.0,0.0,0.0,0.0,5.7857,5.798,5.8014,5.8718,5.9545,6.0272,6.0549,6.0881,6.1582,6.1699,6.1699,6.1699,6.1699,6.1699,6.1699,6.1699,6.1699,6.1699,6.1699,6.1777,6.1934,6.1953,6.2324,6.3204,6.3243,6.3576,6.4278,6.4298,6.4298,6.4298,6.4473,6.4552,6.4552,6.5429,6.5839,6.5858,6.6504,6.6796,6.6796,6.6796,6.6796,6.6796,6.6796,6.6796,6.6796,6.6796,6.6796,6.6796,6.6796,6.6796,6.6796,0.0,0.0,0.0,0.0,0.0,0.0,0.0,0.0,0.0,5.1347,5.1442,5.2053,5.3645,5.3817,5.4167,5.5071,5.5349,5.549,5.549,5.5662,5.5713,5.5617,5.5617,5.5617,5.5617,5.5638,5.5646,5.5646,5.5667,5.5675,5.5675,5.5675,5.5675,5.5675,5.5675,5.5675,5.5675,5.5675,5.5675,5.5675,5.5776,5.5815,5.5815,5.5714,5.5951,5.6349,5.6349,5.6427,5.6474,5.6297,5.6239,5.6197,5.6021,5.597,5.6157,5.7117,5.7388,5.7567,5.8325,5.7933,5.7307,5.7352,5.7324,5.7314,0.0,5.8046,5.8628,5.8751,5.9471,6.0139,6.0365,6.1036,6.1582,6.168,6.1699,6.1699,6.1699,6.1699,6.1699,6.1699,6.1699,6.1699,6.1699,6.1699,6.2012,6.2794,6.2852,6.3243,6.4103,6.4142,6.42,6.4298,6.4298,6.4298,6.4298,6.5077,6.5448,6.5468,6.6289,6.6679,6.6679,6.6757,6.6796,6.6796,6.6796,6.6796,6.6796,6.6796,6.6796,6.6796,6.6796,6.6796,6.6796,6.6796,6.6796,6.6796,0.0,0.0,0.0,0.0,0.0,0.0,0.0,0.0,0.0,0.0,5.0831,5.1486,5.3148,5.4256,5.4995,5.5358,5.5446,5.5468,5.5468,5.5562,5.5599,5.5599,5.5599,5.5599,5.5599,5.5694,5.5721,5.5721,5.5839,5.5911,5.5911,5.5911,5.5911,5.5911,5.5911,5.5911,5.5911,5.5911,5.5911,5.5911,5.5911,5.5911,5.5911,5.5911,5.6002,5.6158,5.6158,5.6158,0.0,0.0,5.6021,5.6009,5.5932,5.6255,5.6736,5.7183,5.7672,5.8075,5.8007,5.7679,5.7455,5.7944,5.7729,5.7652,5.862,5.9161,5.9481,5.9632,6.0346,6.1006,6.1133,6.1441,6.1699,6.1699,6.1699,6.1699,6.1699,6.1699,6.1699,6.1699,6.2148,6.2265,6.1758,6.2168,6.2618,6.2969,6.3477,6.4142,6.5019,6.5058,6.5274,6.5742,6.5742,6.5742,6.5742,6.6113,6.6307,6.6307,6.664,6.6796,6.6796,6.6796,6.6796,6.6796,6.6796,6.6796,6.6796,6.6796,6.6796,6.6796,6.6796,6.6754,6.6682,6.6763,6.6754,6.6674,0.0,0.0,0.0,0.0,0.0,0.0,0.0,0.0,0.0,0.0,0.0,0.0,0.0,5.4352,5.5396,5.5396,5.5396,5.5396,5.5396,5.5396,5.5396,5.5396,5.5396,5.5396,5.5396,5.5492,5.5546,5.5546,5.5694,5.5765,5.5765,5.5765,5.5765,5.5765,5.5765,5.5765,5.5765,5.5765,5.5765,5.5765,5.5765,5.5765,5.5765,5.5765,5.5765,5.576,5.5872,5.5911,0.0,0.0,5.5985,5.6164,5.6112,5.669,5.7452,5.7728,5.8457,5.8995,5.8239,5.797,5.7994,5.8363,5.8191,5.8256,5.9467,5.9953,6.0215,6.0361,6.0896,6.1379,6.1532,6.1616,6.1631,6.1572,6.164,6.1694,6.1658,6.1886,6.2051,6.2051,6.2833,6.3106,6.248,6.2989,6.3457,6.3691,6.4297,6.504,6.5897,6.5936,6.619,6.6777,6.6796,6.6796,6.6796,6.6796,6.6796,6.6796,6.6796,6.6796,6.6796,6.6796,6.6796,6.6796,6.6796,6.6796,6.6795,6.6759,6.6732,6.6749,6.6689,6.66,6.6535,6.6635,6.6598,6.6524,0.0,0.0,0.0,0.0,0.0,0.0,0.0,0.0,0.0,0.0,0.0,0.0,0.0,5.4352,5.5396,5.5396,5.5396,5.5396,5.5396,5.5396,5.5396,5.5396,5.5396,5.5396,5.5396,5.5403,5.5409,5.5409,5.5416,5.5422,5.5422,5.5422,5.5422,5.5422,5.5422,5.5422,5.5422,5.5422,5.5422,5.5422,5.5422,5.5422,5.5422,5.5422,5.5422,5.5453,5.5774,0.0,0.0,5.5671,5.617,5.6838,5.6639,5.7168,5.8061,5.9062,6.0041,6.0657,5.9857,5.9525,5.9231,5.8339,5.8722,5.9347,5.9312,5.9971,6.0646,6.0832,6.0906,6.0986,6.1184,6.1365,6.1444,6.1243,6.1491,6.164,6.1528,6.2347,6.2969,6.2969,6.3732,6.4259,6.422,6.4259,6.461,6.5468,6.5546,6.5917,6.6718,6.6757,6.6777,6.6796,6.6796,6.6796,6.6796,6.6796,6.6796,6.6796,6.6796,6.6796,6.6796,6.6796,6.6796,6.6796,6.6796,6.6796,6.6792,6.6659,6.6617,6.6587,6.6383,6.6302,6.6318,6.6306,6.6302,6.6318,0.0,0.0,0.0,0.0,0.0,0.0,0.0,0.0,0.0,0.0,0.0,0.0,0.0,0.0,0.0,0.0,5.5253,5.5396,5.5396,5.5396,5.5396,5.5396,5.5396,5.5396,5.5396,5.5396,5.5396,5.5396,5.5396,5.5396,5.5396,5.5396,5.5396,5.5396,5.5396,5.5396,5.5396,5.5396,5.5396,5.5396,5.5396,5.5396,5.5396,5.5396,5.5396,5.5479,0.0,0.0,5.6356,5.6292,5.6836,5.7545,5.748,5.8039,5.8895,5.9888,6.0032,5.9798,5.9612,5.9077,5.8639,5.8908,5.9152,5.9472,6.0048,6.0425,6.0702,6.0871,6.0949,6.1184,6.1931,6.1657,6.1477,6.1983,6.215,6.2212,6.217,6.2956,6.3528,6.3528,6.4293,6.4821,6.4821,6.5024,6.5273,6.5585,6.6092,6.6504,6.6796,6.6796,6.6757,6.6666,6.6664,6.6593,6.6479,6.6479,6.6479,6.6479,6.6595,6.6664,6.6664,6.6664,6.6664,6.6661,6.6532,6.6479,6.6457,6.6429,6.6736,6.7254,6.7184,6.7441,6.7832,6.7832,6.7782,6.763,0.0,0.0,0.0,0.0,0.0,0.0,0.0,0.0,0.0,0.0,0.0,0.0,0.0,0.0,0.0,0.0,0.0,5.5007,5.5007,5.5007,5.5007,5.5007,5.5007,5.5007,5.5007,5.5007,5.5007,5.5007,5.5007,5.5064,5.5187,5.5187,5.526,5.5396,5.5396,5.5396,5.5396,5.5396,5.5396,5.5396,5.5396,5.5396,5.5435,5.5728,5.5823,0.0,0.0,0.0,5.7447,5.7167,5.7619,5.8332,5.8359,5.8953,5.9701,6.0041,5.9984,5.967,5.9161,5.9022,5.9075,5.9318,5.9574,5.9907,6.0463,6.0636,6.0697,6.0806,6.112,6.1551,6.223,6.1946,6.1852,6.2671,6.2629,6.2591,6.2862,6.3682,6.426,6.426,6.5005,6.5534,6.5534,6.5717,6.5856,6.5856,6.6326,6.662,6.662,6.662,6.659,6.6492,6.6489,6.6429,6.6291,6.6291,6.6291,6.6291,6.6429,6.6489,6.6489,6.6489,6.6665,6.695,6.6818,6.6948,6.7216,6.7155,6.7454,6.795,6.79,6.8153,6.8529,6.8529,6.8679,6.8764,0.0,0.0,0.0,0.0,0.0,0.0,0.0,0.0,0.0,0.0,0.0,0.0,0.0,0.0,0.0,0.0,0.0,0.0,5.4306,5.4306,5.4306,5.4306,5.4306,5.4306,5.4306,5.4306,5.4306,5.4306,5.4306,5.4463,5.4769,5.4769,5.4976,5.5338,5.5338,5.5338,5.5338,5.5338,5.5338,5.5357,5.5409,5.5434,5.553,5.6358,0.0,0.0,0.0,5.8459,5.8988,5.823,5.8479,5.9104,5.9146,5.9747,6.0316,5.953,5.9906,6.0231,5.8654,5.9414,6.0423,5.9581,5.9984,6.0597,6.0597,6.0604,6.0649,6.0737,6.1421,6.2054,6.2198,6.2257,6.2537,6.3254,6.2902,6.2804,6.3555,6.4507,6.5138,6.5138,6.5817,6.6287,6.6287,6.6287,6.6287,6.6287,6.6283,6.6291,6.6291,6.6291,6.6307,6.6299,6.6299,6.6295,6.6287,6.6287,6.6287,6.6287,6.6295,6.6299,6.6299,6.6338,6.68,6.7592,6.7623,6.81,6.886,6.866,6.8615,6.8632,6.8513,6.8487,6.8526,6.8526,6.9045,6.9648,0.0,0.0,0.0,0.0,0.0,0.0,0.0,0.0,0.0,0.0,0.0,0.0,0.0,0.0,0.0,0.0,0.0,0.0,5.4306,5.4306,5.4306,5.4306,5.4306,5.4306,5.4306,5.4306,5.4306,5.4306,5.4306,5.4338,5.4422,5.4422,5.4471,5.4578,5.4578,5.4578,5.4578,5.4578,5.4578,5.4659,0.0,5.5926,5.6043,0.0,0.0,0.0,5.8498,5.893,5.9064,5.8854,5.8964,5.9075,5.854,5.854,5.8815,5.9198,5.9038,5.8954,5.9816,5.9849,5.9766,6.0232,6.0469,6.0597,6.0597,6.0642,6.0859,6.153,6.19,6.2462,6.3724,6.297,6.2627,6.4038,6.3613,6.3381,6.423,6.5124,6.5704,6.5704,6.5878,6.5999,6.5999,6.5999,6.5999,6.5999,6.6179,6.6291,6.6291,6.6291,6.6255,6.6153,6.6148,6.6094,6.5999,6.5999,6.5999,6.5999,6.6094,6.6148,6.6167,6.6821,6.7247,6.7469,6.7978,6.8322,6.8528,6.8461,6.8822,6.9412,6.9386,6.9725,7.0264,7.0264,7.0398,7.0552,0.0,0.0,0.0,0.0,0.0,0.0,0.0,0.0,0.0,0.0,0.0,0.0,0.0,0.0,0.0,0.0,0.0,0.0,0.0,5.3823,5.3823,5.3823,5.3823,5.3823,5.3823,5.3823,5.3823,5.3823,5.3823,5.3889,5.4043,5.4043,5.4132,5.4306,5.4306,5.4306,5.4306,5.4306,0.0,0.0,0.0,0.0,0.0,0.0,0.0,5.8536,5.9376,5.9408,5.9052,5.8742,5.8641,5.861,5.8221,5.8341,5.8642,5.87,5.8943,5.9319,5.9894,5.9958,6.0003,6.0558,6.066,6.0655,6.0686,6.1011,6.1445,6.1944,6.2667,6.3474,6.4436,6.3512,6.3185,6.4897,6.4122,6.3737,6.4993,6.559,6.5904,6.5904,6.5904,6.5904,6.5904,6.5904,6.5904,6.5904,6.6047,6.6124,6.6124,6.6124,6.6093,6.6003,6.6016,6.5973,6.5904,6.5904,6.5904,6.5904,6.5973,6.6209,6.6557,6.7058,6.7689,6.8436,6.8809,6.9161,6.9507,6.9507,6.9783,7.0225,7.0225,7.0494,7.0898,7.0898,7.0898,7.0898,0.0,0.0,0.0,0.0,0.0,0.0,0.0,0.0,0.0,0.0,0.0,0.0,0.0,0.0,0.0,0.0,0.0,0.0,0.0,0.0,5.3196,5.3196,5.3196,5.3196,5.3196,5.3196,5.3196,5.3196,5.3196,5.3357,5.3624,5.3624,5.3814,5.4141,5.4141,5.4141,5.4141,5.4141,0.0,0.0,0.0,0.0,0.0,0.0,0.0,5.9295,6.0108,5.9835,5.9001,5.8253,5.7915,5.7813,5.7767,5.8316,5.8821,5.8183,5.9134,6.0258,5.9575,5.9984,6.0623,6.0685,6.071,6.0741,6.0794,6.146,6.2133,6.223,6.3512,6.4647,6.4743,6.4064,6.4006,6.5628,6.4532,6.4045,6.5673,6.5904,6.5904,6.5904,6.5904,6.5904,6.5904,6.5904,6.5904,6.5904,6.5904,6.5904,6.5904,6.5904,6.5904,6.5904,6.5904,6.5904,6.5904,6.5904,6.5904,6.5904,6.6019,6.6423,6.7116,6.7346,6.8263,6.9706,6.9821,7.0264,7.0898,7.0898,7.0898,7.0898,7.0898,7.0898,7.0898,7.0898,7.0898,7.0898,0.0,0.0,0.0,0.0,0.0,0.0,0.0,0.0,0.0,0.0,4.9068,4.9913,0.0,0.0,0.0,0.0,0.0,0.0,0.0,0.0,0.0,5.3196,5.3196,5.3196,5.3196,5.3196,5.3196,5.3196,5.3196,5.3238,5.3293,5.3293,5.3316,5.3388,5.3388,5.3388,5.3388,5.3388,0.0,0.0,0.0,0.0,0.0,0.0,0.0,0.0,6.0227,5.9835,5.9001,5.8253,5.7513,5.6805,5.6151,5.6503,5.7264,5.7826,5.8648,5.9507,6.0175,6.0476,6.0629,6.0759,6.0788,6.0794,6.08,6.146,6.2287,6.2954,6.3897,6.482,6.5532,6.4955,6.4705,6.5731,6.5032,6.4724,6.5763,6.5904,6.5904,6.5904,6.5904,6.5904,6.5904,6.5904,6.5904,6.5904,6.5904,6.5904,6.5904,6.5904,6.5904,6.5904,6.5904,6.5904,6.5904,6.5904,6.5904,6.5904,6.6577,6.6962,6.7154,6.859,6.9417,6.9744,7.0398,7.0764,7.0898,7.0898,7.0898,7.0898,7.0898,7.0898,7.0898,7.0898,7.0898,7.0898,0.0,0.0,0.0,0.0,0.0,0.0,0.0,4.8296,4.8296,4.8296,4.9068,4.9913,5.071,5.1132,0.0,0.0,0.0,0.0,0.0,0.0,0.0,0.0,0.0,0.0,5.3196,5.3196,5.3196,5.3196,0.0,5.3196,5.3196,5.3196,5.3196,5.3196,5.3196,5.3196,5.3196,5.3196,5.3434,5.3881,5.4678,5.5728,0.0,0.0,0.0,0.0,5.9708,5.9347,5.874,5.8377,5.7544,5.6601,5.6243,5.6677,5.75,5.8334,5.9163,5.9929,6.0457,6.0629,6.0686,6.0783,6.0806,6.0806,6.0806,6.18,6.2839,6.3218,6.4359,6.5397,6.582,6.5186,6.4897,6.5763,6.5166,6.4897,6.5788,6.5904,6.5904,6.5904,6.5904,6.5904,6.5904,6.5904,6.5904,6.5904,6.5904,6.5904,6.5904,6.5904,6.5904,6.5904,6.5904,6.5904,6.5904,6.5904,6.5904,6.5904,6.6731,6.7346,6.7821,6.9109,6.9937,7.036,7.0725,7.0898,7.0898,7.0898,7.0898,7.0898,7.0898,7.0898,7.0898,7.0898,7.0898,7.0898,0.0,0.0,0.0,0.0,0.0,0.0,0.0,4.8296,4.8296,4.8296,4.8903,4.9637,5.0453,5.0857,5.1646,0.0,0.0,0.0,0.0,0.0,0.0,0.0,0.0,0.0,5.3196,0.0,0.0,5.3196,5.3196,0.0,0.0,0.0,0.0,0.0,5.3196,5.3196,5.3196,5.3196,5.3563,0.0,0.0,5.5468,0.0,0.0,0.0,0.0,0.0,5.9025,5.8748,5.8559,5.7896,5.7162,5.722,5.7544,5.8058,5.8854,5.9768,6.0512,6.0584,6.0655,6.0729,6.0788,6.0806,6.0806,6.0806,6.2108,6.3295,6.3295,6.4686,6.5904,6.5904,6.534,6.5109,6.5788,6.532,6.5128,6.5801,6.5904,6.5904,6.5904,6.5904,6.5904,6.5904,6.5904,6.5904,6.5904,6.5904,6.5904,6.5904,6.5904,6.5904,6.5904,6.5904,6.5904,6.5904,6.5904,6.6,6.6173,6.7,6.784,6.8718,6.9571,7.0302,7.0898,7.0898,7.0898,7.0898,7.0898,7.0898,7.0898,7.0898,7.0898,7.0898,7.0898,7.0898,7.0898,0.0,0.0,0.0,0.0,0.0,0.0,0.0,4.8296,4.8296,4.8296,4.8379,4.8746,4.9619,5.1014,5.2234,0.0,0.0,0.0,0.0,0.0,0.0,0.0,0.0,0.0,0.0,0.0,0.0,5.3196,5.3196,0.0,0.0,0.0,0.0,0.0,0.0,5.3196,5.3196,5.3196,0.0,0.0,0.0,0.0,0.0,0.0,0.0,0.0,0.0,5.9402,5.9563,5.8767,5.8713,5.8968,5.8974,5.8488,5.8058,5.8854,5.9768,6.0512,6.0584,6.0655,6.0729,6.0788,6.0806,6.0806,6.0806,6.2108,6.3295,6.3295,6.4686,6.5904,6.5904,6.582,6.5801,6.5878,6.582,6.5801,6.5878,6.5904,6.5904,6.5904,6.5904,6.5904,6.5904,6.5904,6.5904,6.5904,6.5904,6.5904,6.5904,6.5904,6.5904,6.5904,6.5904,6.5904,6.5904,6.5904,6.6269,6.7,6.7878,6.8737,6.961,7.0417,7.0821,7.0898,7.0898,7.0898,7.0898,7.0898,7.0898,7.0898,7.0898,7.0898,7.0898,7.0898,7.0898,7.0898,0.0,0.0,0.0,0.0,0.0,0.0,4.8296,4.8296,4.8296,4.8296,4.8296,4.8636,4.95,5.018,5.1069,0.0,0.0,0.0,0.0,0.0,0.0,0.0,0.0,0.0,0.0,0.0,5.3196,5.3196,5.3196,0.0,0.0,0.0,0.0,0.0,0.0,5.3196,5.3196,5.3196,0.0,0.0,0.0,0.0,0.0,0.0,0.0,0.0,0.0,0.0,5.9385,5.9045,5.9048,5.928,5.9816,5.9402,5.8904,5.9707,6.0237,6.0558,6.0545,6.0629,6.071,6.0692,6.0747,6.0929,6.1406,6.2443,6.3448,6.3968,6.5051,6.5904,6.5904,6.5904,6.5904,6.5904,6.5904,6.5904,6.5904,6.5904,6.5904,6.5904,6.5904,6.5904,6.5904,6.5904,6.5904,6.5904,6.5904,6.5904,6.5904,6.5904,6.5904,6.5904,6.5904,6.5904,6.5904,6.6385,6.6789,6.7116,6.8513,6.9353,6.9725,7.0533,7.0898,7.0898,7.0898,7.0898,7.0898,7.0898,7.0898,7.0898,7.0898,7.0898,7.0898,7.0898,7.0898,7.0898,0.0,0.0,0.0,0.0,0.0,4.8296,4.8296,4.8296,4.8296,4.8296,4.8296,4.8526,4.9142,4.9445,5.0069,5.1198,0.0,0.0,0.0,0.0,0.0,0.0,0.0,0.0,0.0,0.0,5.3196,5.3196,5.3196,5.3196,0.0,0.0,5.3196,5.3196,0.0,0.0,0.0,0.0,0.0,0.0,0.0,0.0,0.0,0.0,0.0,0.0,0.0,0.0,0.0,0.0,0.0,5.9728,6.0314,6.0143,5.9818,6.0353,6.0552,6.0584,6.0519,6.0572,6.0667,6.061,6.0692,6.0995,6.1811,6.2675,6.3545,6.4416,6.5282,6.5904,6.5904,6.5904,6.5904,6.5904,6.5904,6.5904,6.5904,6.5904,6.5904,6.5904,6.5904,6.5904,6.5904,6.5904,6.5904,6.5904,6.5904,6.5904,6.5904,6.5904,6.5904,6.5904,6.5904,6.5904,6.5904,6.6692,6.7231,6.7494,6.8994,6.9821,7.0071,7.0648,7.0898,7.0898,7.0898,7.0898,7.0898,7.0898,7.0898,7.0898,7.0898,7.0898,7.0898,7.0898,7.0898,7.0898,0.0,0.0,0.0,0.0,0.0,0.0,4.8296,4.8296,4.8296,4.8296,4.8296,4.8296,4.8315,4.9087,4.961,4.9629,0.0,0.0,0.0,0.0,0.0,0.0,0.0,0.0,0.0,0.0,5.3196,5.3196,5.3196,5.3196,5.3196,5.3196,5.3196,5.3196,0.0,0.0,0.0,0.0,0.0,0.0,0.0,0.0,0.0,0.0,0.0,0.0,0.0,0.0,0.0,0.0,0.0,0.0,0.0,6.0578,6.0667,6.0545,6.0552,6.0584,6.0519,6.0552,6.0604,6.0597,6.0661,6.0922,6.1799,6.2675,6.3545,6.4416,6.5282,6.5904,6.5904,6.5904,6.5904,6.5904,6.5904,6.5904,6.5904,6.5904,6.5904,6.5904,6.5904,6.5904,6.5904,6.5904,6.5904,6.5904,6.5904,6.5904,6.5904,6.5904,6.5904,6.5904,6.5904,6.5904,6.5904,6.6692,6.7532,6.8391,6.9283,7.0129,7.0898,7.0898,7.0898,7.0898,7.0898,7.0898,7.0898,7.0898,7.0898,7.0898,7.0898,7.0898,7.0898,7.0898,7.0898,7.0898,0.0,0.0,0.0,0.0,0.0,0.0,0.0,4.8296,4.8296,4.8296,4.8296,4.8296,4.8296,4.8545,4.8958,4.9555,0.0,0.0,0.0,0.0,0.0,0.0,0.0,0.0,0.0,0.0,5.3196,5.3196,5.3196,5.3196,5.3196,5.3196,5.3196,5.3196,5.3196,5.3196,0.0,0.0,0.0,0.0,0.0,0.0,5.4006,0.0,0.0,0.0,0.0,0.0,0.0,0.0,0.0,0.0,0.0,0.0,0.0,6.0597,6.0552,6.0532,6.0505,6.0552,6.0597,6.0597,6.0692,6.113,6.2503,6.3078,6.3718,6.5186,6.5705,6.5904,6.5904,6.5904,6.5904,6.5904,6.5904,6.5904,6.5904,6.5904,6.5904,6.5904,6.5904,6.5904,6.5904,6.5904,6.5904,6.5904,6.5904,6.5904,6.5904,6.5904,6.5904,6.5904,6.5904,6.5904,6.5904,6.7282,6.8122,6.841,6.984,7.0648,7.0898,7.0898,7.0898,7.0898,7.0898,7.0898,7.0898,7.0898,7.0898,7.0898,7.0898,7.0898,7.0898,7.0898,7.0898,7.0898,0.0,0.0,0.0,0.0,0.0,0.0,0.0,4.8296,4.8296,4.8296,4.8296,4.8296,4.8296,4.8296,4.8526,4.9068,0.0,0.0,0.0,0.0,0.0,0.0,0.0,0.0,0.0,5.3196,5.3196,5.3196,5.3196,5.3196,5.3196,5.3196,5.3196,5.3196,5.3196,5.3196,0.0,0.0,0.0,0.0,0.0,0.0,5.3794,0.0,0.0,0.0,0.0,0.0,0.0,0.0,0.0,0.0,0.0,0.0,0.0,0.0,6.0512,6.0499,6.0499,6.0782,6.1006,6.0681,6.0935,6.1579,6.2906,6.3233,6.3764,6.5494,6.582,6.5781,6.5781,6.582,6.5859,6.5859,6.5885,6.5904,6.5904,6.5904,6.5904,6.5904,6.5904,6.5904,6.5904,6.5904,6.5904,6.5904,6.5904,6.5904,6.5904,6.5904,6.5904,6.5904,6.5904,6.6058,6.6346,6.7699,6.8564,6.8911,7.0264,7.0898,7.0898,7.0898,7.0898,7.0898,7.0898,7.0898,0.0,7.0898,7.0898,7.0898,7.0898,7.0898,7.0898,7.0898,7.0898,7.0898,0.0,0.0,0.0,0.0,0.0,0.0,0.0,0.0,4.8296,4.8296,4.8296,4.8296,4.8296,4.8296,4.8296,4.8296,0.0,0.0,0.0,0.0,0.0,0.0,0.0,0.0,0.0,5.3196,5.3196,5.3196,5.3196,5.3196,5.3196,5.3227,5.3248,5.3248,5.3248,5.3248,0.0,0.0,0.0,0.0,0.0,0.0,0.0,0.0,0.0,0.0,0.0,0.0,0.0,0.0,0.0,0.0,0.0,0.0,0.0,0.0,0.0,0.0,0.0,6.1236,6.171,6.0904,6.1409,6.2285,6.3028,6.3246,0.0,6.5441,6.5694,6.5608,6.5601,6.5701,6.5793,6.5793,6.5852,6.5904,6.5904,6.5904,6.5904,6.5904,6.5904,6.5904,6.5904,6.5904,6.5904,6.5904,6.5904,6.5904,6.5904,6.5904,6.5904,6.5904,6.5904,6.6288,6.7096,6.7955,6.8834,6.9706,7.0514,7.0898,7.0898,7.0898,7.0898,7.0898,7.0898,7.0898,7.0898,7.0898,7.0898,7.0898,7.0898,7.0898,7.0898,7.0898,7.0898,7.0898,0.0,0.0,0.0,0.0,0.0,0.0,0.0,0.0,0.0,0.0,4.8296,4.8296,4.8296,4.8296,4.8296,0.0,0.0,0.0,0.0,0.0,0.0,0.0,0.0,0.0,0.0,5.3196,5.3196,5.3196,5.3196,5.3196,5.3206,5.3462,5.3574,5.3574,5.3574,5.3574,0.0,0.0,0.0,0.0,0.0,0.0,0.0,0.0,0.0,0.0,5.868,5.9588,0.0,0.0,0.0,0.0,0.0,0.0,0.0,0.0,6.0565,6.0725,6.1448,0.0,6.194,6.1785,6.2386,6.3027,0.0,6.3764,6.4533,6.5457,6.5701,6.5727,6.5608,6.5701,6.5793,6.5793,6.5852,6.5904,6.5904,6.5904,6.5904,6.5904,6.5904,6.5904,6.5904,6.5904,6.5904,6.5904,6.5904,6.5904,6.5904,6.5904,6.5904,6.5904,6.5904,6.6288,6.7096,6.7955,6.8834,6.9706,7.0514,7.0898,7.0898,7.0898,7.0898,7.0898,7.0898,7.0898,7.0898,7.0898,7.0898,7.0898,7.0898,7.0898,7.0898,7.0898,7.0898,7.0898,0.0,0.0,0.0,0.0,0.0,0.0,0.0,0.0,0.0,0.0,0.0,0.0,0.0,0.0,0.0,0.0,0.0,0.0,0.0,0.0,0.0,0.0,0.0,5.238,5.3177,5.3196,5.3196,5.3196,5.3196,5.3196,5.3206,5.3543,5.3701,5.371,5.3898,5.406,0.0,0.0,0.0,0.0,5.4738,0.0,0.0,0.0,0.0,0.0,5.8816,5.9663,0.0,6.0438,6.0472,6.0499,0.0,0.0,0.0,0.0,6.0552,6.0879,6.2164,6.2548,6.2617,6.2641,6.3281,6.3872,6.3809,6.4168,6.4717,6.5407,6.5597,6.5604,6.5559,6.5634,6.5734,6.5787,6.5852,6.5904,6.5904,6.5904,6.5904,6.5904,6.5904,6.5904,6.5904,6.5904,6.5904,6.5904,6.5904,6.5904,6.5904,6.5904,6.5904,6.5904,6.5904,6.6474,6.7686,6.816,6.9026,7.0264,7.0687,7.0898,7.0898,7.0898,7.0898,7.0898,7.0898,7.0898,7.0898,7.0898,7.0898,7.0898,7.0898,7.0898,7.0898,7.0898,7.0898,7.0898,0.0,0.0,0.0,0.0,0.0,0.0,0.0,0.0,0.0,0.0,0.0,0.0,0.0,0.0,0.0,0.0,0.0,0.0,0.0,0.0,0.0,0.0,0.0,5.2548,5.3349,5.3357,5.3357,5.3357,5.3357,5.3357,5.3367,5.3719,5.387,5.3888,5.4209,5.4536,0.0,0.0,0.0,0.0,5.5266,0.0,0.0,0.0,0.0,0.0,0.0,0.0,0.0,6.0465,6.0485,6.0485,6.0485,0.0,0.0,0.0,0.0,0.0,6.2694,6.3201,6.3321,6.3468,6.4154,6.4725,6.4519,6.4537,6.4744,6.5367,6.5462,6.5447,6.5487,6.5566,6.5674,6.578,6.5852,6.5904,6.5904,6.5904,6.5904,6.5904,6.5904,6.5904,6.5904,6.5904,6.5904,6.5904,6.5904,6.5904,6.5904,6.5904,6.5904,6.5904,6.5904,6.6705,6.8372,6.8391,6.9237,7.0898,7.0898,7.0898,7.0898,7.0898,7.0898,7.0898,7.0898,7.0898,7.0898,7.0898,7.0898,7.0898,7.0898,7.0898,7.0898,7.0898,7.0898,7.0898,0.0,0.0,0.0,0.0,0.0,0.0,0.0,0.0,0.0,0.0,0.0,0.0,0.0,0.0,0.0,0.0,0.0,0.0,0.0,0.0,0.0,5.2716,5.2866,5.3298,5.4114,5.4133,5.4133,5.4133,5.4133,5.4133,5.4142,5.4468,5.4627,5.4635,5.47,5.4754,5.4799,0.0,0.0,0.0,5.5383,0.0,0.0,0.0,0.0,0.0,0.0,0.0,0.0,6.041,6.0417,6.0417,6.0417,0.0,0.0,0.0,0.0,0.0,6.2887,6.3201,6.3405,6.4212,6.5007,6.5409,6.4607,6.4924,6.5412,6.5428,6.5506,6.5552,6.5509,6.5646,6.578,6.5793,6.5852,6.5904,6.5904,6.5904,6.5904,6.5904,6.5904,6.5904,6.5904,6.5904,6.5904,6.5904,6.5904,6.5904,6.5904,6.5904,6.5904,6.5904,6.5904,6.6705,6.8372,6.8391,6.9237,7.0898,7.0898,7.0898,7.0898,7.0898,7.0898,7.0898,7.0898,7.0898,7.0898,7.0898,7.0898,7.0898,7.0898,7.0898,7.0898,7.0898,7.0898,7.0898,0.0,0.0,0.0,0.0,0.0,0.0,0.0,0.0,0.0,0.0,0.0,0.0,0.0,0.0,0.0,0.0,0.0,0.0,0.0,0.0,0.0,5.3987,5.4239,5.4333,5.4296,5.4306,5.4306,5.4306,5.4306,5.4306,5.4315,5.4646,5.4925,5.5127,5.5127,5.5127,5.5127,5.5127,0.0,0.0,0.0,0.0,0.0,0.0,0.0,0.0,0.0,0.0,0.0,0.0,6.0396,6.0396,6.0396,0.0,0.0,0.0,0.0,0.0,6.2839,6.3461,6.3968,6.4437,6.4494,6.4328,6.386,6.4396,6.4977,6.4872,6.5252,6.5601,6.5653,6.5746,6.5807,6.5846,6.5878,6.5904,6.5904,6.5904,6.5904,6.5904,6.5904,6.5904,6.5904,6.5904,6.5904,6.5904,6.5904,6.5904,6.5904,6.5904,6.5904,6.5904,6.5904,6.6705,6.8372,6.8391,6.9237,7.0898,7.0898,7.0898,7.0898,7.0898,7.0898,7.0898,7.0898,7.0898,7.0898,7.0898,7.0898,7.0898,7.0898,7.0898,7.0898,7.0898,7.0898,7.0898,0.0,0.0,0.0,0.0,0.0,0.0,0.0,0.0,0.0,0.0,0.0,0.0,0.0,0.0,0.0,0.0,0.0,0.0,0.0,0.0,5.4076,5.489,5.5246,5.5139,5.4562,5.4554,5.4554,5.4554,5.4554,5.4554,5.4562,5.4818,5.5094,5.5396,5.5396,5.5396,5.5396,5.5396,5.5396,0.0,0.0,0.0,0.0,0.0,0.0,0.0,0.0,0.0,0.0,0.0,0.0,0.0,0.0,0.0,0.0,6.0396,6.1157,6.2136,6.2808,6.366,6.4393,6.4461,6.4148,6.3777,6.3553,6.4142,6.4748,6.4694,6.5193,6.5681,6.578,6.5807,6.584,6.5891,6.5904,6.5904,6.5904,6.5904,6.5904,6.5904,6.5904,6.5904,6.5904,6.5904,6.5904,6.5904,6.5904,6.5904,6.5904,6.5904,6.5904,6.5904,6.5904,6.6705,6.8372,6.8391,6.9237,7.0898,7.0898,7.0898,7.0898,7.0898,7.0898,7.0898,7.0898,7.0898,7.0898,7.0898,7.0898,7.0898,7.0898,7.0898,7.0898,7.0898,7.0898,7.0898,0.0,0.0,0.0,0.0,0.0,0.0,0.0,0.0,0.0,0.0,0.0,0.0,0.0,0.0,0.0,0.0,0.0,0.0,0.0,0.0,5.4454,5.5313,5.539,5.5377,5.5319,5.5319,5.5319,5.5319,5.5319,5.5319,5.5319,5.5357,5.5377,5.5396,5.5396,5.5396,5.5396,5.5396,5.5396,5.5473,5.6205,0.0,0.0,0.0,0.0,0.0,0.0,0.0,0.0,0.0,0.0,0.0,0.0,0.0,6.0396,6.0396,6.1562,6.2837,6.2973,6.3638,6.431,6.4393,6.4924,6.5245,6.4564,6.4985,6.5531,6.5505,6.5656,6.5787,6.5793,6.5846,6.5897,6.5904,6.5904,6.5904,6.5904,6.5904,6.5904,6.5904,6.5904,6.5904,6.5904,6.5904,6.5904,6.5904,6.5904,6.5904,6.5904,6.5904,6.5904,6.5904,6.5904,6.6705,6.8372,6.8391,6.9237,7.0898,7.0898,7.0898,7.0898,7.0898,7.0898,7.0898,7.0898,7.0898,7.0898,7.0898,7.0898,7.0898,7.0898,7.0898,7.0898,7.0898,7.0898,7.0898,0.0,0.0,0.0,0.0,0.0,0.0,0.0,0.0,0.0,0.0,0.0,0.0,0.0,0.0,0.0,0.0,0.0,0.0,0.0,5.4123,5.5052,5.5396,5.5396,5.5396,5.5396,5.5396,5.5396,5.5396,5.5396,5.5396,5.5396,5.5396,5.5396,5.5396,5.5396,5.5396,5.5396,5.5396,5.5396,5.5435,5.5728,5.6683,0.0,0.0,0.0,0.0,0.0,0.0,0.0,0.0,6.0396,6.0396,6.0396,6.0396,6.0492,6.1,6.1975,6.2906,6.2985,6.4001,6.4814,6.3884,6.4698,6.5369,6.4001,6.4366,6.4987,6.4987,6.5455,6.5859,6.5859,6.5885,6.5904,6.5904,6.5904,6.5904,6.5904,6.5904,6.5904,6.5904,6.5904,6.5904,6.5904,6.5904,6.5904,6.5904,6.5904,6.5904,6.5904,6.5904,6.5904,6.5904,6.5904,6.6705,6.8372,6.8391,6.9237,7.0898,7.0898,7.0898,7.0898,7.0898,7.0898,7.0898,7.0898,7.0898,7.0898,7.0898,7.0898,7.0898,7.0898,7.0898,7.0898,7.0898,7.0898,7.0898,0.0,0.0,0.0,0.0,0.0,0.0,0.0,0.0,0.0,0.0,0.0,0.0,0.0,0.0,0.0,0.0,0.0,0.0,5.2811,5.4428,5.5396,5.5396,5.5396,5.5396,5.5396,5.5396,5.5396,5.5396,5.5396,5.5396,5.5396,5.5396,5.5396,5.5396,5.5396,5.5396,5.5396,5.5396,5.5396,5.5415,5.5689,5.6625,0.0,0.0,0.0,0.0,0.0,0.0,0.0,0.0,6.0396,6.0396,6.0396,6.0396,6.0511,6.1065,6.1836,6.2534,6.259,6.385,6.4881,6.3826,6.4685,6.5473,6.4205,6.4494,6.5013,6.5013,6.5474,6.5891,6.5872,6.5885,6.5904,6.5904,6.5904,6.5904,6.5904,6.5904,6.5904,6.5904,6.5904,6.5904,6.5904,6.5904,6.5904,6.5904,6.5904,6.5904,6.5904,6.5904,6.5904,6.5904,6.5904,6.6705,6.8372,6.8391,6.9237,7.0898,7.0898,7.0898,7.0898,7.0898,7.0898,7.0898,7.0898,7.0898,7.0898,7.0898,7.0898,7.0898,7.0898,7.0898,7.0898,7.0898,7.0898,7.0898,0.0,0.0,0.0,0.0,0.0,0.0,0.0,0.0,0.0,0.0,0.0,0.0,0.0,0.0,0.0,0.0,0.0,0.0,5.2811,5.4428,5.5396,5.5396,5.5396,5.5396,5.5396,5.5396,5.5396,5.5396,5.5396,5.5396,5.5396,5.5396,5.5396,5.5396,5.5396,5.5396,5.5396,5.5396,5.5396,5.5473,5.6282,5.7129,5.7982,0.0,0.0,0.0,0.0,0.0,0.0,0.0,6.0396,6.0396,6.0396,6.0396,6.0396,6.0415,6.1037,6.171,6.1717,6.3035,6.4386,6.4329,6.5052,6.576,6.5556,6.5715,6.5904,6.5904,6.5904,6.5878,6.5807,6.5852,6.5904,6.5904,6.5904,6.5904,6.5904,6.5904,6.5904,6.5904,6.5904,6.5904,6.5904,6.5904,6.5904,6.5904,6.5904,6.5904,6.5904,6.5904,6.5904,6.5904,6.5904,6.6705,6.8372,6.8391,6.9237,7.0898,7.0898,7.0898,7.0898,7.0898,7.0898,7.0898,7.0898,7.0898,7.0898,7.0898,7.0898,7.0898,7.0898,7.0898,7.0898,7.0898,7.0898,7.0898,0.0,0.0,0.0,0.0,0.0,0.0,0.0,0.0,0.0,0.0,0.0,0.0,0.0,0.0,0.0,0.0,0.0,0.0,5.2811,5.4428,5.5396,5.5396,5.5396,5.5396,5.5396,5.5396,5.5396,5.5396,5.5396,5.5403,5.539,5.5403,5.5403,5.5409,5.5403,5.5396,5.5396,5.5396,5.5396,5.5473,5.6282,5.7129,5.7982,0.0,0.0,0.0,0.0,0.0,0.0,0.0,0.0,0.0,6.0396,6.0396,6.0511,6.1077,6.1855,6.2546,6.2609,6.3869,6.5053,6.4555,6.5127,6.5793,6.5787,6.584,6.5904,6.5904,6.5904,6.5891,6.5872,6.5885,6.5904,6.5904,6.5904,6.5904,6.5904,6.5904,6.5904,6.5904,6.5904,6.5904,6.5904,6.5904,6.5904,6.5904,6.5904,6.5904,6.5904,6.5904,6.5904,6.5904,6.5904,6.6404,6.7475,6.8084,6.8949,7.0052,7.0629,7.0898,7.0898,7.0898,7.0898,7.0898,7.0898,7.0898,7.0898,7.0898,7.0898,7.0898,7.0898,7.0898,7.0898,7.0898,7.0898,7.0898,0.0,0.0,0.0,0.0,0.0,0.0,0.0,0.0,0.0,0.0,5.0302,0.0,0.0,0.0,0.0,0.0,0.0,0.0,0.0,5.4434,5.5409,5.5403,5.5403,5.5409,5.5396,5.5396,5.539,5.5403,5.5403,5.5403,5.5402,5.5396,5.5403,5.5421,5.5766,5.5906,5.5899,5.6269,5.6416,5.6434,5.6912,5.7619,5.844,0.0,0.0,0.0,0.0,0.0,0.0,0.0,0.0,0.0,6.0396,6.0396,6.0492,6.0981,6.1788,6.2514,6.2543,6.3824,6.5048,6.4602,6.5179,6.5846,6.5891,6.5904,6.5891,6.5865,6.5878,6.5891,6.5865,6.5878,6.5904,6.5904,6.5904,6.5904,6.5904,6.5904,6.5904,6.5904,6.5904,6.5904,6.5904,6.5904,6.5904,6.5904,6.5904,6.5904,6.5904,6.5904,6.5904,6.5904,6.5904,6.6288,6.7096,6.7955,6.8834,6.9706,7.0514,7.0898,7.0898,7.0898,7.0898,7.0898,7.0898,7.0898,7.0898,7.0898,7.0898,7.0898,7.0898,7.0898,7.0898,7.0898,7.0898,7.0898,0.0,0.0,0.0,0.0,0.0,0.0,0.0,0.0,0.0,0.0,5.0302,5.0302,0.0,0.0,0.0,0.0,0.0,0.0,0.0,0.0,5.5403,5.5403,5.5396,5.5409,5.5409,5.5409,5.5441,5.5529,5.5446,5.5408,5.542,5.5484,5.5523,5.5573,5.6428,5.6799,5.6792,5.7647,5.7959,5.7925,5.7989,5.844,5.9109,5.9179,0.0,0.0,0.0,0.0,0.0,0.0,0.0,0.0,6.0396,6.0396,6.0396,6.0396,6.1104,6.1901,6.1978,6.3265,6.4597,6.4609,6.5269,6.5904,6.5904,6.5904,6.5885,6.5813,6.5859,6.5878,6.5813,6.5859,6.5904,6.5904,6.5904,6.5904,6.5904,6.5904,6.5904,6.5904,6.5904,6.5904,6.5904,6.5904,6.5904,6.5904,6.5904,6.5904,6.5904,6.5904,6.5904,6.5904,6.5904,6.625,6.6981,6.7936,6.8795,6.959,7.0475,7.0898,7.0898,7.0898,7.0898,7.0898,7.0898,7.0898,7.0898,7.0898,7.0898,7.0898,7.0898,7.0898,7.0898,7.0898,7.0898,7.0898,0.0,0.0,0.0,0.0,0.0,0.0,0.0,0.0,0.0,0.0,0.0,0.0,0.0,0.0,0.0,0.0,0.0,0.0,0.0,0.0,5.5396,5.5396,5.539,5.5403,5.5402,5.5402,5.5765,5.6508,5.5758,5.5456,5.5575,5.6146,5.6484,5.6612,5.7372,5.773,5.7793,5.7934,5.8017,5.8093,5.864,5.8971,5.9254,5.9882,6.0243,0.0,0.0,0.0,0.0,0.0,0.0,0.0,6.0396,6.0396,6.0396,6.0396,6.1051,6.1897,6.2574,6.36,6.4614,6.5338,6.5711,6.5904,6.5904,6.5904,6.5897,6.5878,6.5891,6.5897,6.5878,6.5891,6.5904,6.5904,6.5904,6.5904,6.5904,6.5904,6.5904,6.5904,6.5904,6.5904,6.5904,6.5904,6.5904,6.5904,6.5904,6.5904,6.5904,6.5904,6.5904,6.5904,6.5904,6.5981,6.6154,6.7641,6.8487,6.8699,7.0187,7.0898,7.0898,7.0898,7.0898,7.0898,7.0898,7.0898,7.0898,7.0898,7.0898,7.0898,7.0898,7.0898,7.0898,7.0898,7.0898,7.0898,0.0,0.0,0.0,0.0,0.0,0.0,0.0,0.0,0.0,0.0,0.0,0.0,0.0,0.0,0.0,0.0,0.0,0.0,0.0,0.0,5.4988,5.539,5.5409,5.5403,5.5402,5.584,5.633,5.6842,5.6781,5.678,5.6844,5.721,5.7427,5.7555,5.8278,5.8642,5.8699,5.9115,5.9287,5.9319,5.9643,5.9795,5.9867,6.0252,6.0396,6.0396,6.0396,0.0,0.0,0.0,0.0,0.0,0.0,0.0,6.0114,6.0114,6.1023,6.2139,6.2578,6.3817,6.5104,6.5658,6.5774,6.5768,6.584,6.5801,6.5755,6.5755,6.5833,6.5878,6.5768,6.5807,6.5846,6.5846,6.5846,6.5859,6.5897,6.5904,6.5904,6.5904,6.5904,6.5904,6.5904,6.5904,6.5904,6.5904,6.5904,6.5904,6.5904,6.5904,6.5904,6.5904,6.5904,6.5904,6.5904,6.7571,6.8391,6.841,7.011,7.0898,7.0898,7.0898,7.0898,7.0898,7.0898,7.0898,7.0898,7.0898,7.0898,7.0898,7.0898,7.0898,7.0898,7.0898,7.0898,7.0898,0.0,0.0,0.0,0.0,0.0,0.0,0.0,0.0,0.0,0.0,0.0,0.0,0.0,0.0,0.0,0.0,0.0,0.0,0.0,0.0,0.0,5.5363,5.5567,5.5656,5.5668,5.6572,5.713,5.7347,5.8072,5.8488,5.8642,5.8429,5.8352,5.8469,5.9216,5.9562,5.9612,6.0385,6.0667,6.0629,6.0552,6.0525,6.0532,6.0444,6.0417,6.0417,6.0417,6.041,6.0396,6.041,0.0,0.0,0.0,0.0,5.9782,5.9717,6.0722,6.1934,6.2218,6.3855,6.5532,6.5727,6.5688,6.5634,6.5741,6.5688,6.5594,6.5587,6.5716,6.5807,6.5622,6.5688,6.5773,6.5773,6.5773,6.58,6.5872,6.5885,6.5885,6.5897,6.5904,6.5904,6.5904,6.5904,6.5904,6.5904,6.5904,6.5904,6.5904,6.5904,6.5904,6.5904,6.5904,6.5904,6.5904,6.7417,6.8257,6.841,7.011,7.0898,7.0898,7.0898,7.0898,7.0898,7.0898,7.0898,7.0898,7.0898,7.0898,7.0898,7.0898,7.0898,7.0898,7.0898,7.0898,7.0898,0.0,0.0,0.0,0.0,0.0,0.0,0.0,0.0,0.0,0.0,5.0302,5.0583,0.0,0.0,0.0,0.0,0.0,0.0,0.0,0.0,0.0,5.5402,5.6171,5.6634,5.6693,5.7557,5.8398,5.9154,5.9269,5.9712,6.0423,5.9608,5.9269,5.936,6.0172,6.0556,6.0604,6.0677,6.0741,6.0765,6.0642,6.0629,6.0654,6.0539,6.0485,6.0485,6.0485,6.0451,6.0403,6.0465,6.0444,0.0,0.0,0.0,5.9733,5.9388,5.9483,6.0034,6.1486,6.3457,6.5172,6.5552,6.5608,6.5601,6.5615,6.5608,6.558,6.5523,6.5573,6.5622,6.5601,6.5608,6.5634,6.5634,6.5634,6.5662,6.5793,6.5807,6.5833,6.5891,6.5904,6.5904,6.5904,6.5904,6.5904,6.5904,6.5904,6.5904,6.5904,6.5904,6.5904,6.5904,6.5904,6.5904,6.5904,6.6808,6.7648,6.841,7.011,7.0898,7.0898,7.0898,7.0898,7.0898,7.0898,7.0898,7.0898,7.0898,7.0898,7.0898,7.0898,7.0898,7.0898,7.0898,7.0898,7.0898,0.0,0.0,0.0,0.0,0.0,0.0,0.0,0.0,0.0,0.0,0.0,5.1849,0.0,0.0,0.0,0.0,0.0,0.0,0.0,0.0,0.0,5.6171,5.7081,5.7608,5.7632,5.8473,5.9117,5.9492,5.9992,6.0416,6.0787,6.0373,6.02,6.0242,6.0568,6.0747,6.08,6.0777,6.0763,6.0794,6.0685,6.0667,6.0685,6.0597,6.0558,6.0558,6.0558,6.0512,6.0458,6.0492,6.0301,6.0034,5.9858,0.0,0.0,0.0,5.9237,6.0104,6.2228,6.3837,6.4978,6.5438,6.5528,6.5506,6.553,6.5509,6.5618,6.6085,6.5813,6.5491,6.5491,6.5516,6.5544,6.5544,6.5544,6.5592,6.5681,6.5747,6.5807,6.584,6.5878,6.5904,6.5904,6.5904,6.5904,6.5904,6.5904,6.5904,6.5904,6.5904,6.5904,6.5904,6.5904,6.5904,6.5904,6.6692,6.7782,6.9148,6.9879,7.0456,7.0898,7.0898,7.0898,7.0898,7.0898,7.0898,7.0898,7.0898,7.0898,7.0898,7.0898,7.0898,7.0898,7.0898,7.0898,7.0898,0.0,0.0,0.0,0.0,0.0,0.0,0.0,0.0,0.0,0.0,0.0,0.0,0.0,0.0,0.0,0.0,0.0,0.0,0.0,0.0,0.0,5.7145,5.8048,5.8539,5.8539,5.9373,5.9838,5.9838,6.0473,6.0806,6.0806,6.0806,6.0806,6.08,6.0759,6.0746,6.0806,6.0806,6.0806,6.08,6.0753,6.0735,6.071,6.0655,6.0629,6.0629,6.0629,6.0584,6.0525,6.0525,6.0206,5.9807,5.9692,5.9168,0.0,0.0,0.0,6.0505,6.2683,6.386,6.4612,6.5171,6.5279,6.5291,6.5435,6.544,6.5585,6.6235,6.5853,6.5394,6.5394,6.5447,6.5472,6.5472,6.5472,6.5494,6.5566,6.5667,6.5734,6.5787,6.584,6.5878,6.5897,6.5904,6.5904,6.5904,6.5904,6.5904,6.5904,6.5904,6.5904,6.5904,6.5904,6.5904,6.5904,6.6692,6.7859,6.9379,6.959,7.0129,7.0898,7.0898,7.0898,7.0898,7.0898,7.0898,7.0898,7.0898,7.0898,7.0898,7.0898,7.0898,7.0898,7.0898,7.0898,7.0898,0.0,0.0,0.0,0.0,0.0,0.0,0.0,0.0,0.0,0.0,0.0,0.0,5.3932,5.4027,5.4371,5.5186,0.0,0.0,0.0,0.0,0.0,5.8087,5.8971,0.0,5.9429,6.0281,6.0729,6.0729,6.0787,6.0806,6.0806,6.0806,6.0806,6.0806,6.08,6.08,6.0806,6.0806,6.0806,6.0806,6.08,6.08,6.0794,6.071,6.0691,6.0691,6.0691,6.0661,6.0591,6.0591,6.0277,5.982,5.9369,5.894,5.8532,0.0,0.0,0.0,6.1997,6.2947,6.3779,6.4621,6.4837,6.4924,6.5314,6.5402,6.5413,6.5452,6.5433,6.5394,6.5394,6.5402,6.5402,6.5402,6.5402,6.5432,6.5494,6.5509,6.5585,6.578,6.5793,6.5826,6.5891,6.5904,6.5904,6.5904,6.5904,6.5904,6.5904,6.5904,6.5904,6.5904,6.5904,6.5904,6.5904,6.6692,6.7552,6.8487,6.9321,7.0129,7.0898,7.0898,7.0898,7.0898,7.0898,7.0898,7.0898,7.0898,7.0898,7.0898,7.0898,7.0898,7.0898,7.0898,7.0898,7.0898,0.0,0.0,0.0,0.0,0.0,0.0,0.0,0.0,0.0,0.0,0.0,0.0,0.0,5.4931,5.5083,5.5426,5.545,0.0,0.0,0.0,0.0,5.8996,5.9865,6.0319,6.0319,6.0646,6.0806,6.0806,6.0806,6.0806,6.0806,6.0806,6.0806,6.0806,6.0806,6.0806,6.0806,6.0806,6.0806,6.0806,6.0806,6.0806,6.08,6.0763,6.0752,6.0752,6.0752,6.071,6.0654,6.0654,6.0216,5.9604,5.944,5.9265,5.9172,5.9473,6.0309,6.1347,6.2086,6.2888,6.3638,6.4205,6.4341,6.4398,6.452,6.4575,6.4799,6.5614,6.538,6.5256,6.6082,6.5776,6.5394,6.5394,6.5394,6.5402,6.5432,6.5501,6.558,6.5655,6.5787,6.5872,6.5897,6.5904,6.5904,6.5904,6.5904,6.5904,6.5904,6.5904,6.5904,6.5904,6.5904,6.5904,6.5904,6.6192,6.675,6.7571,6.8449,6.9321,7.0148,7.0667,7.0898,7.0898,7.0898,7.0898,7.0898,7.0898,7.0898,7.0898,7.0898,7.0898,7.0898,7.0898,7.0898,7.0898,0.0,0.0,0.0,0.0,0.0,0.0,0.0,0.0,0.0,5.5396,0.0,0.0,0.0,0.0,5.5456,5.5498,5.5504,5.5898,5.685,5.7728,5.8602,5.9467,6.0319,6.0806,6.0806,6.0512,6.0517,6.0806,6.0517,6.0512,6.0806,6.0806,6.0806,6.0806,6.0806,6.0806,6.0806,6.0806,6.0806,6.0806,6.0806,6.0806,6.0806,6.0806,6.0806,6.0806,6.0806,6.0777,6.0722,6.0703,6.0253,5.9725,5.9856,5.9881,5.9992,6.0662,6.1251,6.1782,6.2318,6.2658,6.3025,6.3729,6.3695,6.3595,6.4,6.4224,6.4577,6.5421,6.5286,6.5267,6.6112,6.5796,6.5394,6.5394,6.5394,6.5394,6.5394,6.5484,6.5544,6.5594,6.5728,6.5827,6.5897,6.5904,6.5904,6.5904,6.5904,6.5904,6.5904,6.5904,6.5904,6.5904,6.5904,6.5904,6.5904,6.5904,6.6308,6.7116,6.7686,6.8571,6.9725,7.0244,7.0648,7.0898,7.0898,7.0898,7.0898,7.0898,7.0898,7.0898,7.0898,7.0898,7.0898,7.0898,7.0898,7.0898,0.0,0.0,0.0,0.0,0.0,0.0,0.0,0.0,5.5402,5.5402,0.0,0.0,0.0,0.0,0.0,5.551,5.551,5.5903,5.6888,5.7734,5.8602,5.9506,0.0,0.0,6.0806,5.9973,5.9954,6.0806,5.9954,5.9973,6.0806,6.0806,6.0806,6.0806,6.0806,6.0806,6.0806,6.0806,6.0806,6.0806,6.0806,6.0806,6.0806,6.0806,6.0806,6.0806,6.0806,6.0806,6.0794,6.0716,6.0455,6.0216,6.065,6.0801,6.0953,6.1625,6.1817,6.1947,0.0,0.0,0.0,6.3143,6.2866,6.2616,6.3758,6.4398,6.4739,6.4766,6.5085,6.5372,6.5387,6.5394,6.5394,6.5402,6.5394,6.5394,6.5394,6.5402,6.5454,6.558,6.5601,6.5682,6.5885,6.5904,6.5904,6.5904,6.5904,6.5904,6.5904,6.5904,6.5904,6.5904,6.5904,6.5904,6.5904,6.5904,6.6288,6.7058,6.7096,6.7994,6.9629,6.9648,7.011,7.086,7.086,7.0879,7.0898,7.0898,7.0898,7.0898,7.0898,7.0898,7.0898,7.0898,7.0898,7.0898,0.0,0.0,0.0,0.0,0.0,0.0,5.5396,5.5432,5.5474,0.0,0.0,0.0,5.5568,5.5613,5.5635,5.5635,5.5635,5.6299,5.781,5.8137,5.8917,6.0377,6.0671,6.0806,6.0806,6.0556,6.0556,6.0806,6.0556,6.0556,6.0806,6.0806,6.0806,6.0806,6.0806,6.0806,6.0806,6.0806,6.0806,6.0806,6.0806,6.0806,6.0806,6.0806,6.0806,6.0806,6.0806,6.0806,6.08,6.0783,6.0911,6.1277,6.2267,6.1986,6.1442,6.2175,6.2168,6.1956,6.2058,0.0,0.0,0.0,0.0,0.0,6.2338,6.2847,6.352,6.4165,6.4379,6.4648,6.5291,6.5394,6.5417,6.5457,6.5432,6.5394,6.5394,6.5472,6.5552,6.5594,6.5735,6.584,6.5897,6.5904,6.5904,6.5904,6.5904,6.5904,6.5904,6.5904,6.5904,6.5904,6.5904,6.5904,6.5904,6.5904,6.6019,6.625,6.6827,6.7346,6.7847,6.8475,6.9218,7.0033,7.0033,7.036,7.0898,7.0898,7.0898,7.0898,7.0898,7.0898,7.0898,7.0898,7.0898,7.0898,0.0,0.0,0.0,0.0,0.0,5.5444,5.5444,5.5498,5.5545,0.0,0.0,0.0,5.5629,5.5687,5.5698,5.5651,5.5997,5.6632,5.7651,5.8375,5.9213,6.0204,6.0614,6.0806,6.0806,6.0435,6.0441,6.0806,6.0441,6.0435,6.0806,6.0806,6.0806,6.0806,6.0806,6.0806,6.0806,6.0806,6.0806,6.0806,6.0806,6.0806,6.0806,6.0806,6.0806,6.0806,6.0806,6.0806,6.0806,6.0806,6.1102,6.1626,6.2335,6.2191,6.1902,6.2471,6.2471,6.2317,6.2377,6.2479,6.254,6.2309,0.0,0.0,6.1806,6.2009,6.2506,6.3523,6.3746,6.4077,6.5084,6.5275,6.5291,6.5326,6.542,6.5472,6.5472,6.5544,6.5608,6.5681,6.5781,6.5872,6.5897,6.5904,6.5904,6.5904,6.5904,6.5904,6.5904,6.5904,6.5904,6.5904,6.5904,6.5904,6.5904,6.5904,6.5904,6.5904,6.6385,6.6789,6.7116,6.7628,6.834,6.9161,6.9161,6.9629,7.0398,7.0398,7.0591,7.0898,7.0898,7.0898,7.0898,7.0898,7.0898,7.0898,0.0,0.0,5.5432,5.5492,5.551,5.5516,5.5516,5.5568,5.5646,0.0,5.5882,5.5997,5.5997,5.5997,5.5956,5.5901,5.6612,5.7092,5.7188,5.8584,5.9473,5.9646,6.0396,6.0806,6.0806,6.0031,6.0012,6.0806,6.0012,6.0031,6.0806,6.0806,6.0806,6.0806,6.0806,6.0806,6.0806,6.0806,6.0806,6.0806,6.0806,6.0806,6.0806,6.0806,6.0806,6.0806,6.0806,6.0806,6.0806,6.0921,6.1211,6.1583,6.1678,6.1896,6.2176,6.2485,6.2514,6.2519,6.2798,6.2385,6.2036,6.2659,6.1791,0.0,6.1595,6.1537,6.1652,6.2758,6.305,6.3406,6.4542,6.4733,6.4733,6.475,6.5123,6.5451,6.5575,6.5608,6.5674,6.5787,6.5819,6.5833,6.5897,6.5904,6.5904,6.5904,6.5904,6.5904,6.5904,6.5904,6.5904,6.5904,6.5904,6.5904,6.5904,6.5904,6.5904,6.5904,6.5904,6.6269,6.6981,6.6981,6.7436,6.8257,6.8257,6.8757,6.9571,6.9667,7.0167,7.0898,7.0898,7.0898,7.0898,7.0898,7.0898,7.0898,0.0,5.5444,5.5486,5.5498,5.5545,5.5579,5.5579,5.5629,5.5923,5.6635,5.7352,5.78,5.78,5.78,5.7794,5.7764,5.7937,5.8302,5.8956,5.9302,5.9808,6.0512,6.0704,6.0806,6.0806,6.0633,6.0633,6.0806,6.0633,6.0633,6.0806,6.0806,6.0806,6.0806,6.0806,6.0806,6.0806,6.0806,6.0806,6.0806,6.0806,6.0806,6.0806,6.0806,6.0806,6.0806,6.0806,6.0806,6.0921,6.1614,6.1905,6.2093,6.2733,6.2339,6.1643,6.1713,6.1339,6.0931,6.0874,6.1029,6.1048,6.0458,6.0542,0.0,6.0184,6.0511,6.1081,6.1632,6.1681,6.1799,6.2409,6.2437,6.2418,6.258,6.3473,6.4497,6.5451,6.5694,6.5773,6.5793,6.5846,6.5885,6.5897,6.5904,6.5904,6.5904,6.5904,6.5904,6.5904,6.5904,6.5904,6.5904,6.5904,6.5904,6.5904,6.5904,6.5904,6.5904,6.5904,6.5981,6.6134,6.6134,6.6577,6.734,6.734,6.7859,6.8718,6.9411,7.0167,7.0898,7.0898,7.0898,7.0898,7.0898,7.0898,7.0898,5.5438,5.548,5.5522,5.5585,5.5624,5.58,5.6223,5.6327,5.6651,5.753,5.803,5.8294,5.8294,5.8294,5.8294,5.8294,5.8665,5.9069,5.9473,5.9915,6.0339,6.0787,6.0806,6.0806,6.0806,6.0806,6.0806,6.0806,6.0806,6.0806,6.0806,6.0806,6.0806,6.0806,6.0806,6.0806,6.0806,6.0806,6.0806,6.0806,6.0806,6.0806,6.0806,6.0806,6.0806,6.0806,6.0806,6.0806,6.0864,6.1306,6.1441,6.1518,6.1935,6.1639,6.1191,6.1425,6.1142,6.0815,6.1157,6.1185,6.1032,6.071,6.0508,0.0,0.0,5.9759,5.9993,6.0803,6.0737,6.0816,6.1657,6.1742,6.1723,6.1826,6.2679,6.3508,6.4121,6.5138,6.5846,6.5846,6.5878,6.5904,6.5904,6.5904,6.5904,6.5904,6.5904,6.5904,6.5904,6.5904,6.5904,6.5904,6.5904,6.5904,6.5904,6.5904,6.5904,6.5904,6.5904,6.5904,6.5904,6.5904,6.6115,6.65,6.65,6.6974,6.7782,6.8225,6.8898,6.9744,7.0571,7.0898,7.0898,7.0898,7.0898,7.0898,5.5614,5.5545,5.5556,5.5687,5.5708,5.5997,5.6863,5.7003,5.7363,5.8396,5.855,5.8556,5.8531,5.8416,5.8325,5.83,5.8896,5.9338,5.9492,6.0165,6.0614,6.0787,6.0806,6.0806,6.0806,6.0806,6.0806,6.0806,6.0806,6.0806,6.0806,6.0806,6.0806,6.0806,6.0806,6.0806,6.0806,6.0806,6.0806,6.0806,6.0806,6.0806,6.0806,6.0806,6.0806,6.0806,6.0806,6.0806,6.0806,6.0806,6.0806,6.0806,6.0806,6.0806,6.0874,6.1253,6.1134,6.101,6.1657,6.1384,6.0981,6.1175,6.0481,5.9758,0.0,0.0,0.0,5.9954,5.9865,5.9934,6.0898,6.106,6.1078,6.1079,6.1773,6.233,6.2338,6.4063,6.5327,6.5391,6.5397,6.5474,6.5628,6.5807,6.5904,6.5904,6.5904,6.5904,6.5904,6.5904,6.5904,6.5904,6.5904,6.5904,6.5904,6.5904,6.5904,6.5904,6.5904,6.5904,6.5904,6.5904,6.5904,6.5904,6.5904,6.6269,6.6885,6.7039,6.7513,6.8314,7.0014,7.0667,7.0687,7.0841,7.0898,7.0898,5.6068,5.5675,5.5607,5.5698,5.5708,5.5997,5.6863,5.7003,5.7574,5.9165,5.9468,5.9495,5.938,5.8837,5.8433,5.8311,5.8377,5.8742,5.9454,5.9588,5.9992,6.0768,6.0806,6.0806,6.0806,6.0806,6.0806,6.0806,6.0806,6.0806,6.0806,6.0806,6.0806,6.0806,6.0806,6.0806,6.0806,6.0806,6.0806,6.0806,6.0806,6.0806,6.0806,6.0806,6.0806,6.0806,6.0806,6.0806,6.0806,6.0806,6.0806,6.0806,6.0806,6.0806,6.0814,6.0861,6.0642,6.0397,6.0485,6.025,5.9882,5.9561,5.9375,5.9195,5.8911,0.0,5.8745,5.8872,0.0,5.8709,5.8837,0.0,0.0,5.8855,5.9827,6.0623,6.0744,6.214,6.3258,6.3558,6.3602,6.3891,6.4666,6.5455,6.5904,6.5904,6.5904,6.5904,6.5904,6.5904,6.5904,6.5904,6.5904,6.5904,6.5904,6.5904,6.5904,6.5904,6.5904,6.5904,6.5904,6.5904,6.5904,6.5904,6.5904,6.5961,6.6096,6.6808,6.7154,6.7417,6.9167,6.984,6.9917,7.0648,7.0898,7.0898,5.7412,5.7145,5.713,5.7192,5.7203,5.7492,5.8319,5.8882,5.9459,6.0165,6.0308,6.0311,6.0254,6.0,5.981,5.9754,5.9742,5.9896,6.0223,6.0242,6.0416,6.0787,6.0806,6.0806,6.0806,6.0806,6.0806,6.0806,6.0806,6.0806,6.0806,6.0806,6.0806,6.0806,6.0806,6.0806,6.0806,6.0806,6.0806,6.0806,6.0806,6.0806,6.0806,6.0806,6.0806,6.0806,6.0806,6.0806,6.0806,6.0806,6.0806,6.0806,6.0806,6.0806,6.0806,6.0806,6.0559,6.0335,6.054,6.0208,5.9807,5.9825,5.9679,5.945,5.9083,5.8986,5.8918,5.8739,0.0,0.0,0.0,0.0,0.0,0.0,5.9207,5.9684,5.975,6.0676,6.1764,6.2877,6.3182,6.3641,6.4532,6.4936,6.5359,6.5865,6.5904,6.5904,6.5904,6.5904,6.5904,6.5904,6.5904,6.5904,6.5904,6.5904,6.5904,6.5904,6.5904,6.5904,6.5904,6.5904,6.5904,6.5904,6.5904,6.5904,6.5923,6.6269,6.6404,6.6519,6.7731,6.8494,6.9045,6.9898,7.0206,7.0264,5.9036,5.8527,5.8229,5.8338,5.8325,5.8563,5.9377,6.0242,6.081,6.0853,6.0647,6.0512,6.0517,6.0359,6.0215,6.0176,6.017,6.0267,6.0517,6.0475,6.055,6.0787,6.0806,6.0806,6.0806,6.0806,6.0806,6.0806,6.0806,6.0806,6.0806,6.0806,6.0806,6.0806,6.0806,6.0806,6.0806,6.0806,6.0806,6.0806,6.0806,6.0941,6.1152,6.1152,6.1152,6.1191,6.1416,6.1493,6.1493,6.1493,6.1339,6.1152,6.1152,6.0998,6.0806,6.0806,6.0635,6.0482,6.0734,6.0442,6.0102,6.0265,6.0128,5.9847,5.944,5.9351,5.9289,5.9054,5.8915,0.0,0.0,0.0,5.8498,5.8498,0.0,5.875,5.8966,5.9539,6.0485,6.1944,6.2618,6.3224,6.3839,6.4339,6.4859,6.5493,6.5763,6.5904,6.5904,6.5904,6.5904,6.5904,6.5904,6.5904,6.5904,6.5904,6.5904,6.5904,6.5904,6.5904,6.5904,6.5904,6.5904,6.5904,6.5904,6.5904,6.5904,6.5904,6.5904,6.5961,6.6538,6.7167,6.7853,6.893,6.9494,6.9783,6.0765,5.9363,5.8267,5.8451,5.8397,5.8563,5.9377,6.0242,6.0847,6.0983,6.0268,5.9765,5.9813,5.9192,5.8722,5.8587,5.8569,5.8932,5.9774,5.9658,5.9915,6.0768,6.0806,6.0806,6.0806,6.0806,6.0806,6.0806,6.0806,6.0806,6.0806,6.0806,0.0,0.0,6.0806,6.0806,6.0806,6.0806,6.0806,6.0806,6.0806,6.1306,6.2062,6.2062,6.2062,6.2153,6.2935,6.3218,6.3218,6.3218,6.2704,6.2062,6.2062,6.1479,6.0806,6.0806,6.08,6.0794,6.08,6.0769,6.0684,6.0388,6.0293,6.0201,5.9855,5.9774,5.9774,5.9758,5.9459,5.9187,5.9187,5.8549,5.8025,5.8025,5.7601,0.0,0.0,5.8819,5.937,6.0274,6.1416,6.2153,6.2172,6.3647,6.4609,6.4647,6.5416,6.5904,6.5904,6.5904,6.5904,6.5904,6.5904,6.5904,6.5904,6.5904,6.5904,6.5904,6.5904,6.5904,6.5904,6.5904,6.5904,6.5904,6.5904,6.5904,6.5904,6.5904,6.5904,6.5904,6.5923,6.5961,6.6186,6.7833,6.8968,6.9706,6.0923,6.0396,5.994,6.0002,5.9972,6.005,6.0319,6.1177,6.1592,6.107,6.1326,6.1341,6.0798,6.0498,6.0333,6.0286,6.0282,6.0367,6.0581,6.0529,6.0582,6.0793,6.0806,6.0806,6.0806,6.0806,6.0806,6.0806,6.0806,6.0806,6.0806,6.0806,6.0806,0.0,6.0806,6.0806,6.0806,6.0806,6.0806,6.0845,6.1422,6.1499,6.1306,6.1883,6.2422,6.2935,6.3198,6.3295,6.3295,6.3295,6.3121,6.2801,6.2268,6.1903,6.1556,6.0979,6.0806,6.0806,6.0806,6.0806,6.0763,6.066,6.0635,6.0546,6.0216,6.0124,6.0064,5.9858,5.97,5.9588,5.9588,5.8891,5.8327,5.8327,5.77,5.7291,0.0,5.842,5.9189,5.9708,6.0638,6.146,6.2037,6.2614,6.3172,6.3698,6.4551,6.5032,6.5032,6.559,6.5904,6.5904,6.5904,6.5904,6.5904,6.5904,6.5904,6.5904,6.5904,6.5904,6.5904,6.5904,6.5904,6.5904,6.5904,6.5904,6.5904,6.5904,6.5904,6.5904,6.5904,6.5904,6.6038,6.7128,6.809,6.9007,6.0918,6.085,6.081,6.0856,6.1094,6.1152,6.0845,6.1646,6.2002,6.1174,6.1632,6.1852,6.1356,6.1301,6.1301,6.1301,6.1301,6.1242,6.1074,6.1039,6.0943,6.0812,6.0806,6.0806,6.0806,6.0806,6.0806,6.0806,6.0806,6.0806,6.0806,6.0806,6.0806,6.0806,6.0806,6.0806,6.0806,6.0806,6.0806,6.0883,6.1749,6.2114,6.2204,6.2787,6.3128,6.3372,6.4006,6.4224,6.4224,6.4224,6.4025,6.366,6.3147,6.2576,6.1979,6.1422,6.1037,6.0806,6.0806,6.0806,6.0806,6.0806,6.0806,6.074,6.0533,6.0469,6.0415,6.0208,6.0057,5.9973,5.9973,5.9281,5.8677,5.8677,5.8081,5.7594,0.0,5.8518,5.9262,5.9469,6.0262,6.1018,6.1575,6.1922,6.2306,6.2839,6.3955,6.4609,6.4609,6.5436,6.5904,6.5904,6.5904,6.5904,6.5904,6.5904,6.5904,6.5904,6.5904,6.5904,6.5904,6.5904,6.5904,6.5904,6.5904,6.5904,6.5904,6.5904,6.5904,6.5904,6.5904,6.5904,6.5961,6.6481,6.7417,6.8603,6.0922,6.087,6.0894,6.1027,6.1626,6.1806,6.0941,6.1666,6.2047,6.1304,6.1242,6.1359,6.1488,6.1517,6.1517,6.1517,6.1517,6.1412,6.122,6.1079,6.0958,6.0812,6.0806,6.0806,6.0806,6.0806,6.0806,6.0806,6.0806,6.0806,6.0806,6.0806,6.0806,6.0806,6.0806,6.0806,6.0806,6.0806,6.0825,6.0941,6.1864,6.3153,6.4551,6.4628,6.4122,6.3583,6.5282,6.5904,6.5904,6.5904,6.5359,6.4666,6.4609,6.3518,6.221,6.2172,6.1537,6.0864,6.0864,6.0819,6.0806,6.0806,6.0806,6.0806,6.0806,6.0806,6.0806,6.0806,6.0546,6.0321,6.0321,5.96,5.902,5.902,5.8615,5.8294,5.8294,5.8986,5.9492,5.9492,6.0262,6.0806,6.0806,6.1556,6.2037,6.2037,6.3551,6.4493,6.4532,6.5359,6.5865,6.5904,6.5904,6.5904,6.5904,6.5904,6.5904,6.5904,6.5904,6.5904,6.5904,6.5904,6.5904,6.5904,6.5904,6.5904,6.5904,6.5904,6.5904,6.5904,6.5904,6.5904,6.5904,6.5936,6.6994,6.8526,6.178,6.183,6.1772,6.181,6.1963,6.1806,6.0941,6.1742,6.2156,6.1299,6.198,6.2304,6.1715,6.1658,6.1658,6.1658,6.1658,6.1523,6.1226,6.117,6.1051,6.0804,6.0806,6.0806,6.0806,6.0806,6.0806,6.0806,6.0806,6.0806,6.0806,6.0806,6.0806,6.0806,6.0806,6.0806,6.0806,6.0806,6.1172,6.1883,6.3358,6.3839,6.3775,6.507,6.5032,6.4416,6.5513,6.5904,6.5904,6.5904,6.5743,6.5455,6.4801,6.4301,6.382,6.3185,6.2416,6.1768,6.1768,6.1287,6.0806,6.0806,6.0806,6.0806,6.0806,6.0806,6.0806,6.0806,6.0734,6.0666,6.0666,5.9949,5.9373,5.9373,5.8773,5.8294,5.8294,5.8986,5.9492,5.9492,6.0262,6.0806,6.0806,6.0998,6.1133,6.1133,6.2133,6.2999,6.3602,6.4455,6.5224,6.5878,6.5904,6.5904,6.5904,6.5904,6.5904,6.5904,6.5904,6.5904,6.5904,6.5904,6.5904,6.5904,6.5904,6.5904,6.5904,6.5904,6.5904,6.5904,6.5904,6.5904,6.5981,6.6577,6.7475,6.8526,6.2699,6.2742,6.2383,6.1652,6.1893,6.1882,6.1015,6.207,6.2695,6.1871,6.2366,6.2595,6.2106,6.1701,6.1523,6.1598,6.153,6.1402,6.12,6.1143,6.101,6.0804,6.0806,6.0806,6.0806,6.0806,6.0806,6.0806,6.0806,6.0806,6.0806,6.0806,6.0806,6.0806,6.0806,6.0806,6.0825,6.121,6.1845,6.2743,6.407,6.4532,0.0,6.5532,6.559,6.5224,6.5724,6.5904,6.5904,6.5904,6.5904,6.5801,6.532,6.4916,6.4493,6.4006,6.3281,6.2557,6.2191,6.1729,6.1287,6.0902,6.0806,6.0806,6.0806,6.0806,6.0806,6.0806,6.0806,6.0806,6.0806,6.0396,6.0069,6.0069,5.9377,5.8813,5.8813,5.9204,5.9492,5.9492,6.0262,6.0806,6.0806,6.0806,6.0806,6.0806,6.1614,6.2306,6.2743,6.3935,6.482,6.532,6.5705,6.5904,6.5904,6.5904,6.5904,6.5904,6.5904,6.5904,6.5904,6.5904,6.5904,6.5904,6.5904,6.5904,6.5904,6.5904,6.5904,6.5904,6.5904,6.5904,6.5961,6.6404,6.7109,6.7955,6.3429,6.3342,6.2718,6.1358,6.1688,6.1916,6.1281,6.2389,6.3059,6.2389,6.2326,6.2321,6.2321,6.1649,6.1279,6.1444,6.1313,6.122,6.1181,6.1079,6.0954,6.0818,6.0806,6.0806,6.0806,6.0806,6.0806,6.0806,6.0806,6.0806,6.0806,6.0806,6.0806,6.0806,6.0806,6.0864,6.1037,6.1883,6.2724,6.3545,6.4416,6.5224,6.5904,6.5904,6.5904,6.5904,6.5904,6.5904,6.5904,6.5904,6.5904,6.5904,6.5904,6.5378,6.4762,6.4762,6.4141,6.3314,6.2614,6.2268,6.1922,6.1152,6.0883,6.0806,6.0806,6.0806,6.0806,6.0806,6.0806,6.0806,6.0806,6.0806,6.0806,6.0806,6.0165,5.9665,5.9665,5.9665,5.9665,5.9665,6.0339,0.0,6.0806,6.0806,6.0806,6.0806,6.1499,6.1979,6.2095,6.3474,6.4378,6.4589,6.532,6.5788,6.5904,6.5904,6.5904,6.5904,6.5904,6.5904,6.5904,6.5904,6.5904,6.5904,6.5904,6.5904,6.5904,6.5904,6.5904,6.5904,6.5904,6.5904,6.5904,6.5904,6.6346,6.7071,6.3215,6.2798,6.2441,6.2801,6.1953,6.1459,6.2125,6.1896,6.1535,6.1298,6.1357,6.1439,6.1439,6.1287,6.122,6.1243,6.1362,6.134,6.1051,6.1128,6.1064,6.0804,6.0806,6.0806,6.0806,6.0806,6.0806,6.0806,6.0806,6.0806,6.0806,6.0806,6.0806,6.0806,6.0806,6.121,6.1922,6.2743,6.3589,6.4455,6.532,6.5763,6.5904,6.5904,6.5904,6.5904,6.5904,6.5904,6.5904,6.5904,6.5904,6.5904,6.5904,6.5807,6.5673,6.5673,6.5051,6.4339,6.4205,6.3153,6.2062,6.1903,6.1325,6.0806,6.0806,6.0806,6.0806,6.0806,6.0806,6.0806,6.0806,6.0806,6.0806,6.0806,6.0671,6.0575,6.0575,6.0575,6.0575,6.0575,6.0704,6.0806,6.0806,6.0806,6.0806,6.0806,6.0941,6.1345,6.2062,6.2383,6.3172,6.457,6.4743,6.5166,6.5878,6.5904,6.5904,6.5904,6.5904,6.5904,6.5904,6.5904,6.5904,6.5904,6.5904,6.5904,6.5904,6.5904,6.5904,6.5904,6.5904,6.5904,6.5904,6.5904,6.6,6.632,6.4016,6.3666,6.3266,6.2847,6.2215,6.1787,6.1809,6.1561,6.146,6.1744,6.1778,6.174,6.166,6.1263,6.1015,6.1091,6.1115,6.1092,6.1007,6.0997,6.0924,6.0812,6.0806,6.0806,6.0806,6.0806,6.0806,6.0806,6.0806,6.0806,6.0806,6.0806,6.0806,6.0825,6.1268,6.171,6.2172,6.3435,6.4224,6.4686,6.5551,6.5904,6.5904,6.5904,6.5904,6.5904,6.5904,6.5904,6.5904,6.5904,6.5904,6.5904,6.5904,6.5904,6.5904,6.5904,6.559,6.5186,6.4724,6.4012,6.3191,6.2326,6.1787,6.1364,6.0902,6.0806,6.0806,6.0806,6.0806,6.0806,6.0806,6.0806,6.0806,6.0806,6.0806,6.0806,6.0806,6.0806,6.0806,6.0806,6.0806,6.0806,6.0806,6.0806,6.0806,6.0806,6.0806,6.0979,6.1402,6.1845,6.246,6.3288,6.4147,6.4801,6.5224,6.5667,6.5904,6.5904,6.5904,6.5904,6.5904,6.5904,6.5904,6.5904,6.5904,6.5904,6.5904,6.5904,6.5904,6.5904,6.5904,6.5904,6.5904,6.5941,6.5954,6.6185,6.4525,6.4245,6.3742,6.2549,6.2304,6.2118,6.1603,6.1512,6.1665,6.2168,6.2101,6.1978,6.1885,6.122,6.0842,6.0958,6.1053,6.1147,6.1234,6.1337,6.1378,6.1325,6.1339,6.1339,6.1339,6.1152,6.1075,6.1075,6.0883,6.0806,6.0806,6.0806,6.0902,6.1114,6.1787,6.2306,6.271,6.4032,6.4705,6.4936,6.5609,6.5904,6.5904,6.5904,6.5904,6.5904,6.5904,6.5904,6.5904,6.5904,6.5904,6.5904,6.5904,6.5904,6.5904,6.5904,6.5904,6.5743,6.5051,6.4743,6.4282,6.2961,6.2364,6.1922,6.1229,6.0941,6.0806,6.0806,6.0806,6.0806,6.0806,6.0806,6.0806,6.0806,6.0806,6.0806,6.0806,6.0806,6.0806,6.0806,6.0806,6.0806,6.0806,6.0806,6.0806,6.0806,6.0806,6.0806,6.0806,6.1441,6.1903,6.2095,6.3551,6.4416,6.4609,6.5455,6.5904,6.5904,6.5904,6.5904,6.5904,6.5904,6.5904,6.5904,6.5904,6.5904,6.5904,6.5904,6.5904,6.5904,6.5904,6.591,6.5929,6.5984,6.5995,6.6213,6.3678,6.3051,6.252,6.2482,6.1994,6.1805,6.2462,6.1968,6.1453,6.1343,6.1195,6.1128,6.1109,6.0911,6.0812,6.0816,6.1646,6.2116,6.2007,6.2843,6.3254,6.3076,6.3064,6.3064,6.3064,6.2345,6.1979,6.1979,6.1191,6.0806,6.0806,6.0806,6.1229,6.1979,6.2062,6.2941,6.4378,6.4532,6.5051,6.5788,6.5865,6.5904,6.5904,6.5904,6.5904,6.5904,6.5904,6.5904,6.5904,6.5904,6.5904,6.5904,6.5904,6.5904,6.5904,6.5904,6.5904,6.5878,6.5807,6.5205,6.457,6.4416,6.323,6.2076,6.1999,6.1364,6.0806,6.0806,6.0806,6.0806,6.0806,6.0806,6.0806,6.0806,6.0806,6.0806,6.0806,6.0806,6.0806,6.0806,6.0806,6.0806,6.0806,6.0806,6.0806,6.0806,6.0806,6.0806,6.0806,6.0883,6.1287,6.2076,6.2954,6.3795,6.4589,6.5455,6.5904,6.5904,6.5904,6.5904,6.5904,6.5904,6.5904,6.5904,6.5904,6.5904,6.5904,6.5904,6.5904,6.5904,6.5904,6.5941,6.5996,6.6002,6.5993,6.6142,6.4176,6.4334,6.4188,6.3316,6.2947,6.2544,6.1898,6.1524,6.1292,6.1216,6.1083,6.0997,6.0997,6.1418,6.17,6.1704,6.2544,6.3006,6.2838,6.3197,6.3382,6.3301,6.3295,6.3295,6.3295,6.2974,6.282,6.282,6.2474,6.205,6.1595,6.207,6.2493,6.2839,6.3358,6.3974,6.4628,6.5166,6.557,6.5904,6.5904,6.5904,6.5904,6.5904,6.5904,6.5904,6.5904,6.5904,6.5904,6.5904,6.5904,6.5904,6.5904,6.5904,6.5904,6.5904,6.5904,6.5904,6.5904,6.5647,6.5243,6.4724,6.4109,6.3345,6.2326,6.1826,6.1422,6.0921,6.0806,6.0806,6.0806,6.0806,6.0806,6.0806,6.0806,6.0806,6.0806,6.0806,6.0806,6.0806,6.0806,6.0806,6.0806,6.0806,6.0806,6.0806,6.0806,6.0806,6.0806,6.0806,6.096,6.1306,6.2127,6.2974,6.3814,6.4686,6.5378,6.5904,6.5904,6.5904,6.5904,6.5904,6.5904,6.5904,6.5904,6.5904,6.5904,6.5904,6.5923,6.5966,6.5966,6.5983,6.5998,6.6057,6.6066,6.6185,6.47,6.5141,6.5178,6.3884,6.3669,6.3288,6.2136,6.1923,6.1912,6.1912,6.177,6.1606,6.1399,6.2114,6.26,6.2585,6.3387,6.3825,6.3691,6.391,6.4064,6.4064,6.4064,6.4064,6.4064,6.3814,6.3679,6.3679,6.3429,6.3006,6.248,6.3031,6.3448,6.3718,6.4339,6.4743,6.5013,6.5628,6.5904,6.5904,6.5904,6.5904,6.5904,6.5904,6.5904,6.5904,6.5904,6.5904,6.5904,6.5904,6.5904,6.5904,6.5904,6.5904,6.5904,6.5904,6.5904,6.5904,6.5904,6.5904,6.5743,6.5147,6.4782,6.4224,6.2787,6.2268,6.1845,6.0979,6.0806,6.0806,6.0806,6.0806,6.0806,6.0806,6.0806,6.0806,6.0806,6.0806,6.0806,6.0806,6.0806,6.0806,6.0806,6.0806,6.0806,6.0806,6.0806,6.0806,6.0806,6.0806,6.0806,6.0806,6.1652,6.2499,6.3295,6.4166,6.5032,6.5904,6.5904,6.5904,6.5904,6.5904,6.5904,6.5904,6.5904,6.5904,6.5904,6.5923,6.596,6.6002,6.6001,6.6003,6.6041,6.6085,6.6107,6.6225,6.495,6.4816,6.4604,6.3911,6.3806,6.3786,6.3767,6.3671,6.3569,6.3569,6.3395,6.303,6.2365,6.2888,6.3301,6.3301,6.407,6.4589,6.4589,6.5397,6.5859,6.5859,6.5859,6.5859,6.5859,6.5013,6.4589,6.4589,6.3718,6.3295,6.3295,6.3295,6.3756,6.4589,6.4609,6.507,6.5878,6.5904,6.5904,6.5904,6.5904,6.5904,6.5904,6.5904,6.5904,6.5904,6.5904,6.5904,6.5904,6.5904,6.5904,6.5904,6.5904,6.5904,6.5904,6.5904,6.5904,6.5904,6.5904,6.5904,6.5904,6.5878,6.5243,6.4378,6.3487,6.2666,6.1845,6.0979,6.0806,6.0806,6.0806,6.0806,6.0806,6.0806,6.0806,6.0806,6.0806,6.0806,6.0806,6.0806,6.0806,6.0806,6.0806,6.0806,6.0806,6.0806,6.0806,6.0806,6.0806,6.0806,6.0806,6.0806,6.1652,6.2499,6.3295,6.4166,6.5032,6.5904,6.5904,6.5904,6.5904,6.5904,6.5904,6.5904,6.5904,6.5904,6.5904,6.5972,6.6002,6.6008,6.6003,6.6041,6.6096,6.6096,6.6134,6.6205,6.4711,6.5134,6.5311,6.4492,6.4348,6.4155,6.3557,6.342,6.3394,6.3394,6.3869,6.4101,6.3889,6.4133,6.4317,6.4312,6.5128,6.5583,6.5487,6.5743,6.5904,6.5904,6.5904,6.5904,6.5904,6.5628,6.5493,6.5493,6.5205,6.507,6.5051,6.4455,6.4647,6.5493,6.5493,6.5628,6.5904,6.5904,6.5904,6.5904,6.5904,6.5904,6.5904,6.5904,6.5904,6.5904,6.5904,6.5904,6.5904,6.5904,6.5904,6.5904,6.5904,6.5904,6.5904,6.5904,6.5904,6.5904,6.5904,6.5904,6.5904,6.5904,6.5686,6.5263,6.4378,6.3089,6.1845,6.0979,6.0806,6.0806,6.0806,6.0806,6.0806,6.0806,6.0806,6.0806,6.0806,6.0806,6.0806,6.0806,6.0806,6.0806,6.0806,6.0806,6.0806,6.0806,6.0806,6.0806,6.0806,6.0806,6.0806,6.0806,6.1075,0.0,6.248,6.3301,6.4141,6.5013,6.5609,6.5904,6.5904,6.5904,6.5904,6.5904,6.5954,6.5972,6.5978,6.5993,6.6027,6.6066,6.6063,6.6107,6.6179,6.6179,6.617,6.6205,6.5089,6.5532,6.5731,6.5186,6.5089,6.4897,6.4359,6.4282,6.4282,6.4282,6.4743,6.5089,6.5089,6.5157,6.5203,6.5217,6.5705,6.5996,6.591,6.5904,6.5904,6.5904,6.5904,6.5904,6.5904,6.5904,6.5904,6.5904,6.5904,6.5904,6.5878,6.534,6.5378,6.5904,6.5904,6.5904,6.5904,6.5904,6.5904,6.5904,6.5904,6.5904,6.5904,6.5904,6.5904,6.5904,6.5904,6.5904,6.5904,6.5904,6.5904,6.5904,6.5904,6.5904,6.5904,6.5904,6.5904,6.5904,6.5904,6.5904,6.5904,6.5904,6.5904,6.559,6.4397,6.3076,6.1845,6.0979,6.0806,6.0806,6.0806,6.0806,6.0806,6.0806,6.0806,6.0806,6.0806,6.0806,6.0806,6.0806,6.0847,6.0864,6.0793,6.0847,6.0845,6.0793,6.0806,6.0806,6.0806,6.0806,6.0806,6.0806,6.0806,6.1229,6.2095,6.2897,6.3737,6.4609,6.5474,6.5904,6.5904,6.5904,6.5916,6.5941,6.5984,6.5995,6.5999,6.6038,6.6063,6.6102,6.6123,6.6155,6.6205,6.6205,6.6205,6.6205,6.5904,6.5904,6.5904,6.5904,6.5904,6.5904,6.5904,6.5904,6.5904,6.5904,6.5904,6.5904,6.5904,6.5904,6.5904,6.5904,6.5904,6.5904,6.5904,6.5904,6.5904,6.5904,6.5904,6.5904,6.5904,6.5904,6.5904,6.5904,6.5904,6.5904,6.5904,6.5904,6.5904,6.5904,6.5904,6.5904,6.5904,6.5904,6.5904,6.5904,6.5904,6.5904,6.5904,6.5904,6.5904,6.5904,6.5904,6.5904,6.5904,6.5904,6.5904,6.5904,6.5904,6.5904,6.5904,6.5904,6.5904,6.5904,6.5904,6.5904,6.5904,6.5904,6.5904,6.5436,6.3698,6.2724,6.1922,6.0998,6.0806,6.0806,6.0806,6.0806,6.0806,6.0806,6.0806,6.0806,6.0806,6.0806,6.0806,6.0806,6.0917,6.0943,6.0804,6.0902,6.0938,6.0804,6.0806,6.0806,6.0806,6.0806,6.0806,6.0806,6.0806,6.1191,6.1999,6.282,6.3679,6.4609,6.5474,6.5904,6.591,6.591,6.5947,6.5989,6.5995,6.6005,6.6019,6.608,6.6107,6.6112,6.6184,6.6205,6.6205,6.6205,6.6205,6.6205,6.5904,6.5904,6.5904,6.5904,6.5904,6.5904,6.5904,6.5904,6.5904,6.5904,6.5904,6.5904,6.5904,6.5904,6.5904,6.5904,6.5904,6.5904,6.5904,6.5904,6.5904,6.5904,6.5904,6.5904,6.5904,6.5904,6.5904,6.5904,6.5904,6.5904,6.5904,6.5904,6.5904,6.5904,6.5904,6.5904,6.5904,6.5904,6.5904,6.5904,6.5904,6.5904,6.5904,6.5904,6.5904,6.5904,6.5904,6.5904,6.5904,6.5904,6.5904,6.5904,6.5904,6.5904,6.5904,6.5904,6.5904,6.5904,6.5904,6.5904,6.5904,6.5904,6.5904,6.5436,6.3698,6.3141,6.2589,6.1108,6.0806,6.0806,6.0806,6.0806,6.0806,6.0806,6.0806,6.0806,6.0806,6.0806,6.0806,6.0806,6.0833,6.0831,6.0806,6.0839,6.0825,6.0806,6.0806,6.0806,6.0806,6.0806,6.0806,6.0806,6.0806,6.0902,6.1114,6.196,6.3128,6.4609,6.5474,6.5929,6.5978,6.5978,6.597,6.6009,6.606,6.6083,6.608,6.6144,6.6184,6.6184,6.618,6.6205,6.6205,6.6205,6.6205,6.6205,6.5904,6.5904,6.5904,6.5904,6.5904,6.5904,6.5904,6.5904,6.5904,6.5904,6.5904,6.5904,6.5904,6.5904,6.5904,6.5904,6.5904,6.5904,6.5904,6.5904,6.5904,6.5904,6.5904,6.5904,6.5904,6.5904,6.5904,6.5904,6.5904,6.5904,6.5904,6.5904,6.5904,6.5904,6.5904,6.5904,6.5904,6.5904,6.5904,6.5904,6.5904,6.5904,6.5904,6.5904,6.5904,6.5904,6.5904,6.5904,6.5904,6.5904,6.5904,6.5904,6.5904,6.5904,6.5904,6.5904,6.5904,6.5904,6.5904,6.5904,6.5904,6.5904,6.5904,6.5436,6.3698,6.3295,6.2814,6.1146,6.0806,6.0806,6.0806,6.0806,6.0806,6.0806,6.0806,6.0806,6.0806,6.0806,6.0806,6.0806,6.0845,6.0867,6.0812,6.0864,6.0861,6.0793,6.0806,6.0806,6.0806,6.0806,6.0806,6.0806,6.0806,6.0806,6.0806,6.1652,6.2941,6.4609,6.507,6.555,6.6002,6.6002,6.6011,6.6052,6.6085,6.6112,6.6144,6.6175,6.6205,6.6205,6.6205,6.6205,6.6205,6.6205,6.6205,6.6205,6.5904,6.5904,6.5904,6.5904,6.5904,6.5904,6.5904,6.5904,6.5904,6.5904,6.5904,6.5904,6.5904,6.5904,6.5904,6.5904,6.5904,6.5904,6.5904,6.5904,6.5904,6.5904,6.5904,6.5904,6.5904,6.5904,6.5904,6.5904,6.5904,6.5904,6.5904,6.5904,6.5904,6.5904,6.5904,6.5904,6.5904,6.5904,6.5904,6.5904,6.5904,6.5904,6.5904,6.5904,6.5904,6.5904,6.5904,6.5904,6.5904,6.5904,6.5904,6.5904,6.5904,6.5904,6.5904,6.5904,6.5904,6.5904,6.5904,6.5904,6.5904,6.5904,6.5904,6.5436,6.3698,6.3295,6.2814,6.1146,6.0806,6.0806,6.0806,6.0806,6.0806,6.0806,6.0806,6.0806,6.0806,6.0806,6.0806,6.0806,6.0901,6.0923,6.0804,6.0906,6.0918,6.0818,6.0806,6.0806,6.0818,6.0812,6.0812,6.0829,6.0823,6.0818,6.0818,6.1678,6.2813,6.4236,6.4486,6.503,6.5839,6.5955,6.6052,6.6112,6.6112,6.6139,6.6205,6.6205,6.6205,6.6205,6.6205,6.6205,6.6205,6.6205,6.6205,6.6205,6.5904,6.5904,6.5904,6.5904,6.5904,6.5904,6.5904,6.5904,6.5904,6.5904,6.5904,6.5904,6.5904,6.5904,6.5904,6.5904,6.5904,6.5904,6.5904,6.5904,6.5904,6.5904,6.5904,6.5904,6.5904,6.5904,6.5904,6.5904,6.5904,6.5904,6.5904,6.5904,6.5904,6.5904,6.5904,6.5904,6.5904,6.5904,6.5904,6.5904,6.5904,6.5904,6.5904,6.5904,6.5904,6.5904,6.5904,6.5904,6.5904,6.5904,6.5904,6.5904,6.5904,6.5904,6.5904,6.5904,6.5904,6.5904,6.5904,6.5904,6.5904,6.5904,6.5904,6.5436,6.3698,6.3295,6.2814,6.1146,6.0806,6.0806,6.0806,6.0806,6.0806,6.0806,6.0806,6.0806,6.0806,6.0806,6.0806,6.0806,6.0816,6.0827,6.0806,6.0821,6.0827,6.0806,6.0806,6.0823,6.0875,6.0829,6.0846,6.0965,6.0903,6.0875,6.0875,6.1695,6.224,6.2512,6.3981,6.481,6.509,6.5766,6.6112,6.6175,6.6175,6.6194,6.6205,6.6205,6.6205,6.6205,6.6205,6.6205,6.6205,6.6205,6.6205,6.6205,6.5904,6.5904,6.5904,6.5904,6.5904,6.5904,6.5904,6.5904,6.5904,6.5904,6.5904,6.5904,6.5904,6.5904,6.5904,6.5904,6.5904,6.5904,6.5904,6.5904,6.5904,6.5904,6.5904,6.5904,6.5904,6.5904,6.5904,6.5904,6.5904,6.5904,6.5904,6.5904,6.5904,6.5904,6.5904,6.5904,6.5904,6.5904,6.5904,6.5904,6.5904,6.5904,6.5904,6.5904,6.5904,6.5904,6.5904,6.5904,6.5904,6.5904,6.5904,6.5904,6.5904,6.5904,6.5904,6.5904,6.5904,6.5904,6.5904,6.5904,6.5904,6.5904,6.5904,6.5436,6.3698,6.3295,6.2814,6.1146,6.0806,6.0806,6.0806,6.0806,6.0806,6.0806,6.0806,6.0806,6.0806,6.0806,6.0806,6.0806,6.0806,6.0806,6.0806,6.0806,6.0806,6.0806,6.0806,6.0829,6.0905,6.0835,6.0841,6.0944,6.0949,6.0955,6.0955,6.1285,6.1689,6.2169,6.3413,6.4312,6.4923,6.5735,6.6134,6.6205,6.6205,6.6205,6.6205,6.6205,6.6205,6.6205,6.6205,6.6205,6.6205,6.6205,6.6205,6.6205,6.5904,6.5904,6.5904,6.5904,6.5904,6.5904,6.5904,6.5904,6.5904,6.5904,6.5904,6.5904,6.5904,6.5904,6.5904,6.5904,6.5904,6.5904,6.5904,6.5904,6.5904,6.5904,6.5904,6.5904,6.5904,6.5904,6.5904,6.5904,6.5904,6.5904,6.5904,6.5904,6.5904,6.5904,6.5904,6.5904,6.5904,6.5904,6.5904,6.5904,6.5904,6.5904,6.5904,6.5904,6.5904,6.5904,6.5904,6.5904,6.5904,6.5904,6.5904,6.5904,6.5904,6.5904,6.5904,6.5904,6.5904,6.5904,6.5904,6.5904,6.5904,6.5904,6.5904,6.5436,6.3698,6.3295,6.2814,6.1146,6.0806,6.0806,6.0806,6.0806,6.0806,6.0806,0.0,6.0806,6.0806,6.0806,6.0806,6.0806,6.0806,6.0806,6.0806,6.0806,6.0806,6.0806,6.0806,6.0835,6.0922,6.0858,6.0858,6.0911,6.0965,6.0987,6.0994,6.096,6.1268,6.1939,6.2745,6.367,6.4655,6.5466,6.597,6.6205,6.6205,6.6205,6.6205,6.6205,6.6205,6.6205,6.6205,6.6205,6.6205,6.6205,6.6205,6.6205,6.5904,6.5904,6.5904,6.5904,6.5904,6.5904,6.5904,6.5904,6.5904,6.5904,6.5904,6.5904,6.5904,6.5904,6.5904,6.5904,6.5904,6.5904,6.5904,6.5904,6.5904,6.5904,6.5904,6.5904,6.5904,6.5904,6.5904,6.5904,6.5904,6.5904,6.5904,6.5904,6.5904,6.5904,6.5904,6.5904,6.5904,6.5904,6.5904,6.5904,6.5904,6.5904,6.5904,6.5904,6.5904,6.5904,6.5904,6.5904,6.5904,6.5904,6.5904,6.5904,6.5904,6.5904,6.5904,6.5904,6.5904,6.5904,6.5904,6.5904,6.5904,6.5904,6.5904,6.5436,6.3698,6.3295,6.2814,6.1146,6.0806,6.0806,6.0806,6.0806,6.0806,6.0806,0.0,0.0,6.0806,6.0806,6.0806,6.0806,6.0806,6.0806,6.0806,6.0806,6.0806,6.0806,6.0806,6.0852,6.1001,6.0933,6.0916,6.0987,6.0932,6.0951,6.0997,6.0999,6.1018,6.1094,6.1977,6.2877,6.3826,6.4696,6.5489,6.6205,6.6205,6.6205,6.6205,6.6205,6.6205,6.6205,6.6205,6.6205,6.6205,6.6205,6.6205,6.6205,6.5904,6.5904,6.5904,6.5904,6.5904,6.5904,6.5904,6.5904,6.5904,6.5904,6.5904,6.5904,6.5904,6.5904,6.5904,6.5904,6.5904,6.5904,6.5904,6.5904,6.5904,6.5904,6.5904,6.5904,6.5904,6.5904,6.5904,6.5904,6.5904,6.5904,6.5904,6.5904,6.5904,6.5904,6.5904,6.5904,6.5904,6.5904,6.5904,6.5904,6.5904,6.5904,6.5904,6.5904,6.5904,6.5904,6.5904,6.5904,6.5904,6.5904,6.5904,6.5904,6.5904,6.5904,6.5904,6.5904,6.5904,6.5904,6.5904,6.5904,6.5904,6.5904,6.5904,6.5436,6.3698,6.3295,6.2814,6.1146,6.0806,6.0806,6.0806,6.0806,6.0806,6.0806,0.0,6.0806,6.0806,6.0806,6.0806,6.0806,6.0806,6.0806,6.0806,6.0806,6.0806,6.0806,6.0806,6.0841,6.0938,6.0955,6.0962,6.1004,6.0985,6.0996,6.107,6.1016,6.1016,6.107,6.1906,6.252,6.2936,6.4353,6.5165,6.5475,6.5973,6.6205,6.6205,6.6205,6.6205,6.6205,6.6205,6.6205,6.6205,6.6205,6.6205,6.6205,6.5904,6.5904,6.5904,6.5904,6.5904,6.5904,6.5904,6.5904,6.5904,6.5904,6.5904,6.5904,6.5904,6.5904,6.5904,6.5904,6.5904,6.5904,6.5904,6.5904,6.5904,6.5904,6.5904,6.5904,6.5904,6.5904,6.5904,6.5904,6.5904,6.5904,6.5904,6.5904,6.5904,6.5904,6.5904,6.5904,6.5904,6.5904,6.5904,6.5904,6.5904,6.5904,6.5904,6.5904,6.5904,6.5904,6.5904,6.5904,6.5904,6.5904,6.5904,6.5904,6.5904,6.5904,6.5904,6.5904,6.5904,6.5904,6.5904,6.5904,6.5904,6.5904,6.5904,6.5436,6.3698,6.3295,6.2814,6.1146,6.0806,6.0806,6.0806,6.0806,6.0806,6.0806,6.0806,6.0806,6.0806,6.0806,6.0806,6.0806,6.0806,6.0806,6.0806,6.0806,6.0806,6.0806,6.0806,6.0835,6.0933,6.0973,6.1009,6.1025,6.1026,6.1046,6.1099,6.1046,6.1046,6.1118,6.166,6.209,6.2448,6.3632,6.4488,6.503,6.5591,6.5973,6.6205,6.6205,6.6205,6.6205,6.6205,6.6205,6.6205,6.6205,6.6205,6.6205,6.5904,6.5904,6.5904,6.5904,6.5904,6.5904,6.5904,6.5904,6.5904,6.5904,6.5904,6.5904,6.5904,6.5904,6.5904,6.5904,6.5904,6.5904,6.5904,6.5904,6.5904,6.5904,6.5904,6.5904,6.5904,6.5904,6.5904,6.5904,6.5904,6.5904,6.5904,6.5904,6.5904,6.5904,6.5904,6.5904,6.5904,6.5904,6.5904,6.5904,6.5904,6.5904,6.5904,6.5904,6.5904,6.5904,6.5904,6.5904,6.5904,6.5904,6.5904,6.5904,6.5904,6.5904,6.5904,6.5904,6.5904,6.5904,6.5904,6.5904,6.5904,6.5904,6.5878,6.5436,6.3698,6.3295,6.2814,6.1146,6.0806,6.0806,6.0806,6.0806,6.0806,6.0806,6.0806,6.0806,6.0806,6.0806,6.0806,6.0806,6.0806,6.0806,6.0806,6.0806,6.0806,6.0806,6.0806,6.0852,6.0987,6.0991,6.1027,6.1094,6.1099,6.1099,6.1099,6.1099,6.1099,6.1099,6.1099,6.1539,6.239,6.239,6.3342,6.4972,6.4991,6.5455,6.6185,6.6205,6.6205,6.6205,6.6205,6.6205,6.6205,6.6205,6.6205,6.6205,6.5904,6.5904,6.5904,6.5904,6.5904,6.5904,6.5904,6.5904,6.5904,6.5904,6.5904,6.5904,6.5904,6.5904,6.5904,6.5904,6.5904,6.5904,6.5904,6.5904,6.5904,6.5904,6.5904,6.5904,6.5904,6.5904,6.5904,6.5904,6.5904,6.5904,6.5904,6.5904,6.5904,6.5904,6.5904,6.5904,6.5904,6.5904,6.5904,6.5904,6.5904,6.5904,6.5904,6.5904,6.5904,6.5904,6.5904,6.5904,6.5904,6.5904,6.5904,6.5904,6.5904,6.5904,6.5904,6.5904,6.5904,6.5904,6.5904,6.5904,6.5904,6.5904,6.5436,6.4686,6.3564,6.2858,6.2133,6.1037,6.0806,6.0806,6.0806,6.0806,6.0806,6.0806,6.0806,6.0806,6.0806,6.0806,6.0806,6.0806,6.0806,6.0806,6.0806,6.0806,6.0806,6.0806,6.0806,6.0818,6.0852,6.0946,6.1009,6.1025,6.108,6.1099,6.1099,6.1099,6.1099,6.1099,6.1099,6.1234,6.15,6.2119,6.268,6.3245,6.4469,6.5146,6.5397,6.5973,6.6205,6.6205,6.6205,6.6205,6.6205,6.6205,6.6205,6.6205,6.5904,6.5904,6.5904,6.5904,6.5904,6.5904,6.5904,6.5904,6.5904,6.5904,6.5904,6.5904,6.5904,6.5904,6.5904,6.5904,6.5904,6.5904,6.5904,6.5904,6.5904,6.5904,6.5904,6.5904,6.5904,6.5904,6.5904,6.5904,6.5904,6.5904,6.5904,6.5904,6.5904,6.5904,6.5904,6.5904,6.5904,6.5904,6.5904,6.5904,6.5904,6.5904,6.5904,6.5904,6.5904,6.5904,6.5904,6.5904,6.5904,6.5904,6.5904,6.5904,6.5904,6.5904,6.5904,6.5904,6.5904,6.5904,6.5904,6.5904,6.5904,6.5904,6.5243,6.4378,6.3506,6.2685,6.1845,6.0979,6.0806,6.0806,6.0806,6.0806,6.0806,6.0806,6.0806,6.0806,6.0806,6.0806,6.0806,6.0806,6.0806,6.0806,6.0806,6.0806,6.0806,6.0806,6.0806,6.0823,6.0888,6.0955,6.1013,6.104,6.1085,6.1099,6.1099,6.1099,6.1099,6.1099,6.1099,6.1099,6.1118,6.1655,6.2061,6.2486,6.3889,6.4682,6.5069,6.5876,6.6205,6.6205,6.6205,6.6205,6.6205,6.6205,6.6205,6.6205,6.5904,6.5904,6.5904,6.5904,6.5904,6.5904,6.5904,6.5904,6.5904,6.5904,6.5904,6.5904,6.5904,6.5904,6.5904,6.5904,6.5904,6.5904,6.5904,6.5904,6.5904,6.5904,6.5904,6.5904,6.5904,6.5904,6.5904,6.5904,6.5904,6.5904,6.5904,6.5904,6.5904,6.5904,6.5904,6.5904,6.5904,6.5904,6.5904,6.5904,6.5904,6.5904,6.5904,6.5904,6.5904,6.5904,6.5904,6.5904,6.5904,6.5904,6.5904,6.5904,6.5904,6.5904,6.5904,6.5904,6.5904,6.5904,6.5904,6.5904,6.5904,6.5904,6.5186,6.4282,6.3487,6.2627,6.1768,6.096,6.0806,6.0806,6.0806,6.0806,6.0806,6.0806,6.0806,6.0806,6.0806,6.0806,6.0806,6.0806,6.0806,6.0806,6.0806,6.0806,6.0806,6.0806,6.0806,6.0852,6.0976,6.1006,6.1025,6.1089,6.1094,6.1099,6.1099,6.1099,6.1099,6.1099,6.1099,6.1099,6.1099,6.1099,6.1519,6.2332,6.3212,6.4082,6.4952,6.576,6.6147,6.6205,6.6205,6.6205,6.6205,6.6205,6.6205,6.6205,6.5904,6.5904,6.5904,6.5904,6.5904,6.5904,6.5904,6.5904,6.5904,6.5904,6.5904,6.5904,6.5904,6.5904,6.5904,6.5904,6.5904,6.5904,6.5904,6.5904,6.5904,6.5904,6.5904,6.5904,6.5904,6.5904,6.5904,6.5904,6.5904,6.5904,6.5904,6.5904,6.5904,6.5904,6.5904,6.5904,6.5904,6.5904,6.5904,6.5904,6.5904,6.5904,6.5904,6.5904,6.5904,6.5904,6.5904,6.5904,6.5904,6.5904,6.5904,6.5904,6.5904,6.5904,6.5904,6.5904,6.5904,6.5904,6.5904,6.5904,6.5904,6.5904,6.4724,6.3525,6.3333,6.2147,6.1037,6.0845,6.0806,6.0806,6.0806,6.0806,6.0806,6.0806,6.0806,6.0806,6.0806,6.0806,6.0806,6.0806,6.0806,6.0806,6.0806,6.0806,6.0806,6.0806,6.0806,6.0835,6.0922,6.0971,6.1004,6.1017,6.1075,6.1099,6.1099,6.1099,6.1099,6.1099,6.1099,6.1099,6.1099,6.1099,6.1195,6.1427,6.2298,6.3187,6.4043,6.4914,6.5629,6.6205,6.6205,6.6205,6.6205,6.6205,6.6205,6.6205,6.5904,6.5904,6.5904,6.5904,6.5904,6.5904,6.5904,6.5904,6.5904,6.5904,6.5904,6.5904,6.5904,6.5904,6.5904,6.5904,6.5904,6.5904,6.5904,6.5904,6.5904,6.5904,6.5904,6.5904,6.5904,6.5904,6.5904,6.5904,6.5904,6.5904,6.5904,6.5904,6.5904,6.5904,6.5904,6.5904,6.5904,6.5904,6.5904,6.5904,6.5904,6.5904,6.5904,6.5904,6.5904,6.5904,6.5904,6.5904,6.5904,6.5904,6.5904,6.5904,6.5904,6.5904,6.5904,6.5904,6.5904,6.5904,6.5904,6.5904,6.5904,6.5904,6.4589,6.3295,6.3295,6.1993,6.0806,6.0806,6.0806,6.0806,6.0806,6.0806,6.0806,6.0806,6.0806,6.0806,6.0806,6.0806,6.0806,6.0806,6.0806,6.0806,6.0806,6.0806,6.0806,6.0806,6.0829,6.0888,6.0944,6.0983,6.1001,6.1056,6.1084,6.1099,6.1099,6.1099,6.1099,6.1099,6.1099,6.1099,6.1099,6.1099,6.1099,6.1157,6.2022,6.2897,6.3773,6.4643,6.5475,6.6205,6.6205,6.6205,6.6205,6.6205,6.6205,6.6205,6.5904,6.5904,6.5904,6.5904,6.5904,6.5904,6.5904,6.5904,6.5904,6.5904,6.5904,6.5904,6.5904,6.5904,6.5904,6.5904,6.5904,6.5904,6.5904,6.5904,6.5904,6.5904,6.5904,6.5904,6.5904,6.5904,6.5904,6.5904,6.5904,6.5904,6.5904,6.5904,6.5904,6.5904,6.5904,6.5904,6.5904,6.5904,6.5904,6.5904,6.5904,6.5904,6.5904,6.5904,6.5904,6.5904,6.5904,6.5904,6.5904,6.5904,6.5904,6.5904,6.5904,6.5904,6.5904,6.5904,6.5904,6.5904,6.5904,6.5904,6.5904,6.5904,6.4589,6.3295,6.3295,6.1993,6.0806,6.0806,6.0806,6.0806,6.0806,6.0806,6.0806,6.0806,6.0806,6.0806,6.0806,6.0806,6.0806,6.0806,6.0806,6.0806,6.0806,6.0806,6.0806,6.0818,6.0863,6.0938,6.1003,6.0996,6.1027,6.1094,6.1099,6.1099,6.1099,6.1099,6.1099,6.1099,6.1099,6.1099,6.1099,6.1099,6.1099,6.1137,6.1868,6.2665,6.354,6.4411,6.5262,6.6011,6.6147,6.6205,6.6205,6.6205,6.6205,6.6205,6.5904,6.5904,6.5904,6.5904,6.5904,6.5904,6.5904,6.5904,6.5904,6.5904,6.5904,6.5904,6.5904,6.5904,6.5904,6.5904,6.5904,6.5904,6.5904,6.5904,6.5904,6.5904,6.5904,6.5904,6.5904,6.5904,6.5904,6.5904,6.5904,6.5904,6.5904,6.5904,6.5904,6.5904,6.5904,6.5904,6.5904,6.5904,6.5904,6.5904,6.5904,6.5904,6.5904,6.5904,6.5904,6.5904,6.5904,6.5904,6.5904,6.5904,6.5904,6.5904,6.5904,6.5904,6.5904,6.5904,6.5904,6.5904,6.5904,6.5904,6.5904,6.5904,6.4589,6.3295,6.3295,6.1993,6.0806,6.0806,6.0806,6.0806,6.0806,6.0806,6.0806,6.0806,6.0806,6.0806,6.0806,6.0806,6.0806,6.0806,6.0806,6.0806,6.0806,6.0806,6.0823,6.0875,6.0886,6.0941,6.1006,6.1002,6.1027,6.1094,6.1099,6.1099,6.1099,6.1099,6.1099,6.1099,6.1099,6.1099,6.1099,6.1099,6.1099,6.1118,6.1215,6.1776,6.2646,6.3521,6.4372,6.5223,6.5934,6.6205,6.6205,6.6205,6.6205,6.6205,6.5904,6.5904,6.5904,6.5904,6.5904,6.5904,6.5904,6.5904,6.5904,6.5904,6.5904,6.5904,6.5904,6.5904,6.5904,6.5904,6.5904,6.5904,6.5904,6.5904,6.5904,6.5904,6.5904,6.5904,6.5904,6.5904,6.5904,6.5904,6.5904,6.5904,6.5904,6.5904,6.5904,6.5904,6.5904,6.5904,6.5904,6.5904,6.5904,6.5904,6.5904,6.5904,6.5904,6.5904,6.5904,6.5904,6.5904,6.5904,6.5904,6.5904,6.5904,6.5904,6.5904,6.5904,6.5904,6.5904,6.5904,6.5904,6.5904,6.5904,6.5904,6.5904,6.4589,6.3295,6.3295,6.1993,6.0806,6.0806,6.0806,6.0806,6.0806,6.0806,6.0806,6.0806,6.0806,6.0806,6.0806,6.0806,6.0806,6.0806,6.0806,6.0806,6.0806,6.0806,6.0829,6.0886,6.0938,6.0973,6.1002,6.1032,6.1075,6.1094,6.1099,6.1099,6.1099,6.1099,6.1099,6.1099,6.1099,6.1099,6.1099,6.1099,6.1099,6.1099,6.1099,6.1597,6.2467,6.3347,6.4217,6.5088,6.5895,6.6205,6.6205,6.6205,6.6205,6.6205]}]]